[[{"header":{"parameterUnit":"m.s-1","parameterCategory":1,"la1":30.6,"la2":28.766,"lo1":-90.7593,"lo2":-88.6598,"dy":0.0162,"dx":0.0183,"nx":116,"ny":114,"refTime":"2024-04-27T12:00:00:Z","depth":0,"parameterNumber":2,"parameterNumberName":"U-component_of_WINDS"},"data":[0.0,0.0,0.0,0.0,0.0,0.0,0.0,0.0,0.0,0.0,0.0,0.0,0.0,0.0,0.0,0.0,0.0,0.0,0.0,0.0,0.0,0.0,0.0,0.0,0.0,0.0,0.0,0.0,0.0,0.0,0.0,0.0,0.0,0.0,0.0,0.0,0.0,0.0,0.0,0.0,0.0,0.0,0.0,0.0,0.0,0.0,0.0,0.0,0.0,0.0,0.0,0.0,0.0,0.0,0.0,0.0,0.0,0.0,0.0,0.0,0.0,0.0,0.0,0.0,0.0,0.0,0.0,0.0,0.0,0.0,0.0,0.0,0.0,0.0,0.0,0.0,0.0,0.0,0.0,0.0,0.0,0.0,0.0,0.0,0.0,0.0,0.0,0.0,0.0,0.0,0.0,0.0,0.0,0.0,0.0,0.0,0.0,0.0,0.0,0.0,0.0,0.0,0.0,0.0,0.0,0.0,0.0,0.0,0.0,0.0,0.0,0.0,0.0,0.0,0.0,0.0,0.0,0.0,0.0,0.0,0.0,0.0,0.0,0.0,0.0,0.0,0.0,0.0,0.0,0.0,0.0,0.0,0.0,0.0,0.0,0.0,0.0,0.0,0.0,0.0,0.0,0.0,0.0,0.0,0.0,0.0,0.0,0.0,0.0,0.0,0.0,0.0,0.0,0.0,0.0,0.0,0.0,0.0,0.0,0.0,0.0,0.0,0.0,0.0,0.0,0.0,0.0,0.0,0.0,0.0,0.0,0.0,0.0,0.0,0.0,0.0,0.0,0.0,0.0,0.0,0.0,0.0,0.0,0.0,0.0,0.0,0.0,0.0,0.0,0.0,0.0,0.0,0.0,0.0,0.0,0.0,0.0,0.0,0.0,0.0,0.0,0.0,0.0,0.0,0.0,0.0,0.0,0.0,0.0,0.0,0.0,0.0,0.0,0.0,0.0,0.0,0.0,0.0,0.0,0.0,0.0,0.0,0.0,0.0,0.0,0.0,0.0,0.0,0.0,0.0,0.0,0.0,0.0,0.0,0.0,0.0,0.0,0.0,0.0,0.0,0.0,0.0,0.0,0.0,0.0,0.0,0.0,0.0,0.0,0.0,0.0,0.0,0.0,0.0,0.0,0.0,0.0,0.0,0.0,0.0,0.0,0.0,0.0,0.0,0.0,0.0,0.0,0.0,0.0,0.0,0.0,0.0,0.0,0.0,0.0,0.0,0.0,0.0,0.0,0.0,0.0,0.0,0.0,0.0,0.0,0.0,0.0,0.0,0.0,0.0,0.0,0.0,0.0,0.0,0.0,0.0,0.0,0.0,0.0,0.0,0.0,0.0,0.0,0.0,0.0,0.0,0.0,0.0,0.0,0.0,0.0,0.0,0.0,0.0,0.0,0.0,0.0,0.0,0.0,0.0,0.0,0.0,0.0,0.0,0.0,0.0,0.0,0.0,0.0,0.0,0.0,0.0,0.0,0.0,0.0,0.0,0.0,0.0,0.0,0.0,0.0,0.0,0.0,0.0,0.0,0.0,0.0,0.0,0.0,0.0,0.0,0.0,0.0,0.0,0.0,0.0,0.0,0.0,0.0,0.0,0.0,0.0,0.0,0.0,0.0,0.0,0.0,0.0,0.0,0.0,0.0,0.0,0.0,0.0,0.0,0.0,0.0,0.0,0.0,0.0,0.0,0.0,0.0,0.0,0.0,0.0,0.0,0.0,0.0,0.0,0.0,0.0,0.0,0.0,0.0,0.0,0.0,0.0,0.0,0.0,0.0,0.0,0.0,0.0,0.0,0.0,0.0,0.0,0.0,0.0,0.0,0.0,0.0,0.0,0.0,0.0,0.0,0.0,0.0,0.0,0.0,0.0,0.0,0.0,0.0,0.0,0.0,0.0,0.0,0.0,0.0,0.0,0.0,0.0,0.0,0.0,0.0,0.0,0.0,0.0,0.0,0.0,0.0,0.0,0.0,0.0,0.0,0.0,0.0,0.0,0.0,0.0,0.0,0.0,0.0,0.0,0.0,0.0,0.0,0.0,0.0,0.0,0.0,0.0,0.0,0.0,0.0,0.0,0.0,0.0,0.0,0.0,0.0,0.0,0.0,0.0,0.0,0.0,0.0,0.0,0.0,0.0,0.0,0.0,0.0,0.0,0.0,0.0,0.0,0.0,0.0,0.0,0.0,0.0,0.0,0.0,0.0,0.0,0.0,0.0,0.0,0.0,0.0,0.0,0.0,0.0,0.0,0.0,0.0,0.0,0.0,0.0,0.0,0.0,0.0,0.0,0.0,0.0,0.0,0.0,0.0,0.0,0.0,0.0,0.0,0.0,0.0,0.0,0.0,0.0,0.0,0.0,0.0,0.0,0.0,0.0,0.0,0.0,0.0,0.0,0.0,0.0,0.0,0.0,0.0,0.0,0.0,0.0,0.0,0.0,0.0,0.0,0.0,0.0,0.0,0.0,0.0,0.0,0.0,0.0,0.0,0.0,0.0,0.0,0.0,0.0,0.0,0.0,0.0,0.0,0.0,0.0,0.0,0.0,0.0,0.0,0.0,0.0,0.0,0.0,0.0,0.0,0.0,0.0,0.0,0.0,0.0,0.0,0.0,0.0,0.0,0.0,0.0,0.0,0.0,0.0,0.0,0.0,0.0,0.0,0.0,0.0,0.0,0.0,0.0,0.0,0.0,0.0,0.0,0.0,0.0,0.0,0.0,0.0,0.0,0.0,0.0,0.0,0.0,0.0,0.0,0.0,0.0,0.0,0.0,0.0,0.0,0.0,0.0,0.0,0.0,0.0,0.0,0.0,0.0,0.0,0.0,0.0,0.0,0.0,0.0,0.0,0.0,0.0,0.0,0.0,0.0,0.0,0.0,0.0,0.0,0.0,0.0,0.0,0.0,0.0,0.0,0.0,0.0,0.0,0.0,0.0,0.0,0.0,0.0,0.0,0.0,0.0,0.0,0.0,0.0,0.0,0.0,0.0,0.0,0.0,0.0,0.0,0.0,0.0,0.0,0.0,0.0,0.0,0.0,0.0,0.0,0.0,0.0,0.0,0.0,0.0,0.0,0.0,0.0,0.0,0.0,0.0,0.0,0.0,0.0,0.0,0.0,0.0,0.0,0.0,0.0,0.0,0.0,0.0,0.0,0.0,0.0,0.0,0.0,0.0,0.0,0.0,0.0,0.0,0.0,0.0,0.0,0.0,0.0,0.0,0.0,0.0,0.0,0.0,0.0,0.0,0.0,0.0,0.0,0.0,0.0,0.0,0.0,0.0,0.0,0.0,0.0,0.0,0.0,0.0,0.0,0.0,0.0,0.0,0.0,0.0,0.0,0.0,0.0,0.0,0.0,0.0,0.0,0.0,0.0,0.0,0.0,0.0,0.0,0.0,0.0,0.0,0.0,0.0,0.0,0.0,0.0,0.0,0.0,0.0,0.0,0.0,0.0,0.0,0.0,0.0,0.0,0.0,0.0,0.0,0.0,0.0,0.0,0.0,0.0,0.0,0.0,0.0,0.0,0.0,0.0,0.0,0.0,0.0,0.0,0.0,0.0,0.0,0.0,0.0,0.0,0.0,0.0,0.0,0.0,0.0,0.0,0.0,0.0,0.0,0.0,0.0,0.0,0.0,0.0,0.0,0.0,0.0,0.0,0.0,0.0,0.0,0.0,0.0,0.0,0.0,0.0,0.0,0.0,0.0,0.0,0.0,0.0,0.0,0.0,0.0,0.0,0.0,0.0,0.0,0.0,0.0,0.0,0.0,0.0,0.0,0.0,0.0,0.0,0.0,0.0,0.0,0.0,0.0,0.0,0.0,0.0,0.0,0.0,0.0,0.0,0.0,0.0,0.0,0.0,0.0,0.0,0.0,0.0,0.0,0.0,0.0,0.0,0.0,0.0,0.0,0.0,0.0,0.0,0.0,0.0,0.0,0.0,0.0,0.0,0.0,0.0,0.0,0.0,0.0,0.0,0.0,0.0,0.0,0.0,0.0,0.0,0.0,0.0,0.0,0.0,0.0,0.0,0.0,0.0,0.0,0.0,0.0,0.0,0.0,0.0,0.0,0.0,0.0,0.0,0.0,0.0,0.0,0.0,0.0,0.0,0.0,0.0,0.0,0.0,0.0,0.0,0.0,0.0,0.0,0.0,0.0,0.0,0.0,0.0,0.0,0.0,0.0,0.0,0.0,0.0,0.0,0.0,0.0,0.0,0.0,0.0,0.0,0.0,0.0,0.0,0.0,0.0,0.0,0.0,0.0,0.0,0.0,0.0,0.0,0.0,0.0,0.0,0.0,0.0,0.0,0.0,0.0,0.0,0.0,0.0,0.0,0.0,0.0,0.0,0.0,0.0,0.0,0.0,0.0,0.0,0.0,0.0,0.0,0.0,0.0,0.0,0.0,0.0,0.0,0.0,0.0,0.0,0.0,0.0,0.0,0.0,0.0,0.0,0.0,0.0,0.0,0.0,0.0,0.0,0.0,0.0,0.0,0.0,0.0,0.0,0.0,0.0,0.0,0.0,0.0,0.0,0.0,0.0,0.0,0.0,0.0,0.0,0.0,0.0,0.0,0.0,0.0,0.0,0.0,0.0,0.0,0.0,0.0,0.0,0.0,0.0,0.0,0.0,0.0,0.0,0.0,0.0,0.0,0.0,0.0,0.0,0.0,0.0,0.0,0.0,0.0,0.0,0.0,0.0,0.0,0.0,0.0,0.0,0.0,0.0,0.0,0.0,0.0,0.0,0.0,0.0,0.0,0.0,0.0,0.0,0.0,0.0,0.0,0.0,0.0,0.0,0.0,0.0,0.0,0.0,0.0,0.0,0.0,0.0,0.0,0.0,0.0,0.0,0.0,0.0,0.0,0.0,0.0,0.0,0.0,0.0,0.0,0.0,0.0,0.0,0.0,0.0,0.0,0.0,0.0,0.0,0.0,0.0,0.0,0.0,0.0,0.0,0.0,0.0,0.0,0.0,0.0,0.0,0.0,0.0,0.0,0.0,0.0,0.0,0.0,0.0,0.0,0.0,0.0,0.0,0.0,0.0,0.0,0.0,0.0,0.0,0.0,0.0,0.0,0.0,0.0,0.0,0.0,0.0,0.0,0.0,0.0,0.0,0.0,0.0,0.0,0.0,0.0,0.0,0.0,0.0,0.0,0.0,0.0,0.0,0.0,0.0,0.0,0.0,0.0,0.0,0.0,0.0,0.0,0.0,0.0,0.0,0.0,0.0,0.0,0.0,0.0,0.0,0.0,0.0,0.0,0.0,0.0,0.0,0.0,0.0,0.0,0.0,0.0,0.0,0.0,0.0,0.0,0.0,0.0,0.0,0.0,0.0,0.0,0.0,0.0,0.0,0.0,0.0,0.0,0.0,0.0,0.0,0.0,0.0,0.0,0.0,0.0,0.0,0.0,0.0,0.0,0.0,0.0,0.0,0.0,0.0,0.0,0.0,0.0,0.0,0.0,0.0,0.0,0.0,0.0,0.0,0.0,0.0,0.0,0.0,0.0,0.0,0.0,0.0,0.0,0.0,0.0,0.0,0.0,0.0,0.0,0.0,0.0,0.0,0.0,0.0,0.0,0.0,0.0,0.0,0.0,0.0,0.0,0.0,0.0,0.0,0.0,0.0,0.0,0.0,0.0,0.0,0.0,0.0,0.0,0.0,0.0,0.0,0.0,0.0,0.0,0.0,0.0,0.0,0.0,0.0,0.0,0.0,0.0,0.0,0.0,0.0,0.0,0.0,0.0,0.0,0.0,0.0,0.0,0.0,0.0,0.0,0.0,0.0,0.0,0.0,0.0,0.0,0.0,0.0,0.0,0.0,0.0,0.0,0.0,0.0,0.0,0.0,0.0,0.0,0.0,0.0,0.0,0.0,0.0,0.0,0.0,0.0,0.0,0.0,0.0,0.0,0.0,0.0,0.0,0.0,0.0,0.0,0.0,0.0,0.0,0.0,0.0,0.0,0.0,0.0,0.0,0.0,0.0,0.0,0.0,0.0,0.0,0.0,0.0,0.0,0.0,0.0,0.0,0.0,0.0,0.0,0.0,0.0,0.0,0.0,0.0,0.0,0.0,0.0,0.0,0.0,0.0,0.0,0.0,0.0,0.0,-6.0588,-5.778,0.0,0.0,0.0,0.0,0.0,0.0,0.0,0.0,0.0,0.0,0.0,0.0,0.0,0.0,0.0,0.0,0.0,0.0,0.0,0.0,0.0,0.0,0.0,-5.5904,-5.5647,-5.4473,-5.4363,-5.4179,-5.3812,-5.3408,-5.2725,-5.1667,-5.1292,-5.0792,-5.0133,-4.9743,-5.027,-5.1792,-5.2841,-5.4499,-5.6664,-5.6664,-5.5547,-5.3484,0.0,0.0,0.0,0.0,0.0,0.0,0.0,0.0,0.0,0.0,0.0,0.0,0.0,0.0,0.0,0.0,0.0,0.0,0.0,0.0,0.0,0.0,0.0,0.0,0.0,0.0,0.0,0.0,0.0,0.0,0.0,0.0,0.0,0.0,0.0,0.0,0.0,0.0,0.0,0.0,0.0,0.0,0.0,0.0,0.0,0.0,0.0,0.0,0.0,0.0,0.0,0.0,0.0,0.0,0.0,0.0,0.0,0.0,0.0,0.0,0.0,0.0,0.0,0.0,0.0,0.0,0.0,0.0,0.0,0.0,-6.3294,-6.1231,0.0,0.0,0.0,0.0,0.0,0.0,0.0,0.0,0.0,0.0,0.0,0.0,0.0,0.0,0.0,0.0,0.0,0.0,0.0,0.0,0.0,-5.6638,-5.6785,-5.7409,-5.7189,-5.5721,-5.5596,-5.5317,-5.4656,-5.3741,-5.2658,-5.1376,-5.1052,-5.0384,-4.9218,-4.9796,-5.0642,-5.1792,-5.4768,-5.7611,-6.0114,-6.0114,-5.8152,-5.4668,-5.4668,0.0,0.0,0.0,0.0,0.0,0.0,0.0,0.0,0.0,0.0,0.0,0.0,0.0,0.0,0.0,0.0,0.0,0.0,0.0,0.0,0.0,0.0,0.0,0.0,0.0,0.0,0.0,0.0,0.0,0.0,0.0,0.0,0.0,0.0,0.0,0.0,0.0,0.0,0.0,0.0,0.0,0.0,0.0,0.0,0.0,0.0,0.0,0.0,0.0,0.0,0.0,0.0,0.0,0.0,0.0,0.0,0.0,0.0,0.0,0.0,0.0,0.0,0.0,-6.6339,-6.7184,-6.8335,-6.759,-6.7658,-6.8301,-6.7286,-6.6136,-6.4816,-6.2719,0.0,0.0,0.0,0.0,0.0,0.0,0.0,0.0,0.0,0.0,0.0,0.0,0.0,0.0,0.0,0.0,0.0,0.0,0.0,-5.6014,-5.6712,-5.6895,-5.6602,-5.5706,-5.5596,-5.5559,-5.5427,-5.4077,-5.2953,-5.2165,-5.0885,-5.009,-4.9963,-5.0033,-5.142,-5.416,-5.7137,-5.9099,-6.0114,-6.0114,-5.9776,-5.9235,-5.9235,-5.8118,-5.6224,0.0,0.0,0.0,0.0,0.0,0.0,0.0,0.0,0.0,0.0,0.0,0.0,0.0,0.0,0.0,0.0,0.0,0.0,0.0,0.0,0.0,0.0,0.0,0.0,0.0,0.0,0.0,0.0,0.0,0.0,0.0,0.0,0.0,0.0,0.0,0.0,0.0,0.0,0.0,0.0,0.0,-6.0825,-6.3531,0.0,0.0,0.0,0.0,0.0,0.0,0.0,0.0,0.0,0.0,0.0,0.0,0.0,-6.6068,-6.8064,-7.0161,-7.1278,-7.1379,-7.3308,-7.4356,-7.4492,-7.3781,-7.3849,-7.4424,-7.2394,0.0,-6.6406,-6.4816,0.0,0.0,0.0,0.0,0.0,0.0,0.0,0.0,0.0,0.0,0.0,0.0,0.0,0.0,0.0,0.0,0.0,0.0,0.0,0.0,0.0,-5.8694,-5.9355,-5.8988,-5.9832,-5.9795,-5.84,-5.6467,-5.445,-5.2405,-5.0809,-4.9865,-4.9489,-5.0304,-5.301,-5.7679,-5.9844,-6.1941,-6.3869,-6.3869,-6.3869,-6.3869,-6.3869,-6.1941,-5.866,-5.866,0.0,0.0,0.0,0.0,0.0,0.0,0.0,0.0,0.0,0.0,0.0,0.0,0.0,0.0,0.0,0.0,0.0,0.0,0.0,0.0,0.0,0.0,0.0,0.0,0.0,0.0,0.0,0.0,0.0,0.0,0.0,0.0,0.0,0.0,0.0,0.0,0.0,0.0,0.0,-6.14,-6.3429,-6.3937,-6.4816,-6.4309,0.0,0.0,0.0,0.0,0.0,0.0,0.0,0.0,0.0,-6.7557,-6.962,-7.1176,-7.2191,-7.4424,-7.5743,-7.6183,-7.7164,-7.7604,-7.7604,-7.686,-7.6234,-7.5622,-7.4206,-7.1919,-6.9141,-6.7724,-6.6677,-6.5647,0.0,0.0,0.0,0.0,-5.4729,-5.356,0.0,0.0,0.0,0.0,0.0,0.0,0.0,0.0,0.0,0.0,0.0,0.0,-5.8584,-6.0786,-6.2218,-6.2218,-6.3576,-6.3356,-6.086,-5.8413,-5.5721,-5.2759,-5.0745,-4.9521,-4.9018,-5.1217,-5.5006,-6.0419,-6.211,-6.4072,-6.6271,-6.6643,-6.6711,-6.6542,-6.6745,-6.4647,-6.096,-6.096,-5.937,-5.6731,0.0,0.0,0.0,0.0,0.0,0.0,0.0,0.0,0.0,0.0,0.0,0.0,0.0,0.0,0.0,0.0,0.0,0.0,0.0,0.0,0.0,0.0,0.0,0.0,0.0,0.0,0.0,0.0,0.0,0.0,0.0,0.0,0.0,0.0,0.0,0.0,0.0,-6.4214,-6.5933,-6.5053,-6.7726,-6.7827,0.0,0.0,0.0,0.0,0.0,0.0,-6.7929,-6.9586,-7.0939,-7.1921,-7.4181,-7.5616,-7.5986,-7.7244,-7.8141,-7.8674,-7.8674,-7.8674,-7.8674,-7.8107,-7.7185,-7.5908,-7.5102,-7.3663,-7.1666,-7.0041,-6.8602,-6.7079,-6.4117,-6.1664,-5.9577,-5.7873,-5.6226,-5.4901,0.0,0.0,0.0,0.0,0.0,0.0,0.0,0.0,0.0,0.0,0.0,-5.9404,-6.0199,-6.2475,-6.3943,-6.3943,-6.4751,-6.42,-6.1704,-5.8745,-5.5984,-5.3566,-5.0631,-4.9015,-4.9018,-5.3281,-5.7374,-6.1231,-6.3429,-6.458,-6.4749,-6.6136,-6.644,-6.5764,-6.6508,-6.5527,-6.3362,-6.3362,-6.2009,-5.9641,-5.6799,0.0,0.0,0.0,0.0,0.0,0.0,0.0,0.0,0.0,0.0,0.0,0.0,0.0,0.0,0.0,0.0,0.0,0.0,0.0,0.0,0.0,0.0,0.0,0.0,0.0,0.0,0.0,0.0,0.0,0.0,0.0,0.0,0.0,0.0,0.0,0.0,0.0,0.0,-6.8741,-7.3916,0.0,0.0,0.0,0.0,-6.7827,-6.9079,-7.1176,-7.4018,-7.4255,-7.598,-7.9532,-7.8331,-7.831,-7.9716,-7.828,-7.7526,-7.7558,-7.7558,-7.7558,-7.7558,-7.7526,-7.7142,-7.6502,-7.5855,-7.4708,-7.318,-7.094,-6.8444,-6.5852,-6.4296,-6.2348,-6.0153,-5.7745,-5.6693,-5.6423,0.0,0.0,0.0,-5.5703,-5.5375,-5.4756,-5.3807,-5.4438,-5.4758,-5.4133,-5.7079,-5.9515,-6.0309,-6.398,-6.6623,-6.7136,-6.8862,-6.8678,-6.5705,-6.1728,-5.8174,-5.5182,-5.1183,-4.9932,-5.186,-5.5818,-5.8964,-6.1298,-6.3057,-6.414,-6.4613,-6.5628,-6.5933,-6.573,-6.6474,-6.6373,-6.5628,-6.5628,-6.4343,-6.2178,-6.0622,-5.8118,0.0,0.0,0.0,0.0,0.0,0.0,0.0,0.0,0.0,0.0,0.0,0.0,0.0,0.0,0.0,0.0,0.0,0.0,0.0,0.0,0.0,0.0,0.0,0.0,0.0,0.0,0.0,0.0,0.0,0.0,0.0,0.0,0.0,0.0,0.0,0.0,0.0,-7.2987,-7.5407,0.0,-7.2818,-7.225,-7.1854,-7.1404,-7.2222,-7.3433,-7.4952,-7.5984,-7.7311,-7.9129,-7.9134,-7.9327,-7.9871,-7.9244,-7.8975,-7.8975,-7.8975,-7.8719,-7.8179,-7.7824,-7.6712,-7.502,-7.4362,-7.2789,-7.0524,-6.9238,-6.8514,-6.7808,-6.503,-6.3224,-6.1957,-6.0211,-5.9017,-5.8308,0.0,0.0,0.0,-5.5318,-5.4953,-5.4224,-5.2976,-5.3821,-5.4553,-5.4427,-5.79,-6.0946,-6.2328,-6.6329,-6.9119,-6.9669,-7.1431,-7.077,-6.6733,-6.2911,-5.8986,-5.4871,-5.174,-5.1758,-5.5277,-5.7746,-5.9877,-6.167,-6.2922,-6.3632,-6.3869,-6.485,-6.5324,-6.5358,-6.6102,-6.6576,-6.6846,-6.7083,-6.6203,-6.4512,-6.326,-6.0689,-5.734,0.0,0.0,0.0,0.0,0.0,0.0,0.0,0.0,0.0,0.0,0.0,0.0,0.0,0.0,0.0,0.0,0.0,0.0,0.0,0.0,0.0,0.0,0.0,0.0,0.0,0.0,0.0,0.0,0.0,0.0,0.0,0.0,0.0,0.0,-6.7818,-7.1778,-7.4397,-7.7115,-7.7905,-7.562,-7.5247,-7.5099,-7.5005,-7.5867,-7.6719,-7.7421,-7.8151,-7.8786,-7.9326,-7.9092,-7.8971,-7.8971,-7.8408,-7.8123,-7.8154,-7.8154,-7.7904,-7.734,-7.6682,-7.506,-7.2794,-7.2365,-7.046,-6.7627,-6.7178,-6.7202,-6.7293,-6.4967,-6.3691,-6.2999,-6.2126,-6.0924,-5.9847,0.0,0.0,0.0,-5.4587,-5.4061,-5.3373,-5.2145,-5.298,-5.444,-5.6375,-6.0175,-6.3686,-6.6109,-6.9339,-7.1293,-7.1329,-7.2055,-7.011,-6.453,-6.2045,-5.8217,-5.2546,-5.2375,-5.4532,-5.8964,-5.9133,-6.0216,-6.2415,-6.3159,-6.3125,-6.2415,-6.3903,-6.458,-6.4613,-6.5358,-6.6102,-6.6812,-6.7557,-6.7489,-6.6677,-6.4546,-6.2787,-6.1028,0.0,0.0,0.0,0.0,0.0,0.0,0.0,0.0,0.0,0.0,0.0,0.0,0.0,0.0,0.0,0.0,0.0,0.0,0.0,0.0,0.0,0.0,0.0,0.0,0.0,0.0,0.0,0.0,0.0,0.0,0.0,0.0,0.0,-6.2862,-6.95,-7.3849,-7.3194,-7.9374,-8.1442,-7.576,-7.9058,-8.0647,-7.8578,-7.9722,-8.0773,-8.1442,-8.0835,-8.0452,-8.0452,-7.831,-7.7163,-7.7163,-7.5631,-7.4869,-7.4869,-7.4869,-7.4839,-7.4839,-7.4151,-7.2445,-7.0021,-6.9991,-6.8106,-6.5084,-6.5054,-6.4635,-6.4006,-6.3977,-6.3588,-6.3079,-6.3049,-6.2211,-6.0894,0.0,0.0,-5.4549,-5.3703,-5.3218,-5.2536,-5.1313,-5.2098,-5.2753,-5.2479,-5.7997,-6.2401,-6.3686,-6.8284,-7.1513,-7.2129,-7.1835,-7.0,-6.6072,-6.2125,-5.7645,-5.2523,-5.4397,-5.69,-5.9742,-6.1434,-6.2584,-6.3193,-6.3429,-6.3125,-6.2415,-6.3362,-6.3802,-6.3869,-6.5121,-6.5797,-6.6034,-6.6779,-6.7286,-6.759,-6.7557,-6.6,-6.3565,0.0,0.0,0.0,0.0,0.0,0.0,0.0,0.0,0.0,0.0,0.0,0.0,0.0,0.0,0.0,0.0,0.0,0.0,0.0,0.0,0.0,0.0,0.0,0.0,0.0,0.0,0.0,0.0,0.0,0.0,0.0,-6.1583,-6.5102,-6.7883,-7.077,-7.4372,-7.941,-8.0523,-8.1039,-8.1348,-8.0673,-7.9973,-7.9112,-7.8303,-7.7752,-7.7477,-7.5958,-7.5042,-7.5042,-7.4461,-7.4106,-7.4106,-7.4632,-7.4869,-7.4869,-7.439,-7.4151,-7.4121,-7.2954,-7.1787,-7.062,-7.0171,-6.8645,-6.64,-6.5951,-6.5054,-6.3947,-6.3498,-6.3228,-6.3019,-6.254,-6.1523,-6.0027,0.0,-5.3972,-5.3664,-5.2818,-5.2478,-5.1979,-5.0912,-5.1609,-5.2492,-5.3198,-5.8143,-6.2438,-6.4604,-6.8715,-7.1505,-7.1982,-7.1578,-6.9376,-6.4751,-6.0032,-5.6907,-5.5753,-5.732,-5.9235,-6.1501,-6.3125,-6.3835,-6.3531,-6.3531,-6.3125,-6.2415,-6.2854,-6.3362,-6.4005,-6.485,-6.5561,-6.6203,-6.6948,-6.7523,-6.7996,-6.9113,-6.8132,-6.5899,-6.529,-6.3328,-6.0825,-6.0216,-5.9268,-5.8079,-5.6148,0.0,0.0,0.0,0.0,0.0,0.0,0.0,0.0,0.0,0.0,0.0,0.0,0.0,0.0,0.0,0.0,0.0,0.0,0.0,0.0,0.0,0.0,0.0,0.0,-6.4994,-6.8777,-7.2172,-7.3436,-7.5798,-8.089,-8.1014,-8.1281,-8.2851,-8.1277,-8.0032,-7.9551,-7.8338,-7.7502,-7.7143,-7.5497,-7.43,-7.3762,-7.3732,-7.3462,-7.2924,-7.421,-7.4869,-7.4869,-7.421,-7.3881,-7.3851,-7.2505,-7.1068,-6.9662,-6.9602,-6.7956,-6.5353,-6.5533,-6.4814,-6.3588,0.0,0.0,0.0,0.0,-6.1014,-5.9787,0.0,-5.3049,-5.2779,-5.1923,-5.1769,-5.1552,-5.087,-5.1413,-5.3069,-5.6307,-5.9585,-6.3099,-6.699,-6.9669,-7.1174,-7.1174,-7.0816,-6.799,-6.1777,-5.7155,-5.642,-6.0356,-6.0401,-6.1434,-6.37,-6.441,-6.441,-6.3768,-6.3666,-6.326,-6.2516,-6.2415,-6.3091,-6.4377,-6.4444,-6.5256,-6.6609,-6.7354,-6.776,-6.803,-6.9383,-6.918,-6.7895,-6.6677,-6.5324,-6.3971,-6.255,-6.1231,-6.0076,-5.9629,0.0,0.0,0.0,0.0,0.0,0.0,0.0,0.0,0.0,0.0,0.0,0.0,0.0,0.0,0.0,0.0,0.0,0.0,0.0,0.0,0.0,0.0,0.0,0.0,-6.8286,-7.1757,-7.5677,-7.6694,-7.7771,-7.9686,-8.0943,-8.1661,-8.1661,-8.1153,-8.0494,-7.9746,-7.9148,-7.8759,-7.8669,-7.7293,0.0,0.0,0.0,-7.4091,-7.2924,-7.421,-7.4869,-7.4869,-7.4121,-7.3791,-7.3732,-7.2385,-7.041,-6.8136,-6.8734,-6.6819,-6.3378,-6.4545,-6.4246,-6.3079,-6.2989,-6.2929,-6.269,-6.1283,-6.0386,-5.9668,0.0,-5.2154,-5.1885,-5.1048,-5.0933,-5.0985,-5.1154,-5.1604,-5.2961,-5.5951,-5.9411,-6.2658,-6.5448,-6.8495,-7.033,-7.033,-6.7981,-6.4579,-6.0134,-5.7568,-5.7759,-6.112,-6.1732,-6.299,-6.5222,-6.5392,-6.5425,-6.5256,-6.4681,-6.4005,-6.3294,-6.2685,-6.255,-6.2854,-6.3463,-6.4208,-6.5087,-6.5797,-6.6812,-6.7929,-6.8233,-6.8538,-6.891,-6.9214,-6.8774,-6.7895,-6.6948,-6.6846,-6.6652,-6.3375,-6.2405,-6.2411,-6.1806,-5.9638,0.0,0.0,0.0,0.0,0.0,0.0,0.0,0.0,0.0,0.0,0.0,0.0,0.0,0.0,0.0,0.0,0.0,0.0,0.0,-6.8375,-7.1308,-7.433,-7.7741,-7.834,-7.8968,-8.0434,-8.0823,-8.0973,-8.0973,-8.0883,-8.0315,-7.9088,-7.8878,-7.8549,-7.8041,-7.5766,-7.436,-7.4091,-7.3582,-7.3163,-7.2924,-7.421,-7.4869,-7.4869,-7.3672,0.0,-7.3073,-7.1697,-7.026,-6.8794,-6.8944,-6.7358,-6.4665,-6.4934,-6.4246,-6.3019,-6.248,-6.1972,-6.1253,-5.9398,-5.862,-5.8231,-5.1202,-5.1318,-5.1164,-5.0789,-5.0712,-5.0996,-5.1839,-5.1912,-5.2806,-5.5267,-5.8039,-6.0896,-6.3759,-6.5485,-6.6769,-6.7614,-6.4714,-6.2716,-6.236,-6.1076,-6.1508,-6.4286,-6.4643,-6.5039,-6.5703,-6.6068,-6.6068,-6.5696,-6.5324,-6.4783,-6.4038,-6.3666,-6.3497,-6.3531,-6.3903,-6.4478,-6.5155,-6.5527,-6.6542,-6.7895,-6.7895,-6.8605,-6.9688,-7.006,-6.9958,-6.9586,-6.918,-6.9079,-6.8789,-6.6805,-6.633,-6.6497,-6.5727,-6.4381,-6.2319,0.0,0.0,0.0,0.0,0.0,0.0,0.0,0.0,0.0,0.0,0.0,0.0,0.0,0.0,-6.0296,-6.263,0.0,-6.7567,-7.0889,-7.3642,-7.6155,-7.846,-7.9656,-8.0524,-8.1212,-8.1302,-8.1422,-8.1751,-8.1183,-8.0524,-7.9836,-7.9178,-7.8639,-7.831,-7.6754,-7.5407,-7.442,-7.439,-7.3941,-7.2924,-7.421,-7.4869,-7.4869,-7.3552,-7.2924,-7.2864,-7.1188,-6.9901,-6.8974,-6.8286,-6.6879,-6.4934,-6.4306,-6.3647,-6.2989,-6.2002,-6.1403,-6.0954,-5.9608,-5.868,-5.7932,-5.0712,-5.0712,-5.0712,-5.0712,-5.0712,-5.117,-5.2511,-5.2257,-5.2801,-5.5267,-5.7016,-5.9098,-6.2034,-6.2475,-6.2879,-6.3613,-6.1667,-6.1594,-6.442,-6.4283,-6.5212,-6.7678,-6.7646,-6.7177,-6.6439,-6.6972,-6.6948,-6.6339,-6.6203,-6.5831,-6.5222,-6.4952,-6.4816,-6.4816,-6.4647,-6.5019,-6.5696,-6.5696,-6.6474,-6.7692,-6.7827,-6.8741,-6.9992,-7.0128,-7.0297,-7.0398,-7.0398,-6.9857,-6.9147,-6.9451,-6.935,-6.9079,-6.8842,-6.8571,-6.7146,-6.1164,-6.1327,0.0,0.0,0.0,0.0,0.0,0.0,0.0,0.0,-5.7842,-5.9877,-6.1313,-6.278,-6.4545,-6.6909,-6.8525,-7.047,-7.3402,-7.5856,-7.7831,-7.8998,-8.0554,-8.1691,-8.1931,-8.1871,-8.1991,-8.2529,-8.1392,-8.0614,-8.0614,-7.9477,-7.8789,-7.8789,-7.8041,-7.6904,-7.5318,-7.5557,-7.4929,-7.3313,-7.436,-7.4869,-7.4869,-7.3552,-7.2834,-7.2654,-7.0949,-6.9662,-6.8704,-6.7238,-6.5922,-6.4755,-6.3558,-6.3079,-6.2959,-6.1613,-6.1104,-6.1014,-6.0206,-5.9069,-5.7842,0.0,-5.0712,-5.0712,-5.0712,-5.0712,-5.1231,-5.2892,-5.2435,-5.3311,-5.7253,-5.7893,-5.8694,-6.0493,-6.13,-6.0676,-5.7997,-5.9391,-6.086,-6.1924,-6.3783,-6.6283,-6.9457,-6.9309,-6.908,-6.8996,-6.8913,-6.8808,-6.8707,-6.7996,-6.7624,-6.7489,-6.617,-6.5561,-6.5527,-6.4884,-6.5019,-6.5696,-6.5696,-6.617,-6.6981,-6.7658,-6.8436,-6.9282,-6.9925,-7.0601,-7.1176,-7.1176,-7.0297,-6.9316,-7.0635,-7.0195,-6.9417,-7.1312,-7.1007,-6.9242,-6.5559,-6.3048,-6.0211,-5.4593,-5.206,-5.1626,-5.4211,-5.5478,-5.7244,0.0,-6.3617,-6.4784,-6.67,-6.8585,-7.038,-7.1876,-7.3732,-7.5527,-7.7023,-7.8519,-7.9746,-8.0464,-8.0764,-8.1332,-8.2529,-8.214,-8.1811,-8.1871,-8.0704,-7.9926,-7.9926,-7.9208,-7.8789,-7.8789,-7.7622,-7.6844,-7.6604,-7.5557,-7.4869,-7.4659,-7.4809,-7.4869,-7.4869,-7.3552,-7.2595,-7.1966,-7.1158,-6.9812,-6.7986,-6.6071,-6.4814,-6.4066,-6.3378,-6.3079,-6.2959,-6.1613,-6.1104,-6.0954,-5.9697,-5.8351,-5.7184,0.0,-5.0712,-5.0712,-5.0712,-5.1087,-5.1818,-5.301,-5.288,-5.3472,-5.5697,-5.5949,-5.6528,-5.8143,-5.8621,-5.7703,-5.495,-5.6932,-5.9648,-6.2842,-6.5267,-6.8218,-7.1813,-7.1867,-7.1256,-7.01,-7.0037,-6.9696,-6.9113,-6.8774,-6.8605,-6.8571,-6.7963,-6.7421,-6.6948,-6.6643,-6.6677,-6.6981,-6.6981,-6.7658,-6.8774,-6.8639,-6.9316,-7.0331,-6.9755,-6.9755,-6.9857,-6.8504,-6.7354,0.0,-6.6711,-6.6914,-6.7523,-6.9755,-6.9289,-6.748,-6.5205,-6.2656,-5.996,-5.6916,-5.5964,-5.6188,-5.7693,-5.9697,-6.2002,-6.4575,-6.658,-6.8315,-6.9931,-7.1816,-7.3612,-7.4958,-7.6185,-7.7442,-7.8759,-8.0105,-8.1063,-8.1332,-8.1691,-8.1871,-8.1631,-8.0674,-8.0345,-8.1123,-8.0375,-7.9656,-7.9238,-7.8938,-7.8609,-7.825,-7.7711,-7.7053,-7.6305,-7.5766,-7.5288,-7.4869,-7.4869,-7.4689,-7.43,-7.3343,-7.2355,-7.1278,-7.026,-6.8495,-6.6191,-6.4964,-6.4066,-6.3438,-6.3169,-6.2839,-6.2421,-6.1493,-6.0864,-6.0356,-5.9009,-5.7932,-5.7034,0.0,-5.0712,-5.0712,-5.0712,-5.1548,-5.2462,-5.3087,-5.3302,-5.3679,-5.4542,-5.4615,-5.4975,-5.6014,-5.5941,-5.5075,-5.335,-5.5427,-5.8694,-6.3099,-6.5888,-6.9124,-7.3066,-7.3389,-7.2936,-7.1728,-7.1665,-7.1128,-7.0097,-7.0097,-6.9959,-6.9722,-6.9485,-6.9079,-6.8538,-6.8335,-6.8233,-6.8233,-6.8233,-6.8876,-6.9857,-6.9553,-6.9925,-7.0567,-6.9282,-6.8267,-6.7387,-6.5899,-6.4647,-6.3599,-6.3091,-6.3463,-6.4471,-6.6289,-6.6055,-6.4729,-6.2936,-6.0627,-5.8387,-5.738,-5.7955,-5.9164,-6.0361,-6.2839,-6.5443,-6.6999,-6.8974,-7.0889,-7.2385,-7.4001,-7.5497,-7.6634,-7.7502,-7.846,-7.9627,-8.0913,-8.1721,-8.1542,-8.1931,-8.1661,-8.0165,-7.8819,-7.822,-7.8849,-7.9118,-7.9208,-7.9088,-7.8878,-7.8519,-7.7861,-7.7622,-7.7053,-7.5946,-7.5707,-7.5377,-7.4869,-7.4869,-7.454,-7.3881,-7.3223,-7.2206,-7.0829,-6.9183,-6.7208,-6.4934,-6.4306,-6.3647,-6.3079,-6.3079,-6.269,-6.2032,-6.1373,-6.0685,-5.9907,-5.8411,-5.7513,-5.7004,0.0,0.0,-5.0712,-5.0712,-5.2049,-5.3164,-5.3203,-5.3551,-5.4089,-5.4979,-5.5016,-5.483,-5.4501,-5.3775,-5.3277,-5.3203,-5.5427,-5.818,-6.1447,-6.4714,-6.8348,-7.2357,-7.3103,-7.3735,-7.4458,-7.4293,-7.3698,-7.2686,-7.2686,-7.2167,-7.1244,-7.05,-7.0128,-7.0094,-6.9383,-6.9079,-6.9079,-6.9079,-6.9079,-6.918,-6.9891,-6.9755,-6.9079,-6.8233,-6.617,-6.3768,-6.441,-6.326,-6.14,-6.1366,-6.0892,-6.0367,-6.1017,-6.1616,-6.1593,-5.9145,-5.6511,-5.428,-5.4303,-5.5289,-5.7206,-6.1074,-6.3528,-6.6041,-6.9871,-7.1308,-7.2385,-7.439,-7.5377,-7.6066,-7.6724,-7.7891,-7.8998,-7.9716,-8.0913,-8.1572,-8.0913,-8.0853,-8.0135,-7.813,-7.6784,-7.5497,-7.424,-7.6395,-7.84,-7.9686,-7.9178,-7.8519,-7.7861,-7.7203,-7.6574,-7.5916,-7.5258,-7.4899,-7.4869,-7.4869,-7.454,-7.3881,-7.3223,-7.2206,-7.0829,-6.8226,-6.6311,-6.4934,-6.4306,-6.3647,-6.3079,-6.3079,-6.269,-6.2032,-6.1373,-6.0685,-5.9847,-5.7842,-5.7124,-5.7004,0.0,0.0,0.0,0.0,0.0,-5.3203,-5.3203,-5.4023,-5.4764,-5.5069,-5.4597,0.0,0.0,0.0,0.0,0.0,-5.3937,-5.5992,-5.9758,-6.3062,-6.6439,-6.9963,-7.3367,-7.4752,-7.3805,-7.4792,-7.4794,-7.3807,-7.3807,-7.3611,-7.3252,-7.2347,-7.1943,-7.1901,-7.0988,-7.0567,-7.0567,-7.0567,-7.0567,-7.0534,-7.0297,-7.0026,-6.9519,-6.6745,-6.4478,-6.2347,0.0,-5.7171,-5.5987,-5.4938,-5.4921,-5.5713,-5.7442,-5.7084,-5.5629,-5.3082,-5.3771,-5.5194,-5.4387,-5.6765,-6.0206,-6.3288,-6.5862,-6.8345,-7.0979,-7.2415,-7.3283,-7.3522,-7.3402,-7.3313,-7.3522,-7.43,-7.5407,-7.6963,-7.8669,-8.0016,-8.0704,-8.0016,-7.9058,-7.7951,-7.6275,-7.5228,-7.5228,-7.5617,-7.6036,-7.6514,-7.7143,-7.7203,-7.6574,-7.6335,-7.5916,-7.5258,-7.4988,-7.4869,-7.4869,-7.445,-7.3881,-7.3223,-7.1248,-6.9842,-6.8884,-6.667,-6.5203,-6.4306,-6.3647,-6.3258,-6.3049,-6.26,-6.2032,-6.1373,-6.0685,-5.9757,-5.865,-5.7513,-5.6825,-5.6376,0.0,0.0,0.0,0.0,0.0,0.0,0.0,0.0,0.0,0.0,0.0,0.0,0.0,0.0,0.0,0.0,0.0,-5.4634,-5.812,-6.0603,-6.3356,-6.6586,-7.0,-7.1567,-7.0961,-7.2522,-7.2975,-7.2264,-7.3119,-7.3365,-7.2996,-7.291,-7.2734,-7.2485,-7.2382,-7.2048,-7.1411,-7.1454,-7.127,-7.0737,-6.8639,-6.7658,-6.6948,-6.2651,-5.9945,0.0,-5.4296,-5.2334,-5.1454,-5.098,-5.1665,-5.2884,-5.3754,-5.2788,-5.1324,-5.1567,-5.3431,-5.5643,-5.6774,-5.9538,-6.2738,-6.5113,-6.7388,-6.9453,-7.1158,-7.2385,-7.2984,-7.2325,-7.1667,-7.1128,-7.0889,-7.1009,-7.1966,-7.445,-7.6066,-7.7682,-7.9477,-7.8789,-7.7771,-7.6874,-7.5228,-7.424,-7.445,-7.43,-7.448,-7.5198,-7.5796,-7.5946,-7.5557,-7.5318,-7.5078,-7.4899,-7.4869,-7.4869,-7.4869,-7.424,-7.3313,-7.2176,-7.0021,-6.8405,-6.7208,-6.5712,-6.4276,-6.2959,-6.3049,-6.266,-6.2002,-6.2061,-6.1553,-6.0715,-6.0266,-5.9428,-5.8351,-5.7423,-5.6825,-5.6376,0.0,0.0,0.0,0.0,0.0,0.0,0.0,0.0,0.0,0.0,0.0,0.0,0.0,0.0,0.0,0.0,0.0,0.0,-5.6492,-5.7483,-5.9355,-6.234,-6.3539,-6.4787,-6.6292,-6.7907,-6.8617,-6.8435,-7.0702,-7.1354,-7.0451,-7.1903,-7.2184,-7.1474,-7.2959,-7.2633,-7.1006,-7.1088,-7.058,-6.9282,-6.4952,-6.2821,-6.1637,-5.6461,-5.3145,-5.115,-5.0338,-4.912,-4.8108,-4.956,-5.105,-5.2101,-5.0585,-4.9299,-4.9331,-5.4463,-5.5383,-5.5825,-6.0718,-6.3096,-6.469,-6.6523,-6.7956,-6.9273,-7.053,-7.1278,-7.1517,-7.0799,-7.0081,-6.9363,-6.8615,-6.8076,-6.8794,-7.2026,-7.3283,-7.4749,-7.7352,-7.7203,-7.6365,-7.5078,-7.3851,-7.2834,-7.2146,-7.2684,-7.3821,-7.5677,-7.5228,-7.4869,-7.4869,-7.43,-7.424,-7.4869,-7.4869,-7.4869,-7.4869,-7.418,-7.2834,-7.0829,-6.9572,-6.7926,-6.5981,-6.5293,-6.3588,-6.1283,-6.254,-6.2002,-6.0326,-6.1553,-6.1283,-6.0116,-6.0057,-5.9638,-5.889,-5.7573,-5.7064,-5.6885,0.0,0.0,0.0,0.0,0.0,0.0,0.0,0.0,0.0,0.0,0.0,0.0,0.0,0.0,0.0,0.0,0.0,0.0,-5.4084,-5.6565,-5.8107,-5.8327,-6.2034,-6.398,-6.3759,-6.5375,-6.6186,-6.6153,-6.6774,-6.6919,-6.6656,-6.6264,-6.5704,-6.5037,-6.4708,-6.3982,-6.3047,-6.3047,-6.2892,-6.2482,-6.0216,-5.9539,-5.937,-5.4668,-5.2536,-5.1792,-4.9932,-4.8714,-4.8041,-4.8984,-5.086,-5.2997,-5.4026,-5.4879,-5.5729,-5.6608,-5.881,-6.0788,-6.0058,-6.303,-6.6329,-6.6252,-6.7238,-6.8465,-6.9303,-6.9602,-6.9273,-6.7597,-6.5951,-6.4156,-6.2032,-6.3109,-6.5084,-6.7388,-7.0799,-7.3911,-7.6096,-7.6634,-7.6544,-7.5736,-7.5766,-7.5587,-7.4958,-7.5048,-7.4929,-7.445,-7.4689,-7.4869,-7.4869,-7.4719,-7.4689,-7.4869,-7.4869,-7.4869,-7.4869,-7.3732,-7.2176,-7.0201,-6.8884,-6.7448,-6.5981,-6.4784,-6.3647,-6.26,-6.2929,-6.278,-6.2271,-6.1642,-6.1164,-6.0745,-5.9757,-5.8949,-5.8261,-5.7423,-5.6795,-5.6286,0.0,0.0,0.0,0.0,0.0,0.0,0.0,0.0,0.0,0.0,0.0,0.0,0.0,0.0,0.0,0.0,0.0,0.0,0.0,-5.4913,-5.5684,-5.5222,-5.785,-5.9245,-5.9134,-6.075,-6.1924,-6.2622,-6.3319,-6.387,-6.4211,-6.3984,-6.3321,-6.229,-6.2443,-6.1669,-6.0275,-6.0277,-6.0021,0.0,0.0,-5.5683,-5.5615,-5.1454,-4.9898,-4.9729,-4.8477,-4.8815,-5.0067,-5.1488,-5.3177,-5.5255,-5.8639,-5.9544,-5.975,-6.184,-6.3218,-6.4135,-6.4007,-6.6396,-6.8608,-6.7249,-6.7726,-6.8243,-6.7092,-6.7029,-6.643,-6.3558,-6.2331,-6.0954,-5.8321,-5.9967,-6.251,-6.4755,-6.8794,-7.2505,-7.5078,-7.5736,-7.6066,-7.6275,-7.6125,-7.5946,-7.5916,-7.5916,-7.5467,-7.442,-7.4121,-7.4151,-7.442,-7.418,-7.427,-7.4869,-7.4869,-7.4599,-7.4031,-7.2684,-7.1038,-6.9093,-6.7747,-6.64,-6.5084,-6.4066,-6.3079,-6.2241,-6.2839,-6.257,-6.1732,-6.1283,-6.0775,-6.0116,-5.9069,-5.8261,-5.7603,-5.6944,-5.6466,-5.6128,0.0,0.0,0.0,0.0,0.0,0.0,0.0,0.0,0.0,0.0,-5.4441,-5.4484,0.0,0.0,0.0,0.0,0.0,0.0,0.0,0.0,-5.3203,-5.3203,-5.3298,-5.3665,-5.4216,-5.5721,-5.7116,-5.8377,-5.9905,-6.1006,-6.1704,-6.2475,-6.2062,-6.072,-6.2023,-6.1331,-5.9269,-5.9133,-5.8634,-5.745,-5.3348,-5.1758,-5.1488,0.0,-4.6853,-4.6955,-4.6955,-4.9052,-5.23,-5.531,-5.7002,-5.8693,-6.3632,-6.3877,-6.323,-6.7766,-6.7736,-6.6742,-6.904,-7.0404,-7.0605,-6.8364,-6.8484,-6.8254,-6.4686,-6.4362,-6.364,-5.9662,-5.9159,-5.868,-5.6226,-5.7992,-6.0715,-6.3438,-6.7238,-7.0919,-7.4031,-7.4869,-7.5497,-7.6455,-7.5707,-7.5407,-7.6096,-7.6006,-7.5647,-7.5048,-7.3971,-7.3522,-7.4001,-7.3492,-7.3702,-7.4839,-7.4779,-7.4121,-7.2804,-7.1547,-6.9871,-6.7837,-6.661,-6.5293,-6.3977,-6.3348,-6.245,-6.1433,-6.26,-6.2032,-6.0386,-6.0894,-6.0326,-5.9039,-5.8381,-5.7693,-5.7034,-5.6406,-5.6218,-5.6128,0.0,0.0,0.0,0.0,0.0,0.0,0.0,0.0,0.0,0.0,-5.4047,-5.4484,0.0,0.0,0.0,0.0,0.0,0.0,0.0,0.0,0.0,-5.3203,-5.3849,-5.3959,-5.3445,-5.4326,-5.462,-5.4231,-5.5207,-5.5721,-5.5868,-5.6014,-5.561,-5.476,-5.4374,-5.3662,-5.2674,-5.2091,-5.1711,-5.1369,-4.9433,-4.9052,-4.9357,-4.7496,0.0,0.0,-4.7733,-4.8511,-5.0574,-5.7137,-6.1095,-6.3835,-6.7252,-6.9296,-7.0231,-6.955,-7.0176,-7.0528,-6.7654,-6.8616,-6.9775,-6.7105,-6.7802,-6.8115,-6.4132,-6.332,-6.2304,-5.8286,-5.6705,-5.5568,-5.3982,-5.6316,-5.9518,-6.272,-6.658,-6.9931,-7.2086,-7.4779,-7.6185,-7.5318,-7.5976,-7.6754,-7.7412,-7.6514,-7.5856,-7.5736,-7.5527,-7.5198,-7.4719,-7.4599,-7.4629,-7.4869,-7.436,-7.3432,-7.2086,-7.1278,-6.9662,-6.7148,-6.637,-6.5293,-6.3977,-6.3348,-6.2959,-6.275,-6.2989,-6.257,-6.1702,-6.1283,-6.0326,-5.9039,-5.8381,-5.7693,-5.7034,-5.6406,-5.6218,-5.6128,0.0,0.0,0.0,0.0,0.0,0.0,0.0,-5.2395,-5.3356,-5.3818,-5.4829,-5.5223,-5.4591,-5.372,-5.3203,0.0,0.0,0.0,0.0,0.0,0.0,-5.3812,-5.4179,-5.4216,-5.3849,-5.462,-5.5023,-5.5075,0.0,-5.5244,-5.5647,-5.5207,-5.4638,-5.3941,-5.3111,-5.235,-5.1688,-5.0892,-5.0335,-4.9941,-4.9256,-4.901,-4.8917,-4.8206,0.0,0.0,-4.7906,-4.8883,-5.0811,-5.5209,-5.9438,-6.3802,-6.9147,-7.1278,-7.1728,-7.1144,-7.1644,-7.1963,-6.9993,-7.0951,-7.1899,-6.9433,-6.9595,-6.8808,-6.2955,-6.1616,-6.0146,-5.506,-5.4102,-5.3743,-5.2396,-5.488,-5.8082,-6.1044,-6.4575,-6.8226,-7.1906,-7.3791,-7.5198,-7.6275,-7.6664,-7.6694,-7.6305,-7.5736,-7.5078,-7.439,-7.436,-7.451,-7.4869,-7.4869,-7.4719,-7.436,-7.3373,-7.2385,-7.1398,-7.0051,-6.8405,-6.646,-6.5802,-6.4814,-6.3498,-6.3199,-6.3079,-6.3079,-6.3079,-6.2301,-6.1044,-6.1104,-5.9907,-5.8052,-5.8112,-5.7513,-5.6585,-5.6338,-5.6008,-5.5628,0.0,0.0,0.0,0.0,0.0,0.0,-5.2038,-5.3049,-5.4049,-5.4934,-5.6128,-5.6354,-5.4925,-5.4093,-5.3497,0.0,0.0,0.0,0.0,0.0,0.0,0.0,-5.4803,-5.484,-5.4656,0.0,0.0,-5.6528,-5.6088,0.0,0.0,0.0,0.0,0.0,-5.4194,-5.3399,-5.2723,-5.1928,-5.1044,0.0,0.0,-4.9576,-4.9018,0.0,0.0,0.0,0.0,-4.9052,-5.0608,-5.2942,-5.6258,-6.0622,-6.776,-7.0398,-7.0906,-7.1312,-7.1887,-7.236,-7.2225,-7.324,-7.3791,-7.1456,-7.1259,-6.9681,-6.1959,-6.0353,-5.8736,-5.2657,-5.2127,-5.2486,-5.1588,-5.3683,-5.6496,-5.9398,-6.2181,-6.5862,-7.1308,-7.2445,-7.3881,-7.7023,-7.7053,-7.6485,-7.5587,-7.5258,-7.4659,-7.3642,-7.3432,-7.3732,-7.4629,-7.4659,-7.436,-7.3702,-7.2385,-7.1368,-7.0709,-6.8884,-6.7238,-6.5802,-6.5263,-6.4336,-6.3079,-6.3079,-6.3079,-6.3079,-6.3079,-6.1852,-5.9937,-6.0775,-5.9458,-5.6974,-5.7812,-5.7393,-5.6346,-5.6278,-5.5837,-5.5388,0.0,0.0,0.0,0.0,0.0,0.0,-5.2972,-5.4434,-5.578,-5.6676,-5.7864,-5.7891,-5.581,-5.5207,-5.4459,0.0,0.0,0.0,0.0,0.0,0.0,0.0,0.0,0.0,0.0,0.0,0.0,-5.5684,-5.6381,0.0,0.0,0.0,0.0,0.0,0.0,-5.495,-5.4166,-5.3422,0.0,0.0,0.0,0.0,0.0,0.0,0.0,0.0,0.0,-4.8173,-4.7936,-5.2841,-5.389,-5.4194,-6.0385,-6.5527,-6.918,-6.8504,-7.0263,-7.2259,-7.1582,-7.2496,-7.2928,-7.0115,-7.087,-7.017,-6.2031,-6.0756,-5.9456,-5.333,-5.1738,-5.1558,-5.2007,-5.2845,-5.47,-5.856,-5.9967,-6.26,-6.8525,-7.0889,-7.3043,-7.5766,-7.6514,-7.7023,-7.7502,-7.6485,-7.5766,-7.5647,-7.5048,-7.448,-7.4001,-7.3971,-7.3672,-7.3013,-7.1697,-7.0679,-7.0021,-6.8645,-6.6999,-6.5114,-6.5054,-6.4336,-6.3079,-6.3079,-6.3079,-6.3079,-6.3079,-6.1583,-5.9308,-6.0595,-5.9189,-5.6376,-5.7633,-5.7663,-5.6944,-5.6376,-5.6188,-5.5987,0.0,0.0,0.0,0.0,0.0,0.0,-5.3703,-5.4087,-5.4857,-5.6753,-5.833,-5.8821,-5.7733,-5.7491,-5.6281,-5.344,-5.3665,0.0,0.0,0.0,0.0,0.0,0.0,0.0,0.0,0.0,-5.7593,-5.7776,-5.8084,0.0,0.0,0.0,0.0,0.0,0.0,-5.6124,-5.5772,-5.4487,0.0,0.0,0.0,0.0,0.0,0.0,0.0,0.0,0.0,0.0,-4.8443,-5.0541,-5.1725,-5.2638,-5.46,-5.8524,-6.2888,-6.573,-6.7726,-6.9383,-7.0906,-7.2699,-7.3789,-7.2163,-7.2094,-7.0507,-6.3195,-6.1052,-5.8769,-5.2348,-5.1109,-5.1169,-5.1003,-5.1558,-5.3054,-5.6226,-5.6974,-5.9368,-6.5712,-6.7298,-6.9632,-7.4689,-7.5138,-7.5318,-7.5976,-7.5228,-7.454,-7.4121,-7.3462,-7.3133,-7.3283,-7.3672,-7.3223,-7.1757,-7.0829,-6.9632,-6.8166,-6.7238,-6.5981,-6.4425,-6.4425,-6.3947,-6.3079,-6.3079,-6.3079,-6.3079,-6.3079,-6.1104,-5.8052,-6.0236,-5.8919,-5.5777,-5.7902,-5.8291,-5.7633,-5.6974,-5.6496,-5.6128,0.0,0.0,0.0,0.0,0.0,-5.1818,-5.4164,-5.4164,-5.478,-5.7088,-5.8627,-5.9355,-5.8953,-5.8682,-5.7412,-5.4744,-5.4543,0.0,0.0,0.0,0.0,0.0,0.0,0.0,0.0,-5.796,-5.8621,-5.9184,-5.9441,-5.9404,0.0,0.0,-5.8767,-5.796,0.0,0.0,0.0,0.0,0.0,-5.3147,0.0,0.0,0.0,0.0,0.0,0.0,0.0,0.0,0.0,0.0,0.0,-5.1082,-5.142,-5.3416,-5.6664,-6.211,-6.5189,-6.732,-6.9654,-7.2428,-7.439,-7.3409,-7.2165,-6.9708,-6.3757,-6.0486,-5.7109,-5.1651,-5.0601,-5.0631,-5.0495,-5.0704,-5.1798,-5.4461,-5.5239,-5.7513,-6.3348,-6.4665,-6.7059,-7.2505,-7.2894,-7.3163,-7.418,-7.424,-7.4001,-7.3522,-7.2864,-7.2505,-7.2595,-7.2864,-7.2265,-7.0679,-6.9632,-6.8405,-6.6999,-6.6131,-6.5144,-6.4006,-6.4006,-6.3468,-6.251,-6.2899,-6.2869,-6.251,-6.2899,-6.1014,-5.7872,-6.0176,-5.9009,-5.5987,-5.8231,-5.871,-5.8052,-5.7363,-5.6705,-5.6128,0.0,0.0,0.0,0.0,0.0,-5.2462,-5.4241,-5.5164,-5.628,-5.805,-5.9011,-5.9355,-5.8953,-5.8148,-5.7597,-5.7565,-5.5975,0.0,0.0,0.0,0.0,-5.796,-5.7997,-5.7997,-5.7997,-5.8804,-5.9184,-5.9184,-6.0015,-5.9979,-5.9184,-5.9184,-5.8767,-5.7997,0.0,0.0,0.0,0.0,-5.4711,-5.3098,0.0,0.0,-4.9919,0.0,0.0,0.0,0.0,0.0,0.0,0.0,0.0,0.0,0.0,-5.1319,-5.1352,-5.734,-6.2753,-6.6981,-6.7726,-7.121,-7.4255,-7.2766,-7.0482,-6.7452,-6.3344,-5.8727,-5.4559,-5.1797,-5.0182,-4.9673,-5.096,-5.0644,-5.1063,-5.3773,-5.5299,-5.7543,-6.1553,-6.3797,-6.6041,-6.8734,-6.9632,-7.0799,-7.2744,-7.4091,-7.4869,-7.4869,-7.424,-7.3283,-7.1966,-7.1278,-7.0649,-7.0021,-6.8046,-6.6999,-6.6999,-6.5682,-6.4695,-6.4006,-6.4006,-6.2989,-6.1194,-6.248,-6.2361,-6.1194,-6.251,-6.1553,-5.9189,-6.0565,-5.9518,-5.7214,-5.856,-5.871,-5.8052,-5.7363,-5.6705,-5.6128,0.0,0.0,0.0,0.0,0.0,0.0,-5.4164,-5.4203,-5.4818,-5.7088,-5.8165,-5.8862,-5.9266,-5.8284,-5.7703,-5.7968,-5.6669,0.0,0.0,0.0,-5.774,-5.7997,-5.7997,-5.7997,-5.7997,-5.8253,-5.8914,-6.0015,-6.0272,-6.0272,-6.0015,-6.0015,-5.9318,-5.7997,-5.7997,-5.785,0.0,-5.6748,-5.5199,-5.3183,0.0,-5.0962,-4.9919,0.0,0.0,0.0,0.0,0.0,0.0,0.0,0.0,0.0,0.0,0.0,0.0,-5.5277,-5.7881,-6.0486,-6.2753,-6.5155,-6.7049,-6.7049,-6.6053,-6.427,-6.1182,-5.8334,-5.5177,-5.1079,-5.0426,-5.0451,-4.9972,-5.0451,-5.1768,-5.4461,-5.5239,-5.6885,-6.0864,-6.3109,-6.5652,-6.9243,-7.2265,-7.4091,-7.424,-7.3821,-7.3732,-7.418,-7.2744,-7.1667,-7.1248,-7.0201,-6.9093,-6.7956,-6.7328,-6.634,-6.4964,-6.4545,-6.4006,-6.3378,-6.3378,-6.257,-6.1164,-6.248,-6.2361,-6.1164,-6.2032,-6.1164,-5.9189,-6.0057,-5.9099,-5.7214,-5.859,-5.871,-5.8052,-5.7363,-5.6705,-5.6068,0.0,0.0,0.0,0.0,0.0,0.0,-5.3703,-5.3549,-5.401,-5.6214,-5.6973,-5.7697,-5.8704,-5.7506,-5.7118,-5.8309,-5.7061,0.0,0.0,-5.7556,-5.7997,-5.7997,-5.7997,-5.7997,-5.7997,-5.8584,-5.9391,-6.0419,-6.1337,-6.1337,-6.0419,-6.0713,-5.9832,-5.7997,-5.7997,-5.7997,0.0,-5.7152,-5.5454,-5.3243,-5.2569,-5.1392,-4.9919,0.0,0.0,0.0,0.0,0.0,0.0,0.0,0.0,0.0,0.0,0.0,0.0,0.0,-5.4837,-5.6292,-5.9539,-6.1941,-6.3632,-6.4072,-6.2879,-6.1193,-5.958,-5.6556,-5.3386,-5.0734,-5.036,-5.0301,-4.9733,-5.0301,-5.1558,-5.3713,-5.47,-5.6226,-5.9189,-6.1732,-6.4575,-6.8076,-7.1547,-7.3702,-7.3732,-7.3462,-7.3462,-7.3851,-7.2026,-7.0679,-7.0201,-6.8944,-6.7508,-6.5922,-6.6101,-6.5533,-6.4006,-6.3767,-6.3468,-6.3079,-6.3079,-6.2391,-6.1164,-6.248,-6.2211,-6.0775,-6.1702,-6.1104,0.0,-5.9907,-5.9069,-5.7573,-5.8411,-5.8171,-5.7334,-5.6915,-5.6196,-5.5329,0.0,0.0,0.0,0.0,0.0,0.0,0.0,-5.3164,-5.3769,-5.5374,-5.5632,-5.6095,-5.7257,-5.5968,-5.5989,-5.8405,-5.7109,0.0,-5.6844,-5.7593,-5.7997,-5.7997,-5.7997,-5.7997,-5.7997,-5.9465,-6.0309,-6.0419,-6.2695,-6.2658,-6.0419,-6.1153,-6.0272,-5.7997,-5.7997,-5.7997,-5.796,-5.7152,-5.5491,-5.3351,-5.2604,-5.1392,0.0,0.0,0.0,0.0,0.0,0.0,0.0,0.0,0.0,0.0,0.0,0.0,0.0,0.0,0.0,0.0,0.0,-6.0622,-6.2753,-6.2854,-6.0491,-5.8144,-5.821,-5.3985,0.0,-5.0807,-5.0096,-4.9569,-5.0274,-5.0377,-5.0764,-5.2127,-5.3952,-5.5628,-5.6915,-6.0176,-6.3348,-6.5772,-6.8585,-7.0679,-7.1607,-7.3013,-7.3851,-7.3762,-7.1966,-7.032,-6.9004,-6.7687,-6.6071,-6.4066,-6.4605,-6.4635,-6.3947,-6.3378,-6.3019,-6.2929,-6.3019,-6.2331,-6.1014,-6.2421,-6.1972,-6.0146,-6.1463,-6.1283,-6.0086,-5.9997,-5.9219,-5.8112,-5.8082,-5.7274,-5.6218,-5.6218,-5.5329,-5.4192,0.0,0.0,0.0,0.0,0.0,0.0,0.0,0.0,0.0,0.0,-5.4842,-5.5246,-5.5216,-5.4564,-5.4854,0.0,0.0,-5.6316,-5.7629,-5.7886,-5.7997,-5.7997,-5.7997,-5.7997,-5.7997,-5.8364,-5.9171,-6.0419,-6.097,-6.097,-6.0419,-6.0603,-5.9722,-5.7997,-5.7997,-5.7997,-5.796,-5.7152,-5.5819,-5.4181,-5.2818,-5.1392,0.0,0.0,0.0,0.0,-4.8376,-4.8646,0.0,0.0,0.0,0.0,0.0,0.0,0.0,0.0,-5.3078,-5.2909,-5.4397,0.0,-5.5209,-5.6393,-5.5675,-5.4824,0.0,-5.3613,-5.2005,-5.2404,-5.1141,-5.0456,-5.1982,-5.1955,-5.2187,-5.3533,-5.4551,-5.5628,-5.6915,-6.2151,-6.6071,-6.67,-7.0889,-7.2654,-6.9931,-7.2235,-7.3462,-7.2445,-7.1457,-7.0111,-6.8315,-6.7448,-6.6071,-6.4066,-6.4156,-6.3947,-6.3288,-6.3139,-6.257,-6.1583,-6.26,-6.1852,-5.9668,-6.2002,-6.1972,-6.0146,-6.0984,-6.0864,-5.9997,-5.9009,-5.8411,-5.8082,-5.7543,-5.6855,-5.6218,-5.6218,-5.5329,-5.4132,0.0,0.0,0.0,0.0,0.0,0.0,0.0,0.0,0.0,0.0,-5.4044,-5.4216,-5.4183,-5.3941,-5.4204,0.0,0.0,-5.6124,-5.7373,-5.7776,-5.7997,-5.7997,-5.7997,-5.7997,-5.7997,-5.8364,-5.9171,-6.0419,-6.1153,-6.1117,-6.0419,-6.0786,-5.9905,-5.7997,-5.7997,-5.7997,-5.7937,-5.6802,-5.5486,-5.3969,-5.2438,0.0,0.0,0.0,0.0,0.0,-4.7665,-4.7868,0.0,-4.8951,-4.9526,-5.0236,0.0,0.0,0.0,0.0,-5.2131,-5.1961,-5.2739,-5.3145,-5.3653,-5.4803,-5.4296,-5.3585,-5.3878,-5.2445,-5.1199,-5.1739,-5.0746,-5.0216,-5.1734,-5.1607,-5.1738,-5.3054,-5.3832,-5.5359,-5.8501,-6.2301,-6.5293,-6.6819,-6.9512,-7.0889,-6.9961,-7.1757,-7.2535,-7.1517,-7.026,-6.8824,-6.7148,-6.6131,-6.4994,-6.3617,-6.3588,-6.3408,-6.3079,-6.3079,-6.2421,-6.1134,-6.245,-6.2002,-6.0086,-6.2151,-6.2151,-6.0535,-5.9997,-5.9697,-5.9488,-5.7573,-5.7124,-5.7573,-5.6944,-5.6286,-5.5718,-5.5718,-5.488,-5.3683,0.0,0.0,0.0,0.0,0.0,0.0,0.0,0.0,0.0,0.0,0.0,0.0,0.0,0.0,0.0,0.0,0.0,-5.5941,-5.6748,-5.7556,-5.7997,-5.7997,-5.7997,-5.7997,-5.7997,-5.8694,-5.9465,-6.0419,-6.1887,-6.1998,-6.0786,-6.1447,-6.0493,-5.818,-5.8033,-5.7923,-5.7717,-5.6237,-5.4752,-5.3327,-5.1745,0.0,0.0,0.0,0.0,0.0,0.0,0.0,0.0,-4.7838,-4.8748,-4.9796,-5.0033,0.0,0.0,0.0,0.0,0.0,-5.1894,-5.3348,-5.4735,-5.5378,-5.4329,-5.318,-5.3219,-5.1108,-4.9475,-5.0633,-4.9967,-4.9597,-5.1055,-5.1151,-5.1272,-5.2336,-5.3384,-5.5807,-6.0715,-6.2331,-6.3917,-6.64,-6.7418,-6.8525,-7.0141,-7.1158,-7.1427,-7.0679,-6.8884,-6.7238,-6.5922,-6.4665,-6.3707,-6.3109,-6.3079,-6.3019,-6.2929,-6.2929,-6.2331,-6.1134,-6.2241,-6.2181,-6.1164,-6.2271,-6.2181,-6.1014,-5.9219,-5.862,-5.877,-5.6436,-5.6047,-5.6885,-5.6256,-5.5688,-5.5179,-5.5089,-5.4251,-5.3144,0.0,0.0,0.0,0.0,0.0,0.0,0.0,0.0,0.0,0.0,0.0,0.0,0.0,0.0,0.0,0.0,-5.5133,-5.5941,-5.6748,-5.7556,-5.7997,-5.7997,-5.7997,-5.7997,-5.7997,-5.8107,-5.8914,-6.0419,-6.1337,-6.1998,-6.2438,-6.2585,-6.1337,-5.8964,-5.829,-5.7629,-5.6873,-5.5302,-5.4113,-5.3133,-5.1053,0.0,0.0,0.0,0.0,0.0,0.0,0.0,0.0,-4.7669,-4.8041,-4.8477,-4.9695,0.0,0.0,0.0,0.0,0.0,-5.1014,-5.2942,-5.4634,-5.4735,-5.3145,-5.1895,-5.3146,-5.0859,-4.925,-5.1974,-5.0329,-4.9477,-5.2802,-5.3962,-5.4311,-5.3952,-5.6316,-5.9279,-6.2331,-6.5263,-6.664,-6.5473,-6.9273,-7.0829,-6.7867,-6.9692,-7.056,-6.9393,-6.7956,-6.658,-6.5263,-6.4425,-6.3707,-6.3109,-6.3079,-6.281,-6.2241,-6.2241,-6.1882,-6.1104,-6.1313,-6.1313,-6.1134,-6.1313,-6.1313,-6.1074,-6.0176,-5.9219,-5.8201,-5.7214,-5.6615,-5.6256,-5.5598,-5.5269,-5.5119,-5.4551,-5.3862,-5.3025,0.0,0.0,0.0,0.0,0.0,0.0,0.0,0.0,0.0,0.0,0.0,0.0,0.0,0.0,0.0,0.0,-5.4473,-5.528,-5.6088,-5.6895,-5.7556,-5.796,-5.7997,-5.7997,-5.7997,-5.8437,-5.9428,-6.1043,-6.1851,-6.2695,-6.3466,-6.2144,-6.0236,-5.7863,-5.7519,-5.6895,-5.6006,-5.4085,-5.3084,-5.2529,0.0,0.0,0.0,0.0,0.0,0.0,0.0,0.0,0.0,0.0,-4.6989,-4.7428,-4.8105,0.0,0.0,0.0,0.0,0.0,-4.9627,-5.0777,-5.2063,-5.4093,-5.4126,-5.3888,-5.4912,-5.2146,-5.0294,-5.324,-5.0622,-4.9024,-5.3141,-5.3736,-5.4401,-5.6974,-6.0446,-6.3139,-6.4006,-6.5443,-6.6311,-6.6101,-6.7926,-6.8734,-6.7627,-6.8615,-6.8914,-6.7986,-6.667,-6.5503,-6.4515,-6.3857,-6.3378,-6.3079,-6.272,-6.2391,-6.2091,-6.1373,-6.0685,-6.0027,-6.0775,-6.0745,-6.0057,-6.0775,-6.0894,-6.0475,-5.9069,-5.8321,-5.7992,-5.6256,-5.5777,-5.6107,-5.5448,-5.5179,-5.5059,-5.4042,-5.3234,-5.2516,0.0,0.0,0.0,0.0,0.0,0.0,0.0,0.0,0.0,0.0,0.0,0.0,0.0,0.0,0.0,0.0,-5.3959,-5.4656,-5.528,-5.6088,-5.6895,-5.7666,-5.7703,-5.7886,-5.8253,-5.9098,-6.0382,-6.2181,-6.3172,-6.409,-6.4897,-6.2401,-6.0089,-5.7886,-5.7152,-5.6277,-5.5218,-5.3153,-5.2083,-5.1538,0.0,0.0,0.0,0.0,0.0,0.0,0.0,0.0,0.0,0.0,0.0,0.0,0.0,0.0,0.0,-4.6921,-4.6786,-4.7056,-4.8173,-4.8984,-5.0168,-5.2875,-5.3957,-5.4866,-5.6696,-5.3432,-5.1126,-5.4822,-5.1816,-4.9614,-5.3515,-5.3711,-5.497,-5.9967,-6.3737,-6.6041,-6.6161,-6.6311,-6.6789,-6.7777,-6.7328,-6.7328,-6.8345,-6.8016,-6.7478,-6.6819,-6.5533,-6.4485,-6.3827,-6.3318,-6.3019,-6.2839,-6.2361,-6.1942,-6.1613,-6.0595,-5.9907,-5.9578,-6.0296,-6.0266,-5.9608,-6.0326,-6.0446,-5.9997,-5.8141,-5.7543,-5.7723,-5.5568,-5.5179,-5.5867,-5.5209,-5.476,-5.4371,-5.3324,-5.2546,-5.1887,0.0,0.0,0.0,0.0,0.0,0.0,0.0,0.0,0.0,0.0,0.0,0.0,0.0,0.0,-5.3203,-5.3203,-5.3959,-5.4436,-5.4473,-5.5244,-5.6051,-5.6859,-5.6895,-5.7593,-5.9074,-5.9905,-6.1484,-6.3906,-6.5485,-6.6659,-6.7393,-6.4971,-6.2915,-6.1117,-5.8143,-5.6012,-5.4556,-5.2846,-5.1345,-5.0034,-4.8432,0.0,0.0,0.0,0.0,0.0,0.0,0.0,0.0,0.0,0.0,0.0,0.0,0.0,-4.5974,-4.6616,-4.6786,-4.6819,-4.6921,-4.8951,-5.0947,-5.0541,-5.0439,-5.1961,-5.7572,-5.3818,-5.0944,-5.7049,-5.4869,-5.2534,-5.468,-5.5978,-5.8082,-6.2181,-6.4635,-6.6849,-6.9273,-7.0111,-7.053,-7.062,-7.0081,-6.9722,-6.9842,-6.8166,-6.6789,-6.6131,-6.4844,-6.3797,-6.3169,-6.3109,-6.278,-6.2181,-6.2121,-6.1493,-6.0236,-6.0146,-6.0386,-6.0954,-5.9787,-5.9847,-6.0924,-5.9787,-5.9548,-5.9997,-5.865,-5.7723,-5.7094,-5.6346,-5.5718,-5.5209,-5.4551,-5.3503,-5.2396,-5.2306,-5.1858,-5.1289,0.0,0.0,0.0,0.0,0.0,0.0,0.0,0.0,0.0,0.0,0.0,-5.2858,-5.3167,0.0,-5.3203,-5.3203,-5.3482,-5.3885,-5.4363,-5.4693,-5.5207,-5.6014,-5.6051,-5.6822,-5.8437,-6.0713,-6.3099,-6.5595,-6.721,-6.6843,-6.464,-6.3209,-6.086,-5.7776,-5.5614,-5.4049,-5.2967,-5.197,-5.1224,-5.0641,-4.9148,-4.8109,0.0,0.0,0.0,0.0,0.0,0.0,0.0,0.0,-4.5331,-4.5669,-4.5466,-4.5568,-4.5669,-4.5466,-4.5737,-4.6109,-4.6109,-4.7259,-4.8849,-5.0405,-4.9763,-5.0676,-5.8017,-5.654,-5.5194,-6.0772,-5.805,-5.4796,-5.514,-5.7932,-6.0835,-6.275,-6.5772,-6.8226,-6.9243,-6.9931,-7.0171,-6.9782,-6.8764,-6.8136,-6.8136,-6.6311,-6.5024,-6.4784,-6.3917,-6.3318,-6.3079,-6.269,-6.2361,-6.2121,-6.1283,-6.0416,-5.9488,-5.9069,-5.877,-5.862,-5.8949,-5.9159,-5.9249,-5.874,-5.862,-5.88,-5.7872,-5.7334,-5.7034,-5.6436,-5.5538,-5.4521,-5.3832,-5.2995,-5.2187,-5.2187,-5.1798,-5.1229,0.0,0.0,0.0,0.0,0.0,0.0,0.0,0.0,-5.1814,0.0,0.0,0.0,0.0,-5.3203,-5.3203,0.0,-5.3203,-5.3424,-5.3995,-5.4032,-5.4363,-5.517,-5.5207,-5.6088,-5.796,-6.1153,-6.3906,-6.6109,-6.7981,-6.721,-6.3943,-6.2328,-5.9883,-5.6669,-5.4315,-5.2868,-5.2141,-5.1221,-5.0552,-5.0047,-4.9063,-4.8206,0.0,0.0,0.0,0.0,0.0,0.0,0.0,0.0,-4.5128,-4.5297,-4.5026,-4.5128,-4.5297,-4.5026,-4.5297,-4.5669,-4.5432,-4.6244,-4.7564,-4.9357,-4.9018,-5.027,-5.7983,-5.794,-5.7558,-6.2133,-5.9854,-5.6892,-5.6251,-5.871,-6.1194,-6.2271,-6.5443,-6.7897,-6.8315,-6.8944,-6.9093,-6.8435,-6.7358,-6.667,-6.667,-6.5054,-6.4006,-6.4006,-6.3438,-6.3079,-6.3079,-6.245,-6.2002,-6.1792,-6.0685,-5.9668,-5.88,-5.8351,-5.7782,-5.7094,-5.8022,-5.8231,-5.7812,-5.7812,-5.7812,-5.7752,-5.7094,-5.6795,-5.6765,-5.6137,-5.5089,-5.3832,-5.3144,-5.2456,-5.1887,-5.1887,-5.1618,-5.1229,0.0,0.0,0.0,0.0,0.0,0.0,0.0,0.0,-5.2828,-5.3665,-5.3444,0.0,0.0,0.0,0.0,0.0,-5.3203,-5.3203,-5.3203,-5.3203,-5.3555,-5.4363,-5.4399,-5.55,-5.7923,-6.1117,-6.3587,-6.5301,-6.7724,-6.8054,-6.6366,-6.3099,-6.0697,-5.9059,-5.5097,-5.297,-5.2275,-5.0691,-4.9198,-4.7906,-4.7906,-4.7462,-4.6718,0.0,0.0,0.0,0.0,0.0,0.0,0.0,-4.5196,-4.475,-4.5466,-4.5196,-4.475,-4.55,-4.5703,-4.5534,-4.4818,-4.621,-4.7669,-4.6955,-4.7902,-5.0744,-5.7372,-5.7463,-5.7116,-6.0532,-6.0106,-5.889,-5.8261,-5.8141,-5.88,-6.0805,-6.3318,-6.5473,-6.6789,-6.7537,-6.7717,-6.7059,-6.64,-6.5981,-6.5981,-6.4784,-6.3977,-6.3977,-6.3438,-6.3079,-6.3079,-6.245,-6.1792,-6.1134,-6.0416,-5.9428,-5.8112,-5.8058,-5.7752,-5.7064,-5.7064,-5.7094,-5.7094,-5.7094,-5.7094,-5.7064,-5.6436,-5.6166,-5.6188,-5.5448,-5.4371,-5.3114,-5.2456,-5.1798,-5.1229,-5.1229,-5.1229,-5.1229,0.0,0.0,0.0,0.0,0.0,0.0,0.0,0.0,-5.2257,-5.2515,-5.2925,0.0,0.0,0.0,0.0,0.0,0.0,-5.3203,-5.3203,-5.3203,-5.3314,-5.3555,-5.3555,-5.4179,-5.5427,-5.8621,-6.2218,-6.6145,-6.6292,-6.4396,-6.0622,-5.9019,-5.6887,-5.434,-5.3669,-5.2415,-5.0801,-5.1374,-5.049,-4.868,-4.868,-4.824,-4.7564,0.0,0.0,0.0,0.0,0.0,0.0,0.0,0.0,0.0,-4.4886,-4.5128,-4.5432,-4.5635,-4.6075,-4.621,-4.4953,-4.5089,-4.5635,-4.594,-4.753,-4.9605,-5.1924,-5.5001,-5.8488,-6.2365,-6.1719,-6.0089,-5.8991,-5.9967,-6.0954,-6.1104,-6.3318,-6.5173,-6.5562,-6.6191,-6.634,-6.5682,-6.5024,-6.4605,-6.4605,-6.3827,-6.3348,-6.3348,-6.3169,-6.2869,-6.2421,-6.1762,-6.1104,-6.0416,-5.9308,-5.8291,-5.7423,-5.6974,-5.6406,-5.5748,-5.5748,-5.5987,-5.6436,-5.6436,-5.6436,-5.6406,-5.5777,-5.5748,-5.6047,-5.4431,-5.3264,-5.2426,-5.1768,-5.1379,-5.1229,-5.1229,-5.1229,-5.1229,0.0,0.0,0.0,0.0,0.0,0.0,-5.1781,-5.1977,-5.2087,-5.2417,-5.2894,-5.3041,0.0,0.0,0.0,-5.3203,-5.3203,-5.3203,-5.3203,-5.3203,-5.3203,-5.3203,-5.3518,-5.4509,-5.6271,-5.8194,-6.0676,-6.3613,-6.3759,-6.1733,-5.7702,-5.748,-5.5848,-5.3232,-5.3649,-5.277,-5.0986,-5.1306,-5.0338,-4.8578,-4.8578,-4.8139,-4.7496,0.0,0.0,0.0,0.0,0.0,0.0,0.0,0.0,0.0,-4.4615,-4.5094,-4.5703,-4.5703,-4.5805,-4.5867,-4.5563,-4.5466,-4.5838,-4.7496,-4.8917,-5.0347,-5.2095,-5.4858,-5.8418,-6.3405,-6.2183,-6.0084,-5.9591,-6.0475,-6.1253,-6.1134,-6.3079,-6.4545,-6.4276,-6.4814,-6.4964,-6.4336,-6.3887,-6.3617,-6.3617,-6.3049,-6.269,-6.269,-6.245,-6.2121,-6.1732,-6.1074,-6.0386,-5.9727,-5.868,-5.7663,-5.6735,-5.6346,-5.5718,-5.479,-5.5059,-5.5119,-5.505,-5.5538,-5.5658,-5.5359,-5.47,-5.476,-5.5269,-5.3503,-5.2396,-5.1768,-5.1379,-5.105,-5.0823,-5.1109,-5.1229,-5.1229,0.0,0.0,-4.9233,-4.9909,0.0,0.0,-5.1646,-5.194,-5.2234,-5.2894,-5.3078,-5.3115,0.0,0.0,0.0,-5.3167,-5.3203,-5.3203,-5.3203,-5.3203,-5.3203,-5.3203,-5.3959,-5.5831,-5.8891,-5.8891,-5.8854,-5.8854,-6.0493,-5.9663,-5.6587,-5.7349,-5.6489,-5.4306,-5.435,-5.3526,-5.1995,-5.0676,-4.9221,-4.7804,-4.7872,-4.7496,-4.6955,-4.7635,0.0,0.0,0.0,0.0,0.0,0.0,0.0,0.0,-4.4615,-4.506,-4.5635,-4.5771,-4.5263,-4.5021,-4.6481,-4.6786,-4.7361,-5.0135,-5.1082,-5.2367,-5.6393,-5.6649,-5.7715,-6.3591,-6.1722,-5.9249,-5.9967,-6.0146,-6.0356,-6.0924,-6.254,-6.3558,-6.3049,-6.3468,-6.3647,-6.3139,-6.3079,-6.3049,-6.2989,-6.245,-6.2061,-6.2002,-6.1403,-6.0984,-6.0924,-6.0266,-5.9608,-5.8949,-5.8291,-5.7334,-5.6107,-5.6017,-5.5388,-5.4221,-5.476,-5.4401,-5.3324,-5.4551,-5.473,-5.4072,-5.3443,-5.3503,-5.3922,-5.2695,-5.1768,-5.1139,-5.1139,-5.0734,-5.0255,-5.084,-5.1079,-5.1139,0.0,0.0,-4.9819,-4.9712,0.0,0.0,-5.0912,-5.1573,-5.183,-5.1389,-5.1867,-5.227,-5.227,-5.227,0.0,-5.313,-5.3203,-5.3203,-5.3203,-5.3203,-5.3203,-5.3203,-5.3959,-5.5317,-5.7276,-5.6712,-5.6381,-5.6381,-5.7997,-5.6903,-5.3362,-5.4579,-5.4005,-5.1981,-5.3173,-5.2531,-5.0541,-5.0236,-4.8917,-4.709,-4.7665,-4.7804,-4.7699,-4.7838,-4.8244,0.0,0.0,0.0,0.0,0.0,0.0,0.0,-4.4615,-4.4716,-4.5089,-4.621,-4.6041,-4.5805,-4.7259,-4.6819,-4.6244,-4.7428,-4.9932,-5.3687,-5.981,-5.9794,-5.924,-6.1916,-6.0259,-5.868,-5.9877,-6.0535,-6.0775,-6.0386,-6.1104,-6.1852,-6.2241,-6.2421,-6.266,-6.3019,-6.3079,-6.2869,-6.2361,-6.2181,-6.1882,-6.1373,-6.0685,-6.0086,-5.9578,-5.889,-5.8231,-5.7543,-5.6915,-5.6196,-5.5418,-5.488,-5.4491,-5.4221,-5.3803,-5.3743,-5.3982,-5.4281,-5.4042,-5.3384,-5.3234,-5.2965,-5.2606,-5.2306,-5.1498,-5.0405,-5.0405,-5.0315,-5.0136,-4.9823,-5.0002,-5.0405,0.0,0.0,0.0,0.0,0.0,0.0,0.0,0.0,-5.2307,-5.1463,-5.172,-5.1977,-5.1977,-5.1646,0.0,0.0,-5.2417,-5.2637,-5.2637,-5.2637,-5.2968,-5.3739,-5.4179,-5.517,-5.6785,-5.6014,-5.539,-5.5023,-5.5464,-5.4519,-5.2263,-5.3737,-5.3639,-5.2334,-5.3145,-5.2638,-5.1082,-4.9999,-4.8714,-4.7361,-4.7767,-4.7669,-4.7361,-4.7361,-4.7394,-4.7327,-4.6583,0.0,0.0,0.0,0.0,0.0,0.0,0.0,-4.4113,-4.4519,-4.4891,-4.5399,-4.6549,-4.7056,-4.78,-4.9999,-5.3044,-5.6359,-5.9505,-5.9498,-5.8974,-5.9652,-5.9065,-5.8516,-5.8607,-5.9219,-5.9578,-5.9219,-5.9967,-6.0745,-6.1074,-6.1403,-6.1762,-6.2091,-6.2121,-6.2002,-6.1672,-6.1343,-6.0864,-6.0206,-5.9518,-5.886,-5.8171,-5.7812,-5.7334,-5.6675,-5.6047,-5.5388,-5.473,-5.4042,-5.3563,-5.3234,-5.3204,-5.3204,-5.3234,-5.3234,-5.3234,-5.3144,-5.2516,-5.2037,-5.1708,-5.1379,-5.0481,-4.9344,-4.9643,-4.9583,-4.9314,-4.9329,-4.9494,-4.9763,0.0,0.0,0.0,0.0,0.0,0.0,0.0,0.0,0.0,-5.1867,-5.1646,-5.1703,-5.1977,-5.1169,-5.0655,0.0,0.0,0.0,-5.1793,-5.1793,-5.2491,-5.4106,-5.4179,-5.495,-5.6565,-5.5684,-5.484,-5.4179,-5.3118,-5.2651,-5.2783,-5.3999,-5.4265,-5.3687,-5.3416,-5.2773,-5.1792,-4.956,-4.8342,-4.7906,-4.8041,-4.7733,-4.7158,-4.7022,-4.6616,-4.5906,-4.4491,-4.4654,-4.5229,-4.3335,0.0,0.0,0.0,0.0,-4.2997,-4.276,-4.3504,-4.4621,-4.5771,-4.7597,-5.0067,-5.3687,-5.6325,-5.8084,-5.8084,-5.8151,-5.8165,-5.785,-5.8121,-5.8016,-5.6844,-5.7154,-5.7633,-5.7633,-5.862,-5.9488,-5.9727,-6.0326,-6.0805,-6.0924,-6.1044,-6.1014,-6.0805,-6.0236,-5.9608,-5.88,-5.8141,-5.7543,-5.6974,-5.6735,-5.6346,-5.5837,-5.5179,-5.4521,-5.3862,-5.3294,-5.2725,-5.2217,-5.2755,-5.2606,-5.1858,-5.1858,-5.2157,-5.2606,-5.1528,-5.099,-5.084,-5.0255,-4.9374,-4.8327,-4.894,-4.882,-4.8327,-4.882,-4.906,-4.9149,0.0,0.0,0.0,0.0,0.0,0.0,0.0,0.0,0.0,0.0,-5.0325,-5.0455,-5.183,-5.0675,-5.0051,-5.0729,-5.0912,-5.0949,-5.0949,0.0,0.0,-5.3277,-5.3371,-5.4106,-5.5721,-5.4289,-5.3482,-5.3371,-5.1253,-5.1884,-5.5043,-5.5254,-5.5039,-5.4397,-5.3044,-5.1691,-5.0236,-4.8037,-4.7428,-4.7939,-4.8612,-4.8781,-4.8646,-4.8003,-4.7669,-4.75,-4.665,-4.5635,-4.4716,-4.4412,-4.3565,0.0,0.0,0.0,-4.188,-4.3768,-4.3944,-4.4147,-4.6857,-4.8748,-5.0676,-5.3822,-5.4431,-5.5074,-5.8152,-5.838,-5.7968,-5.8165,-5.7179,-5.5958,-5.483,-5.5149,-5.5568,-5.5568,-5.6196,-5.7094,-5.8231,-5.8949,-5.9578,-6.0146,-6.0745,-6.0655,-5.9488,-5.9279,-5.871,-5.7453,-5.6795,-5.6376,-5.6286,-5.5209,-5.4551,-5.4491,-5.3803,-5.3144,-5.2486,-5.2366,-5.2276,-5.2187,-5.2276,-5.1678,-5.0465,-5.0465,-5.0495,-5.0584,-5.0405,-5.0062,-4.9569,-4.9479,-4.8955,-4.8297,-4.8386,-4.8356,-4.8237,-4.7758,-4.7938,-4.8416,0.0,0.0,0.0,0.0,0.0,0.0,0.0,0.0,0.0,0.0,0.0,-4.9867,-5.0602,-4.9591,-4.9003,-4.937,-4.9848,-5.0105,-5.0105,-5.0545,-5.1132,-5.183,-5.2307,-5.2858,-5.3555,-5.2894,-5.2307,-5.1867,-5.0003,-5.1725,-5.6716,-5.5903,-5.5635,-5.575,-5.4262,-5.2503,-5.0608,-4.8781,-4.824,-4.8545,-4.8883,-4.9018,-4.8883,-4.7733,-4.7022,-4.6515,-4.5331,-4.4485,-4.3809,-4.2963,-4.2523,-4.2178,-4.1331,0.0,0.0,0.0,-4.3335,-4.4823,-4.8206,-4.9018,-4.9898,-5.416,-5.4025,-5.3788,-5.7543,-5.7171,-5.614,-5.6426,-5.5178,-5.4085,-5.4541,-5.4322,-5.4072,-5.4072,-5.494,-5.5837,-5.6406,-5.7334,-5.8082,-5.8381,-5.868,-5.862,-5.8052,-5.8321,-5.7992,-5.6675,-5.6645,-5.6226,-5.5119,-5.4521,-5.4042,-5.3653,-5.2995,-5.2306,-5.1648,-5.1289,-5.1109,-5.1109,-5.072,-5.0451,-5.0196,-4.9853,-4.9703,-4.9703,-4.9703,-4.9314,-4.876,-4.876,-4.8327,-4.7728,-4.7728,-4.7728,-4.7698,-4.7429,-4.7489,-4.7728,0.0,0.0,0.0,0.0,0.0,0.0,0.0,0.0,0.0,0.0,0.0,-4.9353,-4.9574,0.0,0.0,0.0,-4.8893,-4.928,-4.928,-4.9811,-5.0251,-5.0472,-5.1059,-5.1463,-5.1683,-5.1463,-5.0998,-5.0232,-4.875,-5.1058,-5.6834,-5.5764,-5.6133,-5.7577,-5.5886,-5.389,-5.1658,-4.9999,-4.9492,-4.9796,-4.9424,-4.9187,-4.8849,-4.7361,-4.6447,-4.5771,-4.4248,-4.3544,-4.3172,-4.1914,-4.1711,-4.1779,-4.0519,-4.0595,0.0,0.0,0.0,-4.5292,-4.8409,-4.8612,-4.892,-5.3213,-5.2875,-5.23,-5.548,-5.4905,-5.3921,-5.4546,-5.3705,-5.3157,-5.4097,-5.3283,-5.2486,-5.2665,-5.3653,-5.4431,-5.4431,-5.5538,-5.6436,-5.6585,-5.6765,-5.6855,-5.6855,-5.7334,-5.7154,-5.6017,-5.6196,-5.5748,-5.4281,-5.3892,-5.3384,-5.2695,-5.2037,-5.1379,-5.072,-5.0242,-5.0002,-5.0002,-4.9494,-4.9434,-4.9687,-4.9224,-4.897,-4.882,-4.9,-4.87,-4.8027,-4.8027,-4.7758,-4.7309,-4.7309,-4.7309,-4.7309,-4.7309,-4.7309,-4.7309,0.0,0.0,0.0,0.0,0.0,0.0,0.0,0.0,0.0,0.0,0.0,-4.8673,-4.95,-4.882,-4.8306,-4.8306,-4.8343,-4.8379,-4.8379,-4.8416,-4.8783,-4.9647,-4.9721,0.0,-5.0839,-5.0124,-4.9387,-4.8714,-4.7224,-4.9267,-5.4554,-5.4599,-5.653,-5.9844,-5.7645,-5.5446,-5.3247,-5.098,-5.0845,-5.1995,-5.0608,-4.9627,-4.8849,-4.7361,-4.6786,-4.6549,-4.5089,-4.4045,-4.3274,-4.2489,-4.1813,-4.1136,-4.035,-4.0595,-4.1339,0.0,0.0,0.0,-4.6515,-4.7428,-4.8308,-4.9965,-4.9763,-4.9593,-5.1217,-5.1455,-5.1793,-5.3281,-5.3753,-5.3645,-5.2789,-5.1413,-5.0554,-5.1229,-5.1917,-5.2366,-5.2366,-5.3503,-5.4581,-5.5209,-5.5837,-5.6278,-5.6278,-5.6308,-5.5987,-5.5299,-5.47,-5.4311,-5.4221,-5.2995,-5.2007,-5.1349,-5.0644,-5.0032,-4.9419,-4.9389,-4.9359,-4.9359,-4.9329,-4.9,-4.8386,-4.8356,-4.7997,-4.7429,-4.8057,-4.7967,-4.7369,-4.7369,-4.7339,-4.7309,-4.7309,-4.7309,-4.7309,-4.7309,-4.7309,-4.7309,0.0,0.0,0.0,0.0,0.0,0.0,0.0,0.0,0.0,0.0,0.0,0.0,0.0,-4.8489,-4.8306,-4.8306,-4.8306,-4.8306,-4.8306,-4.8306,-4.8453,-4.8746,-4.9317,-4.9444,-4.9187,-4.9463,-4.9021,-4.7839,-4.6893,-4.8399,-5.2278,-5.2386,-5.389,-5.663,-5.7712,-5.619,-5.2739,-5.186,-5.071,-4.956,-5.0473,-5.0101,-4.8984,-4.8917,-4.8612,-4.8003,-4.6515,-4.5534,-4.4688,-4.3436,-4.2523,-4.1847,-4.1576,-4.2016,-4.2794,-4.3538,-4.4175,-4.4919,-4.638,-4.6278,-4.6583,-4.9965,-4.8849,-4.7767,-5.115,-5.1183,-5.0514,-5.046,-5.1609,-5.1997,-4.99,-5.0089,-5.0435,-5.0049,-5.0511,-5.1079,-5.1498,-5.2336,-5.3174,-5.3832,-5.4491,-5.491,-5.491,-5.5688,-5.5897,-5.5239,-5.4162,-5.3563,-5.3563,-5.1887,-5.0794,-5.0554,-5.0315,-4.9733,-4.8656,-4.8207,-4.8207,-4.8626,-4.8207,-4.8117,-4.8267,-4.7848,-4.7519,-4.7309,-4.7549,-4.7519,-4.7309,-4.7309,-4.7309,-4.7309,-4.7309,-4.7309,-4.7309,-4.7309,-4.7309,-4.7309,0.0,0.0,0.0,-5.2931,0.0,-5.0729,-5.0435,-4.9187,-4.8306,-4.8306,0.0,0.0,0.0,0.0,-4.8306,-4.8306,-4.8306,-4.8306,-4.8306,-4.8306,-4.8306,-4.8306,-4.8857,-4.8893,-4.8306,-4.8663,-4.826,-4.7066,-4.6425,-4.7422,-5.0022,-5.032,-5.1657,-5.389,-5.5615,-5.531,-5.3484,-5.3179,-5.1928,-5.0202,-5.0642,-5.0405,-4.9729,-4.9729,-4.9424,-4.8917,-4.8173,-4.7259,-4.6244,-4.4993,-4.4045,-4.3335,-4.2828,-4.2828,-4.3234,-4.4282,-4.4242,-4.4175,-4.5635,-4.5128,-4.5026,-4.8511,-4.7327,-4.6177,-4.9357,-4.9898,-4.9569,-4.8991,-5.0757,-5.1789,-4.9573,-4.9985,-5.0308,-4.9132,-4.9494,-5.0062,-5.0511,-5.093,-5.1618,-5.2725,-5.3054,-5.3473,-5.4132,-5.4999,-5.5418,-5.5209,-5.3952,-5.3174,-5.3174,-5.1528,-5.0315,-4.9912,-4.9448,-4.8835,-4.7967,-4.7519,-4.7519,-4.7967,-4.7519,-4.7549,-4.7938,-4.7489,-4.7309,-4.7309,-4.7309,-4.7309,-4.7309,-4.7309,-4.7309,-4.7309,-4.7309,-4.7309,-4.7309,-4.7309,-4.7309,-4.7309,-5.4032,-5.3739,-5.2968,-5.2123,-5.1316,-5.0545,-4.9721,-4.8857,-4.8306,-4.8306,0.0,0.0,0.0,0.0,0.0,-4.8343,-4.8343,-4.8343,-4.8306,-4.8306,-4.8306,-4.8306,-4.8306,-4.8287,-4.8267,-4.7715,-4.7044,-4.6365,-4.58,-4.6302,-4.7838,-4.8612,-5.0101,-5.2131,-5.1454,-5.2773,-5.5446,-5.4769,-5.4431,-5.4093,-5.1319,-5.0541,-5.0947,-4.9593,-4.9052,-4.9086,-4.983,-4.9187,-4.7804,-4.709,-4.6346,-4.5466,-4.3916,-4.2963,-4.2658,-4.4141,-4.3498,-4.2625,0.0,0.0,0.0,-4.5263,-4.506,-4.475,-4.55,-4.7361,-4.8917,-4.8886,-5.132,-5.3077,-5.1999,-5.101,-4.9915,-4.8555,-4.882,-4.9269,-4.9269,-4.9299,-5.0018,-5.1917,-5.1618,-5.2007,-5.3982,-5.4192,-5.4491,-5.5119,-5.3892,-5.3144,-5.3144,-5.1887,-5.0571,-4.9359,-4.7997,-4.7309,-4.7309,-4.7309,-4.7309,-4.7309,-4.7309,-4.7309,-4.7309,-4.7309,-4.7309,-4.7309,-4.7309,-4.7309,-4.7309,-4.7309,-4.7309,-4.7309,-4.7309,-4.7309,-4.7309,-4.7309,-4.7309,-4.7309,-5.2564,-5.3408,-5.3628,-5.2234,-5.1316,-5.0545,-4.9721,-4.8857,-4.8306,0.0,0.0,0.0,-4.8306,-4.8857,-4.9243,-4.9243,-4.9243,-4.8967,-4.8343,-4.8306,-4.8306,-4.8306,-4.8306,-4.8094,-4.7674,-4.747,-4.6864,-4.5775,-4.6126,-4.6295,-4.6346,-4.7056,-4.8037,-4.9154,-4.9458,-4.9796,-5.0137,-5.1555,-5.0608,-4.8409,-5.1386,-5.0744,-4.8274,-5.0541,-5.0067,-4.8376,-4.9627,-4.9492,-4.8578,-4.7868,-4.7124,-4.621,-4.4722,-4.4141,-4.3938,-4.3775,-4.3436,-4.3064,-4.2963,0.0,0.0,0.0,0.0,0.0,-4.4587,-4.5771,-4.6604,-4.6493,-4.9315,-5.133,-4.9668,-4.992,-4.9994,-4.8841,-4.8188,-4.8027,-4.8506,-4.9,-4.9643,-5.0614,-5.1468,-5.2336,-5.3384,-5.3922,-5.4281,-5.4461,-5.2785,-5.1977,-5.2456,-5.078,-4.9643,-4.9329,-4.7997,-4.7309,-4.7309,-4.7309,-4.7309,-4.7309,-4.7309,-4.7309,-4.7309,-4.7309,-4.7309,-4.7309,-4.7309,-4.7309,-4.7309,-4.7309,-4.7309,-4.7309,-4.7309,-4.7309,-4.7309,-4.7309,-4.7309,-4.7309,-5.1573,-5.2527,-5.3004,-5.172,-5.1096,-5.0545,-4.9721,-4.915,-4.871,0.0,0.0,0.0,-4.9297,-4.9811,-4.9978,-4.9647,-4.928,-4.882,-4.8343,-4.8055,-4.7899,-4.7899,-4.7638,-4.7327,-4.6999,-4.6751,-4.6081,-4.5034,-4.5516,-4.5412,-4.4756,-4.55,-4.6109,-4.6549,-4.6955,-4.6921,-4.665,-4.8578,-4.8646,-4.7767,-5.0507,-5.0811,-4.9796,-5.1623,-5.1251,-4.9932,-5.142,-5.1285,-5.0304,-4.9898,-4.8646,-4.7056,-4.5901,-4.4857,-4.4147,-4.4316,-4.3443,-4.2496,-4.2726,-4.2083,-4.1711,-4.3064,0.0,0.0,-4.3741,-4.5162,-4.6161,-4.6049,-4.8774,-5.0659,-4.8903,-4.884,-4.8879,-4.8142,-4.7167,-4.689,-4.8117,-4.8386,-4.8895,-5.0046,-5.069,-5.1439,-5.2665,-5.3384,-5.3892,-5.4192,-5.2845,-5.1858,-5.1409,-5.0032,-4.9179,-4.891,-4.7848,-4.7309,-4.7309,-4.7309,-4.7309,-4.7309,-4.7309,-4.7309,-4.7309,-4.7309,-4.7309,-4.7309,-4.7309,-4.7309,-4.7309,-4.7309,-4.7309,-4.7309,-4.7309,-4.7309,-4.7309,-4.7309,-4.7309,-4.7309,0.0,-5.1389,-5.1683,-5.1059,-5.0875,-5.0582,-4.9978,-4.9794,-4.9537,0.0,-4.9444,-5.0121,-5.0867,-5.0774,-5.0371,-4.9578,-4.8716,-4.8168,-4.7985,-4.7467,-4.7119,-4.7068,-4.6572,-4.6259,-4.6188,-4.573,-4.5156,-4.4413,-4.4538,-4.4316,-4.3781,-4.4316,-4.4682,-4.4852,-4.4682,-4.4547,-4.4547,-4.5872,-4.7665,-4.9593,-4.9357,-5.0744,-5.2976,-5.257,-5.2232,-5.2164,-5.3856,-5.3484,-5.2164,-5.2097,-5.0202,-4.7736,-4.6955,-4.5297,-4.3882,-4.5094,-4.3572,-4.1711,-4.2936,-4.1847,-4.0823,-4.2794,-4.2354,0.0,-4.3105,-4.5026,-4.6583,-4.6752,-4.8883,-5.0316,-4.9061,-4.8081,-4.7381,-4.7119,-4.6202,-4.6059,-4.7862,-4.7698,-4.8057,-4.9777,-4.9643,-5.0122,-5.2007,-5.2725,-5.3324,-5.3952,-5.3354,-5.2157,-5.0285,-4.9613,-4.9,-4.8297,-4.7638,-4.7309,-4.7309,-4.7309,-4.7309,-4.7309,-4.7309,-4.7309,-4.7309,-4.7309,-4.7309,-4.7309,-4.7309,-4.7309,-4.7309,-4.7309,-4.7309,-4.7309,-4.7309,-4.7309,-4.7309,-4.7309,-4.7309,-4.7309,-5.0839,-5.0949,-5.1206,-5.1683,-5.1242,-5.0986,-5.1463,-5.0986,-5.0986,-5.2123,-5.183,-5.1627,-5.1837,-5.0741,-4.9694,-4.9008,-4.827,-4.727,-4.5949,-4.5789,-4.5436,-4.4854,-4.5288,-4.5282,-4.4809,-4.5259,-4.5198,-4.4565,-4.4569,-4.5156,-4.6109,-4.5089,-4.5224,-4.6312,-4.5122,-4.4215,-4.3673,-4.3944,-4.5026,-4.6819,-4.9627,-5.0405,-5.0135,-5.2401,-5.1758,-4.9999,-5.2739,-5.2739,-5.1319,-5.071,-4.9357,-4.7669,-4.6346,-4.5602,-4.5094,-4.4119,-4.3409,-4.2902,-4.2591,-4.2185,-4.1948,-4.2388,-4.276,0.0,-4.3308,-4.4248,-4.5393,-4.6549,-4.7259,-4.7939,-4.8798,-4.863,-4.8317,-4.8274,-4.7233,-4.6488,-4.6646,-4.7519,-4.8237,-4.8626,-4.9494,-5.0601,-5.2067,-5.2306,-5.2456,-5.2576,-5.1977,-5.1199,-5.0255,-4.9613,-4.9,-4.8297,-4.7638,-4.7309,-4.7309,-4.7309,-4.7309,-4.7309,-4.7309,-4.7309,-4.7309,-4.7309,-4.7309,-4.7309,-4.7309,-4.7309,-4.7309,-4.7309,-4.7309,-4.7309,-4.7309,-4.7309,-4.7309,-4.7309,-4.7309,-4.7309,-4.9738,-4.9884,-5.0472,-5.1242,-5.1059,-5.1059,-5.1867,-5.1344,-5.1005,-5.1384,-5.1502,-5.1418,-5.107,-5.0688,-4.9852,-4.8398,-4.7889,-4.7003,-4.5397,-4.5023,-4.4506,-4.3793,-4.3774,-4.3844,-4.3897,-4.4247,-4.4121,-4.3464,-4.4242,-4.4581,-4.4553,-4.4615,-4.4987,-4.5698,-4.4953,-4.4378,-4.4012,-4.4012,-4.5094,-4.6989,-4.8785,-4.9796,-5.0371,-5.2638,-5.257,-5.1386,-5.2503,-5.2164,-5.1016,-4.9932,-4.9289,-4.8748,-4.7259,-4.6549,-4.6007,-4.4891,-4.3984,-4.3308,-4.2963,-4.2591,-4.2286,-4.2286,-4.2591,0.0,0.0,-4.3436,-4.4316,-4.5466,-4.6007,-4.633,-4.6675,-4.6575,-4.6586,-4.6804,-4.567,-4.501,-4.5879,-4.678,-4.7549,-4.8207,-4.8865,-4.9793,-5.1079,-5.1229,-5.1349,-5.1678,-5.1409,-5.078,-4.9793,-4.9134,-4.8476,-4.7818,-4.7489,-4.7309,-4.7309,-4.7309,-4.7309,-4.7309,-4.7309,-4.7309,-4.7309,-4.7309,-4.7309,-4.7309,-4.7309,-4.7309,-4.7309,-4.7309,-4.7309,-4.7309,-4.7309,-4.7309,-4.7309,-4.7309,-4.7309,-4.7309,-4.8857,-4.9114,-4.9867,-5.0655,-5.0574,-5.0696,-5.1648,-5.1098,-5.0399,-5.0052,-5.0552,-5.0777,-5.047,-5.0364,-4.9572,-4.7869,-4.7432,-4.652,-4.4812,-4.4396,-4.3749,-4.2738,-4.2296,-4.2422,-4.3172,-4.3308,-4.32,-4.2726,-4.3809,-4.3876,-4.2963,-4.3938,-4.4547,-4.4818,-4.4682,-4.4682,-4.4818,-4.4682,-4.5872,-4.7906,-4.8041,-4.9325,-5.1354,-5.2909,-5.3315,-5.2976,-5.2334,-5.1623,-5.0777,-4.9458,-4.9289,-4.9424,-4.8105,-4.7192,-4.6481,-4.5872,-4.4722,-4.3639,-4.3639,-4.3301,-4.2895,-4.276,-4.2963,-4.3098,0.0,0.0,0.0,-4.4513,-4.506,-4.5293,-4.4574,-4.4553,-4.477,-4.5144,-4.4201,-4.4046,-4.5796,-4.615,-4.6623,-4.7802,-4.7668,-4.8087,-4.9478,-4.9628,-4.9956,-5.078,-5.084,-5.0331,-4.9179,-4.8566,-4.7967,-4.7339,-4.7309,-4.7309,-4.7309,-4.7309,-4.7309,-4.7309,-4.7309,-4.7309,-4.7309,-4.7309,-4.7309,-4.7309,-4.7309,-4.7309,-4.7309,-4.7309,-4.7309,-4.7309,-4.7309,-4.7309,-4.7309,-4.7309,-4.7309,-4.7309,-4.9647,-4.9537,-4.9867,-5.0655,-4.9716,-4.9358,-5.0864,-4.9984,-4.961,-5.0865,-5.0566,-5.0708,-5.1993,-4.9187,-4.7388,-4.7856,-4.6674,-4.4973,-4.2788,-4.3192,-4.2622,-4.0544,-4.1018,-4.1677,-4.2388,-4.3064,-4.3707,-4.4344,-4.3809,-4.4147,-4.5297,-4.4113,-4.4282,-4.5534,-4.4891,-4.4959,-4.5534,-4.4857,-4.5872,-4.7939,-4.8612,-4.983,-5.1354,-5.2909,-5.2672,-5.1454,-5.1386,-5.0845,-5.0101,-4.9289,-4.8612,-4.8037,-4.7192,-4.6413,-4.5805,-4.5737,-4.5094,-4.4479,-4.4479,-4.4891,-4.5162,-4.4485,-4.5326,-4.594,-4.4649,0.0,-4.5297,-4.4716,0.0,-4.4688,-4.4603,0.0,0.0,-4.5644,-4.5882,-4.6355,-4.7172,-4.6429,-4.5957,-4.6466,-4.5484,-4.5514,-4.7459,-4.7638,-4.8147,-4.9449,-4.9539,-4.9164,-4.8446,-4.8327,-4.7967,-4.7339,-4.7309,-4.7309,-4.7309,-4.7309,-4.7309,-4.7309,-4.7309,-4.7309,-4.7309,-4.7309,-4.7309,-4.7309,-4.7309,-4.7309,-4.7309,-4.7309,-4.7309,-4.7309,-4.7309,-4.7309,-4.7309,-4.7309,-4.7309,-4.7309,-5.0435,-4.9941,-4.9731,-5.0153,-4.9293,-4.8884,-4.9662,-4.9276,-4.9141,-4.9844,-4.9268,-4.9568,-5.1511,-4.9876,-4.8976,-4.9729,-4.9255,-4.7936,-4.5703,-4.506,-4.4147,-4.2787,-4.2151,-4.2185,-4.2929,-4.324,-4.3572,-4.391,-4.4045,-4.4181,-4.4384,-4.4181,-4.4418,-4.5026,-4.475,-4.4993,-4.5703,-4.5805,-4.6921,-4.8545,-4.8409,-4.9177,-5.0559,-5.2708,-5.2536,-5.1116,-5.0236,-4.9729,-4.9289,-4.8105,-4.8376,-4.8883,-4.7293,-4.7158,-4.7462,-4.6583,-4.5805,-4.5229,-4.5229,-4.5466,-4.5635,-4.5331,-4.5703,-4.6007,-4.5365,-4.479,-4.4418,-4.4581,0.0,0.0,0.0,0.0,0.0,0.0,-4.5093,-4.4716,-4.4951,-4.3358,-4.3297,-4.6183,-4.5555,-4.5364,-4.6621,-4.6741,-4.695,-4.7519,-4.7549,-4.7429,-4.716,-4.7519,-4.7578,-4.7309,-4.7309,-4.7309,-4.7309,-4.7309,-4.7309,-4.7309,-4.7309,-4.7309,-4.7309,-4.7309,-4.7309,-4.7309,-4.7309,-4.7309,-4.7309,-4.7309,-4.7309,-4.7309,-4.7309,-4.7309,-4.7309,-4.7309,-4.7309,-4.7309,-5.102,-5.0399,-4.9789,-4.9293,-4.8575,-4.8069,-4.802,-4.8382,-4.8792,-4.9215,-4.8477,-4.8886,-5.1555,-5.0236,-4.9729,-5.105,-5.0845,-4.9763,-4.7733,-4.6413,-4.5365,-4.4649,-4.2753,-4.232,-4.3707,-4.3335,-4.3335,-4.3741,-4.4316,-4.4282,-4.3741,-4.4344,-4.4615,-4.4615,-4.4615,-4.4919,-4.5438,-4.6316,-4.7435,-4.8545,-4.8357,-4.8828,-4.9793,-5.1219,-5.1397,-5.0712,-4.9173,-4.8798,-4.8815,-4.753,-4.8173,-4.9221,-4.7597,-4.7699,-4.824,-4.7361,-4.6583,-4.6007,-4.6007,-4.6143,-4.621,-4.5805,-4.5838,-4.5906,-4.55,-4.4688,-4.4215,-4.4756,-4.4587,0.0,0.0,0.0,-4.5297,-4.5635,0.0,-4.4398,-4.3875,-4.2334,-4.226,-4.4934,-4.4941,-4.4945,-4.5412,-4.5472,-4.5472,-4.5472,-4.5843,-4.5963,-4.5741,-4.6741,-4.7309,-4.7309,-4.7309,-4.7309,-4.7309,-4.7309,-4.7309,-4.7309,-4.7309,-4.7309,-4.7309,-4.7309,-4.7309,-4.7309,-4.7309,-4.7309,-4.7309,-4.7309,-4.7309,-4.7309,-4.7309,-4.7309,-4.7309,-4.7309,-4.7309,-4.7309,-5.1221,-5.0951,-5.0183,-4.8056,-4.713,-4.6485,-4.5903,-4.6984,-4.8474,-4.9864,-4.8815,-4.9292,-5.3044,-4.9526,-4.8071,-5.098,-4.9898,-4.8443,-4.6921,-4.6109,-4.5365,-4.4649,-4.1771,-4.1568,-4.4513,-4.3125,-4.3064,-4.4581,-4.4581,-4.4581,-4.4581,-4.4581,-4.4615,-4.4615,-4.4615,-4.4615,-4.4728,-4.5912,-4.6848,-4.767,-4.8784,-4.932,-4.9261,-4.7942,-4.8554,-4.9905,-4.8231,-4.8225,-4.8883,-4.8108,-4.7906,-4.7939,-4.7872,-4.7428,-4.6989,-4.7665,-4.7361,-4.6752,-4.6752,-4.7293,-4.7466,-4.6075,-4.6244,-4.638,-4.4953,-4.5128,-4.5635,-4.5669,-4.621,-4.6684,-4.6718,-4.6718,-4.6481,-4.5805,-4.6857,0.0,0.0,-4.5402,-4.4329,-4.1858,-4.2611,-4.3349,-4.3379,-4.3379,-4.3379,-4.3379,-4.4616,-4.5035,-4.4407,-4.6232,-4.7309,-4.7309,-4.7309,-4.7309,-4.7309,-4.7309,-4.7309,-4.7309,-4.7309,-4.7309,-4.7309,-4.7309,-4.7309,-4.7309,-4.7309,-4.7309,-4.7309,-4.7309,-4.7309,-4.7309,-4.7309,-4.7309,-4.7309,-4.7309,-4.7309,-4.7309,-4.91,-4.9249,-4.9354,-4.8601,-4.7039,-4.5991,-4.636,-4.6447,-4.7665,-5.1116,-5.027,-5.115,-5.5886,-5.4194,-5.2909,-5.3416,-5.345,-5.2401,-4.9898,-4.9492,-4.9018,-4.8274,-4.6786,-4.5771,-4.5331,-4.5297,-4.5089,-4.4615,-4.4615,-4.4852,-4.5331,-4.4852,-4.4857,-4.5263,-4.4248,-4.4079,-4.4694,-4.5914,-4.6553,-4.6815,-4.6494,-4.6676,-4.7148,-4.7737,-4.8042,-4.8117,-4.7059,-4.6867,-4.7007,-4.6289,-4.6782,-4.7599,-4.7133,-4.7133,-4.7366,-4.7632,-4.6716,-4.5669,-4.5669,-4.5864,-4.6061,-4.6212,-4.607,-4.5924,-4.6026,-4.5872,-4.5703,-4.5703,-4.6278,-4.6786,-4.6786,-4.6786,-4.6718,-4.6481,-4.6447,-4.5732,0.0,-4.161,-4.0218,-4.01,-4.1235,-4.2372,-4.32,-4.2124,-4.1384,-4.1384,-4.1414,-4.1504,-4.1713,-4.4018,-4.5514,-4.5963,-4.683,-4.7309,-4.7309,-4.7309,-4.7309,-4.7309,-4.7309,-4.7309,-4.7309,-4.7309,-4.7309,-4.7309,-4.7309,-4.7309,-4.7309,-4.7309,-4.7309,-4.7309,-4.7309,-4.7309,-4.7309,-4.7309,-4.7309,-4.7369,-4.7782,-4.7573,-4.7939,-4.8461,-4.7539,-4.6856,-4.7179,-4.7462,-4.9086,-5.301,-5.2435,-5.3281,-5.7442,-5.6359,-5.5108,-5.4634,-5.4296,-5.3416,-5.1725,-5.0135,-4.9627,-5.0439,-4.824,-4.6989,-4.6887,-4.6312,-4.5833,-4.5393,-4.4852,-4.4959,-4.5703,-4.4925,-4.4688,-4.4857,-4.4147,-4.3673,-4.3517,-4.5436,-4.5829,-4.5112,-4.4824,-4.4963,-4.5447,-4.6222,-4.6834,-4.7129,-4.6104,-4.5921,-4.6144,-4.5661,-4.6203,-4.7006,-4.6516,-4.6745,-4.7104,-4.7104,-4.6371,-4.5466,-4.5466,-4.5466,-4.5573,-4.5926,-4.5636,-4.544,-4.5985,-4.5945,-4.5879,-4.6113,-4.6826,-4.7376,-4.7077,-4.7117,-4.7022,-4.6481,-4.6244,-4.5202,0.0,-4.028,-3.9052,-3.9768,-4.0761,-4.1713,-4.2551,-4.1504,-4.0367,-3.9409,-3.9379,-3.9619,-4.0038,-4.2761,-4.4616,-4.5274,-4.6591,-4.7309,-4.7309,-4.7309,-4.7309,-4.7309,-4.7309,-4.7309,-4.7309,-4.7309,-4.7309,-4.7309,-4.7309,-4.7309,-4.7309,-4.7309,-4.7309,-4.7309,-4.7309,-4.7309,-4.7309,-4.7309,-4.7459,-4.7728,-4.7369,-4.6244,-4.621,-4.7534,-4.8443,-4.8714,-4.8007,-4.9765,-5.2267,-5.5277,-5.5108,-5.5513,-5.7645,-5.6055,-5.4735,-5.4499,-5.257,-5.1623,-5.2164,-4.8342,-4.7597,-5.1083,-4.6486,-4.5438,-4.8917,-4.6278,-4.5529,-4.6853,-4.5427,-4.506,-4.5805,-4.4959,-4.4215,-4.3544,-4.4282,-4.3335,-4.1391,-4.4527,-4.4643,-4.2848,-4.3745,-4.4197,-4.4227,-4.3469,-4.4811,-4.6839,-4.5291,-4.5269,-4.6067,-4.6067,-4.6103,-4.6138,-4.6138,-4.6138,-4.6138,-4.6138,-4.6103,-4.6067,-4.6067,-4.6067,-4.5908,-4.5234,-4.5043,-4.5011,-4.491,-4.5486,-4.6191,-4.6825,-4.7834,-4.836,-4.7736,-4.7756,-4.7436,-4.608,-4.6312,-4.5606,-4.2675,-4.1387,-4.0737,-4.0622,-4.097,-4.1265,-4.1324,-4.1294,-4.0187,-3.7554,-3.8512,-3.9254,-3.9373,-4.2372,-4.4436,-4.5274,-4.6471,-4.7189,-4.7309,-4.7249,-4.7249,-4.7309,-4.7309,-4.7309,-4.7309,-4.7309,-4.7309,-4.7309,-4.7309,-4.7309,-4.7309,-4.7309,-4.7309,-4.7309,-4.7309,-4.7309,-4.7309,-4.7309,-4.7698,-4.8237,-4.6946,-4.665,-4.6447,-4.6312,-4.7327,-4.8108,-4.7906,-4.9765,-5.2097,-5.4566,-5.5683,-5.6664,-5.778,-5.7881,-5.6562,-5.328,-5.3416,-5.2841,-5.0777,-5.0642,-5.1048,-5.1995,-5.0744,-4.9695,-4.9018,-4.8781,-4.8342,-4.7631,-4.6684,-4.6616,-4.7327,-4.5432,-4.4756,-4.5094,-4.4722,-4.3328,-4.137,-4.4007,-4.4658,-4.3706,-4.2084,-4.2581,-4.4137,-4.2491,-4.3232,-4.4926,-4.4013,-4.3849,-4.4051,-4.4051,-4.4517,-4.5153,-4.5153,-4.5153,-4.5153,-4.5153,-4.4631,-4.4051,-4.4051,-4.4051,-4.4182,-4.475,-4.446,-4.423,-4.4907,-4.5588,-4.6131,-4.6223,-4.7333,-4.8404,-4.9013,-4.8299,-4.7729,-4.8084,-4.5974,-4.3561,-4.1608,-4.0184,-3.9629,-4.0364,-3.9703,-3.9559,-4.0546,-4.0217,-3.902,-3.6896,-3.6596,-3.7375,-3.932,-4.018,-4.2102,-4.5185,-4.4676,-4.5263,-4.7279,-4.6322,-4.6322,-4.7309,-4.7309,-4.7309,-4.7309,-4.7309,-4.7309,-4.7309,-4.7309,-4.7309,-4.7309,-4.7309,-4.7309,-4.7309,-4.7309,-4.7309,-4.7309,-4.7309,-4.7429,-4.7698,-4.6007,-4.6109,-4.6075,-4.5331,-4.7767,-4.9729,-4.9393,-5.0676,-5.2739,-5.5649,-5.6461,-5.707,-5.7814,-5.8558,-5.7746,-5.46,-5.3585,-5.2807,-5.2097,-5.071,-5.0777,-5.2739,-5.186,-5.0744,-4.9492,-4.956,-4.9221,-4.8376,-4.6989,-4.6853,-4.7838,-4.5635,-4.4621,-4.4722,-4.4959,-4.399,-4.2266,-4.3848,-4.4507,-4.4252,-4.2144,-4.2312,0.0,-4.2342,-4.2671,-4.3798,-4.3439,-4.329,-4.329,-4.329,-4.3654,-4.4128,-4.4128,-4.4128,-4.4128,-4.4128,-4.3732,-4.329,-4.329,-4.329,-4.3448,-4.4004,-4.3815,-4.3846,-4.4898,-4.5483,-4.5911,-4.6431,-4.7317,-4.8035,-4.8312,-4.7615,-4.6814,-4.6179,-4.4269,-4.2187,-4.0292,-4.0008,-4.0109,-4.0364,-4.0487,-4.0636,-4.0816,-3.9439,-3.8093,-3.6985,-3.6537,-3.6985,-3.8452,-4.0151,-4.1743,-4.312,-4.4107,-4.4904,-4.5574,-4.4825,-4.5125,-4.6411,-4.5843,-4.6172,-4.7309,-4.701,-4.704,-4.7309,-4.7309,-4.7309,-4.7309,-4.7309,-4.7309,-4.7309,-4.7309,-4.7309,-4.7309,-4.7309,-4.7489,-4.7878,-4.519,-4.5263,-4.5534,-4.4987,-4.868,-5.1758,-5.1792,-5.2672,-5.4431,-5.7476,-5.7509,-5.7408,-5.7848,-5.8457,-5.8254,-5.6799,-5.3585,-5.2469,-5.4329,-5.0101,-4.9323,-5.3348,-5.1488,-5.0371,-5.0371,-4.9661,-4.9289,-4.9289,-4.709,-4.665,-4.7838,-4.5635,-4.4215,-4.3612,-4.4946,-4.474,-4.3451,-4.3395,-4.3729,-4.4188,-4.29,-4.2701,-4.315,-4.2671,-4.2851,-4.329,-4.329,-4.329,-4.329,-4.329,-4.329,-4.329,-4.329,-4.329,-4.329,-4.329,-4.329,-4.329,-4.329,-4.329,-4.329,-4.329,-4.329,-4.3618,-4.4885,-4.5244,-4.5663,-4.692,-4.7429,-4.7475,-4.7,-4.6602,-4.5537,-4.2936,-4.2249,-4.1288,-3.9245,-4.0467,-4.1286,-4.0507,-4.1983,0.0,-4.1354,-3.923,-3.7853,-3.7674,-3.7584,-3.7614,-3.7793,-4.0868,-4.2034,-4.0696,-4.3928,-4.4964,-4.3559,-4.3449,-4.4107,-4.5544,-4.4186,-4.4814,-4.716,-4.6681,-4.6711,-4.7189,-4.7279,-4.7309,-4.7309,-4.7309,-4.7309,-4.7309,-4.7309,-4.7309,-4.7309,-4.7309,-4.7668,-4.8267,-4.5838,-4.5602,-4.5838,-4.6312,-4.7665,-5.0101,-5.4261,-5.7103,-5.8524,-5.7949,-5.8829,-5.9099,-5.8017,-5.8017,-5.7509,-5.6021,-5.4735,-5.3923,-5.3721,-5.2198,-5.1995,-5.345,-5.2469,-5.1894,-5.1894,-5.1217,-5.0811,-5.0811,-4.8582,-4.7635,-4.7838,-4.5635,-4.4513,-4.4418,-4.4556,-4.4269,-4.3595,-4.1194,-4.1193,-4.2762,-4.2518,-4.247,-4.262,-4.3,-4.32,-4.329,-4.329,-4.329,-4.329,-4.329,-4.329,-4.329,-4.329,-4.329,-4.329,-4.329,-4.329,-4.329,-4.329,-4.329,-4.329,-4.329,-4.329,-4.3499,-4.4317,-4.4915,-4.5514,-4.6322,-4.6929,-4.7595,-4.8296,-4.7214,-4.5677,-4.3972,-4.227,-4.096,-4.0424,-4.1086,-4.1286,-4.0507,-4.1175,-4.1414,-4.0636,-4.0636,-4.0247,-3.914,-3.8542,-3.8691,-3.9828,-3.9469,-4.0098,-4.1991,-4.2201,-4.312,-4.4915,-4.3868,-4.4556,-4.695,-4.5603,-4.5484,-4.6501,-4.695,-4.689,-4.6531,-4.707,-4.7309,-4.7309,-4.7309,-4.7309,-4.7309,-4.7309,-4.7309,-4.7309,-4.7309,-4.7369,-4.7638,-4.7564,-4.6786,-4.638,-4.6718,-4.9323,-5.2232,-5.4769,-5.8626,-6.0757,-5.9235,-5.8998,-5.8693,-5.7983,-5.7881,-5.7611,-5.69,-5.5108,-5.4194,-5.4634,-5.2807,-5.2266,-5.345,-5.3145,-5.2303,-5.0994,-5.0627,-5.0191,-4.9575,-4.7601,-4.6991,-4.7626,-4.5568,-4.4355,-4.3923,-4.413,-4.4133,-4.3878,-4.27,-4.2535,-4.3069,-4.2896,-4.288,-4.291,-4.317,-4.329,-4.329,-4.329,-4.329,-4.329,-4.329,-4.329,-4.329,-4.329,-4.329,-4.329,-4.329,-4.329,-4.329,-4.329,-4.329,-4.329,-4.329,-4.329,-4.3469,-4.4167,-4.4825,-4.5484,-4.613,-4.686,-4.737,-4.7588,-4.6943,-4.5845,-4.4118,-4.2987,-4.1925,-4.0715,-4.1085,-4.1358,-4.098,-4.1542,-4.1893,-4.1923,-4.2222,-4.1414,-3.905,-3.8571,-3.8392,-3.8362,-3.9379,-4.0217,-4.0816,-4.2192,-4.3329,-4.4257,-4.3618,-4.4317,-4.6232,-4.4915,-4.5185,-4.683,-4.68,-4.68,-4.686,-4.716,-4.7309,-4.7309,-4.7309,-4.7309,-4.7309,-4.7309,-4.7309,-4.7309,-4.7309,-4.7519,-4.7967,-4.9932,-4.9018,-4.8308,-4.8646,-5.1961,-5.4837,-5.5649,-5.9133,-6.14,-6.0689,-5.9268,-5.8355,-5.8355,-5.8084,-5.7746,-5.7442,-5.5102,-5.3954,-5.4701,-5.2404,-5.1531,-5.264,-5.2805,-5.1853,-4.9695,-4.9534,-4.8949,-4.7919,-4.6313,-4.6061,-4.7046,-4.5269,-4.3926,-4.2969,-4.3549,-4.3781,-4.3759,-4.413,-4.4042,-4.3622,-4.3395,-4.329,-4.329,-4.329,-4.329,-4.329,-4.329,-4.329,-4.329,-4.329,-4.329,-4.329,-4.329,-4.329,-4.329,-4.329,-4.329,-4.329,-4.329,-4.329,-4.329,-4.329,-4.329,-4.3469,-4.4167,-4.4706,-4.5274,-4.5963,-4.6621,-4.7014,-4.6804,-4.6527,-4.58,-4.4089,-4.3605,-4.2701,-4.0688,-4.1205,-4.1654,-4.1235,-4.1901,-4.244,-4.2453,-4.2453,-4.1257,-3.8392,-3.8571,-3.8452,-3.7584,-3.9709,-4.0546,-3.9649,-4.2402,-4.3778,-4.3499,-4.3349,-4.4137,-4.5693,-4.4377,-4.4915,-4.707,-4.6711,-4.6741,-4.71,-4.7249,-4.7309,-4.7309,-4.7309,-4.7309,-4.7309,-4.7309,-4.7309,-4.7309,-4.7309,-4.7638,-4.8177,-5.2942,-5.2976,-5.3281,-5.4634,-5.4735,-5.5716,-5.9066,-5.9438,-6.0013,-6.1907,-6.0858,-5.9877,-5.9877,-5.8693,-5.734,-5.6021,-5.4762,-5.3352,-5.1727,-5.0916,-5.033,-5.0045,-5.0473,-5.0311,-4.947,-4.879,-4.8075,-4.7361,-4.6465,-4.5852,-4.5565,-4.4528,-4.3248,-4.189,-4.2532,-4.2707,-4.256,-4.2634,-4.2917,-4.3358,-4.3299,-4.329,-4.329,-4.329,-4.329,-4.329,-4.329,-4.329,-4.329,-4.329,-4.329,-4.329,-4.329,-4.329,-4.329,-4.329,-4.329,-4.329,-4.329,-4.329,-4.329,-4.329,-4.329,-4.3469,-4.4167,-4.4377,-4.4586,-4.5244,-4.5933,-4.6561,-4.7139,-4.6239,-4.5158,-4.4378,-4.3277,-4.2008,-4.0576,-4.1983,-4.2453,-4.0696,-4.1632,-4.1722,-3.9948,-3.9762,-3.914,-3.7614,-3.917,-4.0427,-4.0905,-4.0098,-3.9828,-4.0277,-4.1773,-4.309,-4.4227,-4.3589,-4.4575,-4.71,-4.5753,-4.5574,-4.6399,-4.698,-4.692,-4.6441,-4.704,-4.7309,-4.7309,-4.7309,-4.7309,-4.7309,-4.7309,-4.7309,-4.7309,-4.7309,-4.7339,-4.7578,-5.5987,-5.5074,-5.4499,-5.5547,-5.619,-5.7205,-5.9167,-6.0351,-6.0969,-6.0738,-6.0337,-5.9945,-5.9505,-5.7901,-5.6525,-5.5525,-5.406,-5.2655,-5.1463,-5.0758,-5.0294,-5.0122,-5.03,-4.9776,-4.8459,-4.7799,-4.6989,-4.608,-4.5129,-4.476,-4.4925,-4.4273,-4.3387,-4.2324,-4.245,-4.2485,-4.241,-4.2791,-4.309,-4.329,-4.329,-4.329,-4.329,-4.329,-4.329,-4.329,-4.329,-4.329,-4.329,-4.329,-4.329,-4.329,-4.329,-4.329,-4.329,-4.329,-4.329,-4.329,-4.329,-4.329,-4.329,-4.329,-4.329,-4.3349,-4.3618,-4.3977,-4.4377,-4.4646,-4.5574,-4.6531,-4.7189,-4.686,-4.6292,-4.5633,-4.5095,-4.4257,-4.294,-4.3419,-4.3479,-4.2342,-4.1953,-4.1773,-4.1735,-4.03,-3.9679,-4.0374,-3.9649,-3.896,-3.8517,-3.9439,-4.0307,-4.0965,-4.2252,-4.3958,-4.6082,-4.5035,-4.5454,-4.7309,-4.677,-4.6651,-4.692,-4.7189,-4.716,-4.692,-4.7189,-4.7309,-4.7309,-4.7309,-4.7309,-4.7309,-4.7309,-4.7309,-4.7309,-4.7309,-4.7549,-4.8027,-5.8389,-5.7476,-5.6731,-5.7273,-5.8389,-5.9167,-5.9032,-6.0757,-6.115,-5.8613,-5.8858,-5.9007,-5.8091,-5.6665,-5.5313,-5.424,-5.2837,-5.1486,-5.0269,-4.975,-4.9418,-4.929,-4.9426,-4.8854,-4.7395,-4.6944,-4.6275,-4.5304,-4.4513,-4.4342,-4.4606,-4.4118,-4.3443,-4.2597,-4.265,-4.2641,-4.2671,-4.315,-4.329,-4.329,-4.329,-4.329,-4.329,-4.329,-4.329,-4.329,-4.329,-4.329,-4.329,-4.329,-4.329,-4.329,-4.329,-4.329,-4.329,-4.329,-4.329,-4.329,-4.329,-4.329,-4.329,-4.329,-4.329,-4.329,-4.329,-4.3648,-4.4137,-4.4526,-4.5364,-4.6292,-4.716,-4.7309,-4.71,-4.6399,-4.6279,-4.5801,-4.4496,-4.4496,-4.4137,-4.294,-4.1773,-4.1384,-4.2064,-4.0337,-3.9768,-4.1422,-3.9768,-3.8392,-3.7674,-3.92,-4.0397,-4.1055,-4.1983,-4.3748,-4.6411,-4.5274,-4.5574,-4.7309,-4.7309,-4.7309,-4.7309,-4.7309,-4.7309,-4.7309,-4.7309,-4.7309,-4.7309,-4.7309,-4.7309,-4.7309,-4.7309,-4.7309,-4.7339,-4.7519,-4.7878,-4.8416,-5.9945,-6.0689,-6.1231,-6.1231,-6.1839,-6.1603,-5.9336,-6.0317,-5.9838,-5.5694,-5.6468,-5.6996,-5.5856,-5.5047,-5.3757,-5.1605,-5.112,-4.9819,-4.7198,-4.7232,-4.7147,-4.6652,-4.711,-4.7023,-4.6322,-4.6322,-4.5992,-4.5304,-4.5274,-4.5082,-4.4569,-4.3994,-4.3234,-4.241,-4.303,-4.329,-4.329,-4.329,-4.329,-4.329,-4.329,-4.329,-4.329,-4.329,-4.329,-4.329,-4.329,-4.329,-4.329,-4.329,-4.329,-4.329,-4.329,-4.329,-4.329,-4.329,-4.329,-4.329,-4.329,-4.329,-4.329,-4.329,-4.329,-4.329,-4.329,-4.329,-4.3678,-4.5005,-4.5304,-4.5723,-4.707,-4.7309,-4.71,-4.6399,-4.6279,-4.5801,-4.4496,-4.4885,-4.4317,-4.1713,-4.0816,-4.0157,-3.9493,-3.8811,-3.8691,-3.9409,-3.9439,-3.9679,-4.0307,-3.9768,-3.9738,-4.0397,-4.0427,-4.1683,-4.4317,-4.3648,-4.4635,-4.7309,-4.7309,-4.7309,-4.7309,-4.7309,-4.7309,-4.7309,-4.7309,-4.7309,-4.7309,-4.7309,-4.7309,-4.7309,-4.7309,-4.7309,-4.7369,-4.8027,-4.8267,-4.8476,-5.7171,-5.893,-6.0148,-5.9167,-6.0013,-6.0588,-5.9877,-5.9538,-5.8481,-5.5871,-5.5272,-5.4273,-5.2164,-5.243,-5.228,-5.1153,-4.9032,-4.76,-4.721,-4.6429,-4.6269,-4.7015,-4.6341,-4.5633,-4.4975,-4.4485,-4.4127,-4.3958,-4.3958,-4.3838,-4.3702,-4.3521,-4.3274,-4.303,-4.32,-4.329,-4.329,-4.329,-4.329,-4.329,-4.329,-4.329,-4.329,-4.329,-4.329,-4.329,-4.329,-4.329,-4.329,-4.329,-4.329,-4.329,-4.329,-4.329,-4.329,-4.329,-4.329,-4.329,-4.329,-4.329,-4.329,-4.329,-4.329,-4.329,-4.329,-4.329,-4.3678,-4.5035,-4.5304,-4.5693,-4.707,-4.7309,-4.71,-4.6399,-4.6711,-4.6681,-4.5813,-4.5454,-4.4825,-4.3539,-4.2402,-4.1833,-4.2034,-4.1085,-4.0696,-4.1422,-4.0995,-4.0666,-4.0397,-4.1055,-4.1923,-4.303,-4.3509,-4.4586,-4.6352,-4.5244,-4.5544,-4.7309,-4.7309,-4.7309,-4.7309,-4.7309,-4.7309,-4.7309,-4.7309,-4.7309,-4.7309,-4.7309,-4.7309,-4.7309,-4.7309,-4.7309,-4.7339,-4.7549,-4.8177,-4.906,-5.7036,-5.866,-5.9708,-5.8524,-5.8968,-5.9242,-5.8332,-5.7773,-5.6487,-5.3809,-5.329,-5.2346,-5.0109,-5.0257,-5.0376,-4.9947,-4.8162,-4.713,-4.7309,-4.6531,-4.6411,-4.7279,-4.6501,-4.5873,-4.5454,-4.5035,-4.4784,-4.4784,-4.4545,-4.4157,-4.3678,-4.3678,-4.3529,-4.329,-4.329,-4.329,-4.329,-4.329,-4.329,-4.329,-4.329,-4.329,-4.329,-4.329,-4.329,-4.329,-4.329,-4.329,-4.329,-4.329,-4.329,-4.329,-4.329,-4.329,-4.329,-4.329,-4.329,-4.329,-4.329,-4.329,-4.329,-4.329,-4.329,-4.329,-4.329,-4.329,-4.3678,-4.5035,-4.5304,-4.5693,-4.707,-4.7309,-4.716,-4.6741,-4.704,-4.716,-4.6741,-4.5873,-4.5035,-4.4377,-4.3189,-4.2611,-4.323,-4.2581,-4.2372,-4.303,-4.2291,-4.1893,-4.2222,-4.2351,-4.277,-4.3569,-4.4227,-4.5185,-4.6531,-4.5723,-4.5963,-4.7309,-4.7309,-4.7309,-4.7309,-4.7309,-4.7309,-4.7309,-4.7309,-4.7309,-4.7309,-4.7309,-4.7309,-4.7309,-4.7309,-4.7309,-4.7339,-4.7578,-4.8356,-4.9329,-5.866,-5.9336,-5.9671,-5.8785,-5.8458,-5.7555,-5.533,-5.5231,-5.4094,-5.0328,-5.0943,-5.1076,-4.9449,-4.8686,-4.8267,-4.8207,-4.8147,-4.7848,-4.7339,-4.7219,-4.7219,-4.7309,-4.7219,-4.716,-4.716,-4.713,-4.713,-4.716,-4.6591,-4.5592,-4.4317,-4.4377,-4.3977,-4.3349,-4.3409,-4.3439,-4.3439,-4.3379,-4.3349,-4.3349,-4.3319,-4.329,-4.329,-4.329,-4.329,-4.329,-4.329,-4.329,-4.329,-4.329,-4.329,-4.329,-4.329,-4.329,-4.329,-4.329,-4.329,-4.329,-4.329,-4.329,-4.329,-4.329,-4.329,-4.329,-4.329,-4.329,-4.3648,-4.4975,-4.5274,-4.5693,-4.701,-4.7279,-4.7279,-4.7249,-4.7279,-4.7249,-4.713,-4.6052,-4.5035,-4.4317,-4.324,-4.283,-4.3379,-4.3499,-4.3798,-4.4347,-4.3299,-4.3459,-4.5214,-4.3638,-4.268,-4.274,-4.3299,-4.4197,-4.5424,-4.5424,-4.6052,-4.7309,-4.7309,-4.7309,-4.7309,-4.7309,-4.7309,-4.7309,-4.7309,-4.7309,-4.7309,-4.7309,-4.7309,-4.7309,-4.7309,-4.7309,-4.7369,-4.7997,-4.8656,-4.9389,-5.504,-5.6765,-5.7763,-5.5576,-5.6029,-5.6132,-5.4261,-5.3281,-5.2473,-5.1506,-5.0506,-4.9764,-4.9374,-4.8686,-4.8087,-4.7578,-4.6591,-4.6381,-4.7249,-4.6352,-4.6232,-4.7249,-4.6322,-4.5753,-4.5753,-4.5274,-4.5274,-4.5753,-4.6142,-4.5592,-4.4317,-4.4825,-4.4706,-4.4107,-4.4616,-4.4825,-4.4796,-4.4287,-4.4077,-4.4047,-4.3499,-4.329,-4.329,-4.329,-4.329,-4.329,-4.329,-4.329,-4.329,-4.329,-4.329,-4.329,-4.329,-4.329,-4.329,-4.329,-4.329,-4.329,-4.329,-4.329,-4.329,-4.329,-4.329,-4.329,-4.329,-4.329,-4.3529,-4.4377,-4.4945,-4.5544,-4.6381,-4.695,-4.713,-4.6651,-4.698,-4.677,-4.5244,-4.5185,-4.4855,-4.3678,-4.4167,-4.4646,-4.4825,-4.5753,-4.5992,-4.5125,-4.5274,-4.5364,-4.5304,-4.5364,-4.5603,-4.6112,-4.6292,-4.6531,-4.683,-4.683,-4.698,-4.7309,-4.7309,-4.7309,-4.7309,-4.7309,-4.7309,-4.7309,-4.7309,-4.7309,-4.7309,-4.7309,-4.7309,-4.7309,-4.7309,-4.7309,-4.7339,-4.7489,-4.8267,-4.9329,-5.5683,-5.6371,-5.6658,-5.5259,-5.4817,-5.4291,-5.3007,-5.1834,-5.1025,-5.075,-4.9883,-4.9209,-4.891,-4.8506,-4.8027,-4.7369,-4.6621,-4.6531,-4.7249,-4.6621,-4.6531,-4.7279,-4.6591,-4.6202,-4.6202,-4.5873,-4.5873,-4.6202,-4.6591,-4.6232,-4.5244,-4.5603,-4.5394,-4.4766,-4.5125,-4.5304,-4.5274,-4.4915,-4.4766,-4.4736,-4.4377,-4.4047,-4.3768,-4.4107,-4.3828,-4.3319,-4.3648,-4.3559,-4.3349,-4.3648,-4.3738,-4.3798,-4.4137,-4.4018,-4.3838,-4.4137,-4.3768,-4.329,-4.329,-4.329,-4.329,-4.329,-4.329,-4.329,-4.329,-4.329,-4.3559,-4.4556,-4.5035,-4.5603,-4.6591,-4.707,-4.71,-4.6399,-4.6352,-4.5903,-4.4496,-4.4377,-4.4377,-4.4257,-4.4855,-4.5544,-4.6142,-4.689,-4.701,-4.6262,-4.6292,-4.6292,-4.6232,-4.6292,-4.6621,-4.7279,-4.7309,-4.7309,-4.7309,-4.7309,-4.7309,-4.7309,-4.7309,-4.7309,-4.7309,-4.7309,-4.7309,-4.7309,-4.7309,-4.7309,-4.7309,-4.7309,-4.7309,-4.7309,-4.7309,-4.7309,-4.7309,-4.7309,-4.7938,-4.891,-5.7665,-5.6854,-5.6087,-5.5738,-5.4137,-5.2639,-5.1783,-5.0819,-4.9986,-4.9494,-4.9299,-4.9,-4.8476,-4.8267,-4.7908,-4.7369,-4.7309,-4.7309,-4.7309,-4.7309,-4.7309,-4.7309,-4.7309,-4.7309,-4.7309,-4.7309,-4.7309,-4.7309,-4.7309,-4.698,-4.6279,-4.6369,-4.6112,-4.5454,-4.5544,-4.5603,-4.5603,-4.5484,-4.5454,-4.5454,-4.5334,-4.4975,-4.4526,-4.5095,-4.4586,-4.3678,-4.4257,-4.4107,-4.3678,-4.4287,-4.4466,-4.4556,-4.5125,-4.4915,-4.4556,-4.5125,-4.4496,-4.3559,-4.3469,-4.3439,-4.3439,-4.3439,-4.3529,-4.3589,-4.3589,-4.3589,-4.3917,-4.5065,-4.5364,-4.5813,-4.695,-4.7249,-4.707,-4.6249,-4.5663,-4.5005,-4.4137,-4.3808,-4.4047,-4.5035,-4.5424,-4.6052,-4.7189,-4.7309,-4.7309,-4.7309,-4.68,-4.6711,-4.7279,-4.677,-4.6741,-4.7279,-4.7309,-4.7309,-4.7309,-4.7309,-4.7309,-4.7309,-4.7309,-4.7309,-4.7309,-4.7309,-4.7309,-4.7309,-4.7309,-4.7309,-4.7309,-4.7309,-4.7309,-4.7309,-4.7309,-4.7369,-4.7459,-4.7459,-4.7938,-4.8656,-5.6663,-5.6321,-5.5618,-5.3742,-5.3121,-5.2329,-5.0713,-5.0304,-5.0166,-5.0046,-4.9134,-4.8626,-4.912,-4.8117,-4.7429,-4.7309,-4.7309,-4.7309,-4.7309,-4.7309,-4.7309,-4.7309,-4.7309,-4.7309,-4.7309,-4.7309,-4.7309,-4.7309,-4.7309,-4.698,-4.6279,-4.689,-4.68,-4.6202,-4.6741,-4.701,-4.695,-4.6411,-4.613,-4.6112,-4.5544,-4.5244,-4.5155,-4.5244,-4.5155,-4.5005,-4.5095,-4.5065,-4.5005,-4.5095,-4.5155,-4.5155,-4.5274,-4.5214,-4.5155,-4.5274,-4.5155,-4.4855,-4.4317,-4.4127,-4.4127,-4.4127,-4.4586,-4.4975,-4.4975,-4.4975,-4.5035,-4.5244,-4.5753,-4.6232,-4.6441,-4.692,-4.689,-4.5663,-4.5364,-4.4676,-4.295,-4.4018,-4.4855,-4.4496,-4.5963,-4.707,-4.7279,-4.7309,-4.7309,-4.7309,-4.7219,-4.7189,-4.7309,-4.7219,-4.7189,-4.7309,-4.7309,-4.7309,-4.7309,-4.7309,-4.7309,-4.7309,-4.7309,-4.7309,-4.7309,-4.7309,-4.7309,-4.7309,-4.7309,-4.7309,-4.7309,-4.7309,-4.7309,-4.7309,-4.7309,-4.7638,-4.8147,-4.8147,-4.8895,-4.9897,-5.6398,-5.5698,-5.4806,-5.3209,-5.2395,-5.1577,-5.0377,-5.0196,-5.0196,-5.0196,-4.9404,-4.897,-4.9269,-4.8416,-4.7698,-4.7339,-4.7309,-4.7309,-4.7309,-4.7309,-4.7309,-4.7309,-4.7309,-4.7309,-4.7309,-4.7309,-4.7309,-4.7309,-4.7309,-4.716,-4.686,-4.716,-4.713,-4.686,-4.716,-4.7309,-4.7279,-4.698,-4.686,-4.683,-4.6501,-4.6172,-4.5903,-4.6232,-4.5933,-4.5334,-4.5723,-4.5603,-4.5364,-4.5723,-4.5843,-4.5903,-4.6262,-4.6142,-4.5933,-4.6262,-4.5873,-4.5214,-4.4915,-4.4855,-4.4855,-4.4855,-4.5065,-4.5304,-4.5304,-4.5304,-4.5394,-4.5783,-4.607,-4.6399,-4.68,-4.71,-4.698,-4.6022,-4.5244,-4.4317,-4.306,-4.3958,-4.4646,-4.4347,-4.6082,-4.7309,-4.7309,-4.7309,-4.7309,-4.7309,-4.7309,-4.7309,-4.7309,-4.7309,-4.7309,-4.7309,-4.7309,-4.7309,-4.7309,-4.7309,-4.7309,-4.7309,-4.7309,-4.7309,-4.7309,-4.7309,-4.7309,-4.7309,-4.7309,-4.7309,-4.7309,-4.7309,-4.7309,-4.7309,-4.7309,-4.7698,-4.8297,-4.8297,-4.8895,-4.9763,-5.6087,-5.5166,-5.4168,-5.2723,-5.1773,-5.105,-5.0495,-5.0435,-5.0435,-5.0435,-4.9883,-4.9494,-4.9494,-4.8895,-4.8237,-4.7578,-4.7549,-4.7459,-4.7309,-4.7309,-4.7309,-4.7309,-4.7309,-4.7309,-4.7309,-4.7309,-4.7309,-4.7309,-4.7309,-4.7309,-4.7309,-4.7309,-4.7309,-4.7309,-4.7309,-4.7309,-4.7309,-4.7309,-4.7309,-4.7309,-4.7309,-4.701,-4.6621,-4.71,-4.6651,-4.5843,-4.6352,-4.6202,-4.5843,-4.6381,-4.6518,-4.6651,-4.716,-4.695,-4.6651,-4.716,-4.6561,-4.5693,-4.5364,-4.5394,-4.5544,-4.5544,-4.5633,-4.5753,-4.5753,-4.5753,-4.5903,-4.6441,-4.6518,-4.6711,-4.7219,-4.7309,-4.704,-4.6202,-4.5095,-4.4137,-4.3589,-4.3988,-4.4436,-4.4736,-4.6292,-4.7309,-4.7309,-4.7309,-4.7309,-4.7309,-4.7309,-4.7309,-4.7309,-4.7309,-4.7309,-4.7309,-4.7309,-4.7309,-4.7309,-4.7309,-4.7309,-4.7309,-4.7309,-4.7309,-4.7309,-4.7309,-4.7309,-4.7309,-4.7309,-4.7309,-4.7309,-4.7309,-4.7309,-4.7309,-4.7309,-4.7698,-4.8297,-4.8446,-4.8925,-4.9583,-5.5166,-5.4672,-5.3913,-5.1727,-5.1276,-5.1199,-5.1139,-5.1139,-5.1139,-5.1139,-5.0524,-5.0106,-5.0106,-4.9583,-4.897,-4.8267,-4.8207,-4.7967,-4.7339,-4.7309,-4.7309,-4.7309,-4.7309,-4.7309,-4.7309,-4.7309,-4.7309,-4.7309,-4.7309,-4.7309,-4.7309,-4.7309,-4.7309,-4.7309,-4.7309,-4.7309,-4.7309,-4.7309,-4.7309,-4.7309,-4.7309,-4.7279,-4.7249,-4.7279,-4.7249,-4.716,-4.7219,-4.7189,-4.716,-4.7219,-4.7249,-4.7249,-4.7279,-4.7279,-4.7249,-4.7309,-4.7249,-4.689,-4.5633,-4.5753,-4.6262,-4.6262,-4.6711,-4.716,-4.716,-4.716,-4.7189,-4.7219,-4.7249,-4.7249,-4.7309,-4.7309,-4.689,-4.5574,-4.4766,-4.4287,-4.4257,-4.4287,-4.4766,-4.598,-4.683,-4.7309,-4.7309,-4.7309,-4.7309,-4.7309,-4.7309,-4.7309,-4.7309,-4.7309,-4.7309,-4.7309,-4.7309,-4.7309,-4.7309,-4.7309,-4.7309,-4.7309,-4.7309,-4.7309,-4.7309,-4.7309,-4.7309,-4.7309,-4.7309,-4.7309,-4.7309,-4.7309,-4.7309,-4.7309,-4.7309,-4.7698,-4.8356,-4.903,-4.9613,-5.0226,-5.3871,-5.3526,-5.3033,-5.1479,-5.1229,-5.1229,-5.1229,-5.1229,-5.1229,-5.1229,-5.0614,-5.0196,-5.0196,-4.9643,-4.9209,-4.897,-4.8506,-4.8177,-4.7938,-4.7519,-4.7309,-4.7309,-4.7309,-4.7309,-4.7309,-4.7309,-4.7309,-4.7309,-4.7309,-4.7309,-4.7309,-4.7309,-4.7309,-4.7309,-4.7309,-4.7309,-4.7309,-4.7309,-4.7309,-4.7309,-4.7309,-4.7309,-4.7309,-4.7309,-4.7309,-4.7309,-4.7309,-4.7309,-4.7309,-4.7309,-4.7309,-4.7309,-4.7309,-4.7309,-4.7309,-4.7309,-4.7309,-4.7189,-4.6681,-4.6741,-4.692,-4.692,-4.713,-4.7309,-4.7309,-4.7309,-4.7309,-4.7309,-4.7309,-4.7309,-4.7309,-4.7309,-4.713,-4.6621,-4.5992,-4.5544,-4.5544,-4.5544,-4.5753,-4.6219,-4.689,-4.7309,-4.7309,-4.7309,-4.7309,-4.7309,-4.7309,-4.7309,-4.7309,-4.7309,-4.7309,-4.7309,-4.7309,-4.7309,-4.7309,-4.7309,-4.7309,-4.7309,-4.7309,-4.7309,-4.7309,-4.7309,-4.7309,-4.7339,-4.7728,-4.7668,-4.7339,-4.7758,-4.7668,-4.7309,-4.7309,-4.7698,-4.8356,-4.906,-4.9673,-5.0285,-5.3121,-5.29,-5.253,-5.1386,-5.1229,-5.1229,-5.1229,-5.1229,-5.1229,-5.1229,-5.0794,-5.0495,-5.0495,-5.0152,-4.9793,-4.9583,-4.8985,-4.8506,-4.8297,-4.7668,-4.7309,-4.7309,-4.7309,-4.7309,-4.7309,-4.7309,-4.7309,-4.7309,-4.7309,-4.7309,-4.7309,-4.7309,-4.7309,-4.7309,-4.7309,-4.7309,-4.7309,-4.7309,-4.7309,-4.7309,-4.7309,-4.7309,-4.7309,-4.7309,-4.7309,-4.7309,-4.7309,-4.7309,-4.7309,-4.7309,-4.7309,-4.7309,-4.7309,-4.7309,-4.7309,-4.7309,-4.7309,-4.7309,-4.7309,-4.7309,-4.7309,-4.7309,-4.7309,-4.7309,-4.7309,-4.7309,-4.7309,-4.7309,-4.7309,-4.7309,-4.7309,-4.7309,-4.7249,-4.704,-4.6621,-4.6279,-4.6279,-4.6279,-4.6411,-4.6621,-4.704,-4.7309,-4.7309,-4.7309,-4.7309,-4.7309,-4.7309,-4.7309,-4.7309,-4.7309,-4.7309,-4.7309,-4.7309,-4.7309,-4.7309,-4.7309,-4.7309,-4.7309,-4.7309,-4.7309,-4.7309,-4.7309,-4.7309,-4.7339,-4.7997,-4.7908,-4.7369,-4.8027,-4.7908,-4.7309,-4.7309,-4.7578,-4.8087,-4.9,-4.9553,-5.0062,-5.3121,-5.29,-5.253,-5.1386,-5.1229,-5.1229,-5.1229,-5.1229,-5.1229,-5.1229,-5.1229,-5.1229,-5.1229,-5.1229,-5.096,-5.0255,-4.9643,-4.903,-4.8327,-4.7668,-4.7309,-4.7309,-4.7309,-4.7309,-4.7309,-4.7309,-4.7309,-4.7309,-4.7309,-4.7309,-4.7309,-4.7309,-4.7309,-4.7309,-4.7309,-4.7309,-4.7309,-4.7309,-4.7309,-4.7309,-4.7309,-4.7309,-4.7309,-4.7309,-4.7309,-4.7309,-4.7309,-4.7309,-4.7309,-4.7309,-4.7309,-4.7309,-4.7309,-4.7309,-4.7309,-4.7309,-4.7309,-4.7309,-4.7309,-4.7309,-4.7309,-4.7309,-4.7309,-4.7309,-4.7309,-4.7309,-4.7309,-4.7309,-4.7309,-4.7309,-4.7309,-4.7309,-4.71,-4.6399,-4.6279,-4.6279,-4.6279,-4.6279,-4.6561,-4.7219,-4.7309,-4.7309,-4.7309,-4.7309,-4.7309,-4.7309,-4.7309,-4.7309,-4.7309,-4.7309,-4.7309,-4.7309,-4.7309,-4.7309,-4.7309,-4.7309,-4.7309,-4.7309,-4.7309,-4.7309,-4.7309,-4.7309,-4.7309,-4.7369,-4.7997,-4.7908,-4.7369,-4.8027,-4.7908,-4.7309,-4.7309,-4.7309,-4.7489,-4.882,-4.9299,-4.9509,-5.1773,-5.1727,-5.1588,-5.1276,-5.1229,-5.1229,-5.1229,-5.1229,-5.1229,-5.1229,-5.1229,-5.1229,-5.1229,-5.1229,-5.096,-5.0255,-4.9643,-4.885,-4.7668,-4.7429,-4.7309,-4.7309,-4.7309,-4.7309,-4.7309,-4.7309,-4.7309,-4.7309,-4.7309,-4.7309,-4.7309,-4.7309,-4.7309,-4.7309,-4.7309,-4.7309,-4.7309,-4.7309,-4.7309,-4.7309,-4.7309,-4.7309,-4.7309,-4.7309,-4.7309,-4.7309,-4.7309,-4.7309,-4.7309,-4.7309,-4.7309,-4.7309,-4.7309,-4.7309,-4.7309,-4.7309,-4.7309,-4.7309,-4.7309,-4.7309,-4.7309,-4.7309,-4.7309,-4.7309,-4.7309,-4.7309,-4.7429,-4.7908,-4.7997,-4.8147,-4.864,-4.8297,-4.7938,-4.7728,-4.7309,-4.701,-4.701,-4.701,-4.71,-4.7279,-4.7309,-4.7309,-4.7309,-4.7309,-4.7309,-4.7309,-4.7309,-4.7309,-4.7309,-4.7309,-4.7309,-4.7309,-4.7309,-4.7309,-4.7309,-4.7309,-4.7309,-4.7309,-4.7309,-4.7309,-4.7309,-4.7309,-4.7549,-4.8027,-4.8686,-4.8596,-4.8087,-4.9194,-4.9015,-4.8027,-4.8506,-4.8386,-4.8147,-4.9464,-4.9643,-4.9509,-5.1229,-5.1229,-5.1229,-5.1229,-5.1229,-5.1229,-5.1229,-5.1229,-5.1229,-5.1229,-5.1229,-5.1229,-5.1229,-5.1229,-5.105,-5.0614,-4.9793,-4.885,-4.7758,-4.7459,-4.7309,-4.7309,-4.7549,-4.7578,-4.7309,-4.7309,-4.7309,-4.7309,-4.7309,-4.7309,-4.7309,-4.7309,-4.7309,-4.7309,-4.7309,-4.7309,-4.7309,-4.7309,-4.7309,-4.7309,-4.7309,-4.7309,-4.7309,-4.7309,-4.7309,-4.7309,-4.7309,-4.7309,-4.7309,-4.7309,-4.7309,-4.7309,-4.7309,-4.7309,-4.7309,-4.7309,-4.7309,-4.7309,-4.7309,-4.7309,-4.7309,-4.7309,-4.7309,-4.7309,-4.7309,-4.7519,-4.7818,-4.8207,-4.8506,-4.876,-4.891,-4.8566,-4.8207,-4.7938,-4.7549,-4.7309,-4.7309,-4.7309,-4.7309,-4.7309,-4.7309,-4.7309,-4.7309,-4.7309,-4.7309,-4.7309,-4.7309,-4.7309,-4.7309,-4.7309,-4.7309,-4.7309,-4.7309,-4.7309,-4.7309,-4.7309,-4.7309,-4.7309,-4.7309,-4.7309,-4.7309,-4.7309,-4.7668,-4.8297,-4.876,-4.8805,-4.8716,-4.9254,-4.9164,-4.8656,-4.8536,-4.8416,-4.8386,-4.9164,-4.9374,-4.9449,-5.1229,-5.1229,-5.1229,-5.1229,-5.1229,-5.1229,-5.1229,-5.1229,-5.1229,-5.1229,-5.1229,-5.1229,-5.1229,-5.1229,-5.1199,-5.1139,-5.0002,-4.906,-4.8416,-4.7818,-4.7489,-4.7489,-4.8057,-4.8057,-4.7399,-4.7399,-4.7369,-4.7309,-4.7309,-4.7309,-4.7309,-4.7309,-4.7309,-4.7309,-4.7309,-4.7309,-4.7309,-4.7309,-4.7309,-4.7309,-4.7309,-4.7309,-4.7309,-4.7309,-4.7309,-4.7309,-4.7309,-4.7309,-4.7309,-4.7309,-4.7309,-4.7309,-4.7309,-4.7309,-4.7309,-4.7309,-4.7309,-4.7309,-4.7309,-4.7309,-4.7309,-4.7309,-4.7309,-4.7309,-4.7309,-4.7818,-4.8297,-4.8356,-4.891,-4.9149,-4.8566,-4.8356,-4.8087,-4.7489,-4.7339,-4.7309,-4.7309,-4.7309,-4.7309,-4.7309,-4.7309,-4.7309,-4.7309,-4.7309,-4.7309,-4.7309,-4.7309,-4.7309,-4.7309,-4.7309,-4.7309,-4.7309,-4.7309,-4.7309,-4.7309,-4.7309,-4.7309,-4.7309,-4.7369,-4.7399,-4.7399,-4.7399,-4.7758,-4.8386,-4.8327,-4.8626,-4.9179,-4.864,-4.876,-4.9179,-4.7938,-4.7848,-4.8386,-4.8386,-4.879,-4.9419,-5.1229,-5.1229,-5.1229,-5.1229,-5.1229,-5.1229,-5.1229,-5.1229,-5.1229,-5.1229,-5.1229,-5.1229,-5.1229,-5.1229,-5.102,-5.0435,-4.9733,-4.9239,-4.912,-4.897,-4.888,-4.888,-4.903,-4.8745,-4.8087,-4.8087,-4.7818,-4.7309,-4.7309,-4.7309,-4.7309,-4.7309,-4.7309,-4.7309,-4.7309,-4.7309,-4.7309,-4.7309,-4.7309,-4.7309,-4.7309,-4.7309,-4.7309,-4.7309,-4.7309,-4.7309,-4.7309,-4.7309,-4.7309,-4.7309,-4.7309,-4.7309,-4.7309,-4.7309,-4.7309,-4.7309,-4.7309,-4.7309,-4.7309,-4.7309,-4.7309,-4.7309,-4.7309,-4.7309,-4.7309,-4.7818,-4.8446,-4.9,-4.9209,-4.9374,-4.9763,-4.8985,-4.8237,-4.8087,-4.7638,-4.7309,-4.7309,-4.7309,-4.7309,-4.7309,-4.7309,-4.7309,-4.7309,-4.7309,-4.7309,-4.7309,-4.7309,-4.7309,-4.7309,-4.7309,-4.7309,-4.7309,-4.7309,-4.7309,-4.7309,-4.7309,-4.7309,-4.7309,-4.7818,-4.8087,-4.8087,-4.8087,-4.8446,-4.906,-4.8506,-4.8356,-4.8536,-4.894,-4.9179,-4.9269,-4.9,-4.897,-4.909,-4.909,-4.9179,-4.9479,-5.1229,-5.1229,-5.1229,-5.1229,-5.1229,-5.1229,-5.1229,-5.1229,-5.1229,-5.1229,-5.1229,-5.1229,-5.1229,-5.1229,-5.1079,-5.0704,-5.0122,-4.9733,-4.9733,-4.9434,-4.9299,-4.9299,-4.9583,-4.9434,-4.882,-4.9045,-4.8596,-4.7309,-4.7309,-4.7309,-4.7309,-4.7309,-4.7309,-4.7309,-4.7309,-4.7309,-4.7309,-4.7309,-4.7309,-4.7309,-4.7309,-4.7309,-4.7309,-4.7309,-4.7309,-4.7309,-4.7309,-4.7309,-4.7309,-4.7309,-4.7309,-4.7309,-4.7309,-4.7309,-4.7309,-4.7309,-4.7309,-4.7309,-4.7309,-4.7309,-4.7309,-4.7309,-4.7309,-4.7309,-4.7309,-4.7818,-4.8386,-4.876,-4.909,-4.9329,-4.9314,-4.8745,-4.8177,-4.7878,-4.7519,-4.7309,-4.7309,-4.7309,-4.7309,-4.7309,-4.7309,-4.7309,-4.7309,-4.7309,-4.7309,-4.7309,-4.7309,-4.7309,-4.7309,-4.7309,-4.7309,-4.7309,-4.7309,-4.7309,-4.7309,-4.7608,-4.7608,-4.7309,-4.7967,-4.8446,-4.879,-4.8446,-4.8805,-4.9673,-4.8716,-4.8626,-4.9194,-4.8925,-4.903,-4.9269,-4.897,-4.8805,-4.8805,-4.8805,-4.906,-4.9509,-5.1229,-5.1229,-5.1229,-5.1229,-5.1229,-5.1229,-5.1229,-5.1229,-5.1229,-5.1229,-5.1229,-5.1229,-5.1229,-5.1229,-5.1229,-5.1229,-5.0674,-5.0375,-5.0375,-4.9912,-4.9629,-4.9629,-5.0122,-5.0092,-4.9464,-4.9942,-4.9269,-4.7489,-4.7489,-4.7429,-4.7309,-4.7309,-4.7309,-4.7309,-4.7309,-4.7309,-4.7309,-4.7309,-4.7309,-4.7309,-4.7309,-4.7309,-4.7309,-4.7309,-4.7309,-4.7309,-4.7309,-4.7309,-4.7309,-4.7309,-4.7309,-4.7309,-4.7309,-4.7309,-4.7309,-4.7309,-4.7309,-4.7309,-4.7309,-4.7309,-4.7309,-4.7309,-4.7309,-4.7309,-4.7309,-4.7908,-4.8416,-4.8297,-4.8805,-4.912,-4.8416,-4.8207,-4.7938,-4.7399,-4.7309,-4.7309,-4.7309,-4.7309,-4.7309,-4.7309,-4.7309,-4.7309,-4.7309,-4.7309,-4.7309,-4.7309,-4.7309,-4.7309,-4.7309,-4.7309,-4.7309,-4.7309,-4.7309,-4.7309,-4.7309,-4.7848,-4.7967,-4.7638,-4.8207,-4.8745,-4.9299,-4.8686,-4.9045,-5.0002,-4.8925,-4.9015,-4.9777,-4.8745,-4.8686,-4.9239,-4.8416,-4.8267,-4.8446,-4.8446,-4.8805,-4.9479,-5.1229,-5.1229,-5.1229,-5.1229,-5.1229,-5.1229,-5.1229,-5.1229,-5.1229,-5.1229,-5.1229,-5.1229,-5.1229,-5.1229,-5.1229,-5.1229,-5.1139,-5.1079,-5.1079,-5.102,-5.096,-5.096,-5.105,-5.0734,-5.0076,-5.0136,-4.9508,-4.8147,-4.8147,-4.7848,-4.7309,-4.7309,-4.7309,-4.7309,-4.7309,-4.7309,-4.7309,-4.7309,-4.7309,-4.7309,-4.7309,-4.7309,-4.7309,-4.7309,-4.7309,-4.7309,-4.7309,-4.7309,-4.7309,-4.7309,-4.7309,-4.7309,-4.7309,-4.7309,-4.7309,-4.7309,-4.7309,-4.7309,-4.7309,-4.7309,-4.7309,-4.7309,-4.7309,-4.7309,-4.7309,-4.8267,-4.903,-4.8416,-4.8805,-4.912,-4.8416,-4.7818,-4.7399,-4.7309,-4.7309,-4.7309,-4.7309,-4.7309,-4.7309,-4.7309,-4.7309,-4.7309,-4.7309,-4.7309,-4.7309,-4.7309,-4.7309,-4.7309,-4.7309,-4.7309,-4.7309,-4.7309,-4.7309,-4.7309,-4.7309,-4.7399,-4.7967,-4.906,-4.9149,-4.9209,-4.9299,-4.9209,-4.9269,-4.9419,-4.9269,-4.8925,-4.8536,-4.8356,-4.8686,-4.9179,-4.7908,-4.8147,-4.9179,-4.9179,-4.9239,-4.9419,-5.1229,-5.1229,-5.1229,-5.1229,-5.1528,-5.1648,-5.1289,-5.1528,-5.1618,-5.1259,-5.1229,-5.1229,-5.1229,-5.1229,-5.1229,-5.1229,-5.1229,-5.1229,-5.1229,-5.1229,-5.1229,-5.1229,-5.1229,-5.1079,-5.0734,-5.0734,-5.0152,-4.888,-4.8476,-4.8147,-4.7848,-4.7489,-4.7309,-4.7309,-4.7309,-4.7309,-4.7309,-4.7309,-4.7309,-4.7309,-4.7309,-4.7309,-4.7309,-4.7309,-4.7309,-4.7309,-4.7309,-4.7309,-4.7309,-4.7309,-4.7309,-4.7309,-4.7309,-4.7309,-4.7309,-4.7309,-4.7309,-4.7309,-4.7309,-4.7309,-4.7309,-4.7309,-4.7309,-4.7309,-4.7309,-4.8027,-4.8536,-4.7878,-4.7967,-4.8087,-4.7788,-4.7489,-4.7309,-4.7309,-4.7309,-4.7309,-4.7309,-4.7309,-4.7309,-4.7309,-4.7309,-4.7309,-4.7309,-4.7309,-4.7309,-4.7309,-4.7309,-4.7309,-4.7309,-4.7668,-4.7698,-4.7309,-4.7668,-4.7848,-4.7848,-4.8207,-4.8686,-4.9299,-4.9643,-5.0002,-5.0331,-4.9972,-4.9793,-4.9793,-4.9793,-4.9434,-4.8865,-4.9224,-4.9105,-4.8686,-4.8476,-4.879,-4.9299,-4.9299,-4.9494,-4.9791]},{"header":{"parameterUnit":"m.s-1","parameterCategory":1,"la1":30.6,"la2":28.766,"lo1":-90.7593,"lo2":-88.6598,"dy":0.0162,"dx":0.0183,"nx":116,"ny":114,"refTime":"2024-04-27T12:00:00:Z","depth":0,"parameterNumber":3,"parameterNumberName":"V-component_of_WINDS"},"data":[0.0,0.0,0.0,0.0,0.0,0.0,0.0,0.0,0.0,0.0,0.0,0.0,0.0,0.0,0.0,0.0,0.0,0.0,0.0,0.0,0.0,0.0,0.0,0.0,0.0,0.0,0.0,0.0,0.0,0.0,0.0,0.0,0.0,0.0,0.0,0.0,0.0,0.0,0.0,0.0,0.0,0.0,0.0,0.0,0.0,0.0,0.0,0.0,0.0,0.0,0.0,0.0,0.0,0.0,0.0,0.0,0.0,0.0,0.0,0.0,0.0,0.0,0.0,0.0,0.0,0.0,0.0,0.0,0.0,0.0,0.0,0.0,0.0,0.0,0.0,0.0,0.0,0.0,0.0,0.0,0.0,0.0,0.0,0.0,0.0,0.0,0.0,0.0,0.0,0.0,0.0,0.0,0.0,0.0,0.0,0.0,0.0,0.0,0.0,0.0,0.0,0.0,0.0,0.0,0.0,0.0,0.0,0.0,0.0,0.0,0.0,0.0,0.0,0.0,0.0,0.0,0.0,0.0,0.0,0.0,0.0,0.0,0.0,0.0,0.0,0.0,0.0,0.0,0.0,0.0,0.0,0.0,0.0,0.0,0.0,0.0,0.0,0.0,0.0,0.0,0.0,0.0,0.0,0.0,0.0,0.0,0.0,0.0,0.0,0.0,0.0,0.0,0.0,0.0,0.0,0.0,0.0,0.0,0.0,0.0,0.0,0.0,0.0,0.0,0.0,0.0,0.0,0.0,0.0,0.0,0.0,0.0,0.0,0.0,0.0,0.0,0.0,0.0,0.0,0.0,0.0,0.0,0.0,0.0,0.0,0.0,0.0,0.0,0.0,0.0,0.0,0.0,0.0,0.0,0.0,0.0,0.0,0.0,0.0,0.0,0.0,0.0,0.0,0.0,0.0,0.0,0.0,0.0,0.0,0.0,0.0,0.0,0.0,0.0,0.0,0.0,0.0,0.0,0.0,0.0,0.0,0.0,0.0,0.0,0.0,0.0,0.0,0.0,0.0,0.0,0.0,0.0,0.0,0.0,0.0,0.0,0.0,0.0,0.0,0.0,0.0,0.0,0.0,0.0,0.0,0.0,0.0,0.0,0.0,0.0,0.0,0.0,0.0,0.0,0.0,0.0,0.0,0.0,0.0,0.0,0.0,0.0,0.0,0.0,0.0,0.0,0.0,0.0,0.0,0.0,0.0,0.0,0.0,0.0,0.0,0.0,0.0,0.0,0.0,0.0,0.0,0.0,0.0,0.0,0.0,0.0,0.0,0.0,0.0,0.0,0.0,0.0,0.0,0.0,0.0,0.0,0.0,0.0,0.0,0.0,0.0,0.0,0.0,0.0,0.0,0.0,0.0,0.0,0.0,0.0,0.0,0.0,0.0,0.0,0.0,0.0,0.0,0.0,0.0,0.0,0.0,0.0,0.0,0.0,0.0,0.0,0.0,0.0,0.0,0.0,0.0,0.0,0.0,0.0,0.0,0.0,0.0,0.0,0.0,0.0,0.0,0.0,0.0,0.0,0.0,0.0,0.0,0.0,0.0,0.0,0.0,0.0,0.0,0.0,0.0,0.0,0.0,0.0,0.0,0.0,0.0,0.0,0.0,0.0,0.0,0.0,0.0,0.0,0.0,0.0,0.0,0.0,0.0,0.0,0.0,0.0,0.0,0.0,0.0,0.0,0.0,0.0,0.0,0.0,0.0,0.0,0.0,0.0,0.0,0.0,0.0,0.0,0.0,0.0,0.0,0.0,0.0,0.0,0.0,0.0,0.0,0.0,0.0,0.0,0.0,0.0,0.0,0.0,0.0,0.0,0.0,0.0,0.0,0.0,0.0,0.0,0.0,0.0,0.0,0.0,0.0,0.0,0.0,0.0,0.0,0.0,0.0,0.0,0.0,0.0,0.0,0.0,0.0,0.0,0.0,0.0,0.0,0.0,0.0,0.0,0.0,0.0,0.0,0.0,0.0,0.0,0.0,0.0,0.0,0.0,0.0,0.0,0.0,0.0,0.0,0.0,0.0,0.0,0.0,0.0,0.0,0.0,0.0,0.0,0.0,0.0,0.0,0.0,0.0,0.0,0.0,0.0,0.0,0.0,0.0,0.0,0.0,0.0,0.0,0.0,0.0,0.0,0.0,0.0,0.0,0.0,0.0,0.0,0.0,0.0,0.0,0.0,0.0,0.0,0.0,0.0,0.0,0.0,0.0,0.0,0.0,0.0,0.0,0.0,0.0,0.0,0.0,0.0,0.0,0.0,0.0,0.0,0.0,0.0,0.0,0.0,0.0,0.0,0.0,0.0,0.0,0.0,0.0,0.0,0.0,0.0,0.0,0.0,0.0,0.0,0.0,0.0,0.0,0.0,0.0,0.0,0.0,0.0,0.0,0.0,0.0,0.0,0.0,0.0,0.0,0.0,0.0,0.0,0.0,0.0,0.0,0.0,0.0,0.0,0.0,0.0,0.0,0.0,0.0,0.0,0.0,0.0,0.0,0.0,0.0,0.0,0.0,0.0,0.0,0.0,0.0,0.0,0.0,0.0,0.0,0.0,0.0,0.0,0.0,0.0,0.0,0.0,0.0,0.0,0.0,0.0,0.0,0.0,0.0,0.0,0.0,0.0,0.0,0.0,0.0,0.0,0.0,0.0,0.0,0.0,0.0,0.0,0.0,0.0,0.0,0.0,0.0,0.0,0.0,0.0,0.0,0.0,0.0,0.0,0.0,0.0,0.0,0.0,0.0,0.0,0.0,0.0,0.0,0.0,0.0,0.0,0.0,0.0,0.0,0.0,0.0,0.0,0.0,0.0,0.0,0.0,0.0,0.0,0.0,0.0,0.0,0.0,0.0,0.0,0.0,0.0,0.0,0.0,0.0,0.0,0.0,0.0,0.0,0.0,0.0,0.0,0.0,0.0,0.0,0.0,0.0,0.0,0.0,0.0,0.0,0.0,0.0,0.0,0.0,0.0,0.0,0.0,0.0,0.0,0.0,0.0,0.0,0.0,0.0,0.0,0.0,0.0,0.0,0.0,0.0,0.0,0.0,0.0,0.0,0.0,0.0,0.0,0.0,0.0,0.0,0.0,0.0,0.0,0.0,0.0,0.0,0.0,0.0,0.0,0.0,0.0,0.0,0.0,0.0,0.0,0.0,0.0,0.0,0.0,0.0,0.0,0.0,0.0,0.0,0.0,0.0,0.0,0.0,0.0,0.0,0.0,0.0,0.0,0.0,0.0,0.0,0.0,0.0,0.0,0.0,0.0,0.0,0.0,0.0,0.0,0.0,0.0,0.0,0.0,0.0,0.0,0.0,0.0,0.0,0.0,0.0,0.0,0.0,0.0,0.0,0.0,0.0,0.0,0.0,0.0,0.0,0.0,0.0,0.0,0.0,0.0,0.0,0.0,0.0,0.0,0.0,0.0,0.0,0.0,0.0,0.0,0.0,0.0,0.0,0.0,0.0,0.0,0.0,0.0,0.0,0.0,0.0,0.0,0.0,0.0,0.0,0.0,0.0,0.0,0.0,0.0,0.0,0.0,0.0,0.0,0.0,0.0,0.0,0.0,0.0,0.0,0.0,0.0,0.0,0.0,0.0,0.0,0.0,0.0,0.0,0.0,0.0,0.0,0.0,0.0,0.0,0.0,0.0,0.0,0.0,0.0,0.0,0.0,0.0,0.0,0.0,0.0,0.0,0.0,0.0,0.0,0.0,0.0,0.0,0.0,0.0,0.0,0.0,0.0,0.0,0.0,0.0,0.0,0.0,0.0,0.0,0.0,0.0,0.0,0.0,0.0,0.0,0.0,0.0,0.0,0.0,0.0,0.0,0.0,0.0,0.0,0.0,0.0,0.0,0.0,0.0,0.0,0.0,0.0,0.0,0.0,0.0,0.0,0.0,0.0,0.0,0.0,0.0,0.0,0.0,0.0,0.0,0.0,0.0,0.0,0.0,0.0,0.0,0.0,0.0,0.0,0.0,0.0,0.0,0.0,0.0,0.0,0.0,0.0,0.0,0.0,0.0,0.0,0.0,0.0,0.0,0.0,0.0,0.0,0.0,0.0,0.0,0.0,0.0,0.0,0.0,0.0,0.0,0.0,0.0,0.0,0.0,0.0,0.0,0.0,0.0,0.0,0.0,0.0,0.0,0.0,0.0,0.0,0.0,0.0,0.0,0.0,0.0,0.0,0.0,0.0,0.0,0.0,0.0,0.0,0.0,0.0,0.0,0.0,0.0,0.0,0.0,0.0,0.0,0.0,0.0,0.0,0.0,0.0,0.0,0.0,0.0,0.0,0.0,0.0,0.0,0.0,0.0,0.0,0.0,0.0,0.0,0.0,0.0,0.0,0.0,0.0,0.0,0.0,0.0,0.0,0.0,0.0,0.0,0.0,0.0,0.0,0.0,0.0,0.0,0.0,0.0,0.0,0.0,0.0,0.0,0.0,0.0,0.0,0.0,0.0,0.0,0.0,0.0,0.0,0.0,0.0,0.0,0.0,0.0,0.0,0.0,0.0,0.0,0.0,0.0,0.0,0.0,0.0,0.0,0.0,0.0,0.0,0.0,0.0,0.0,0.0,0.0,0.0,0.0,0.0,0.0,0.0,0.0,0.0,0.0,0.0,0.0,0.0,0.0,0.0,0.0,0.0,0.0,0.0,0.0,0.0,0.0,0.0,0.0,0.0,0.0,0.0,0.0,0.0,0.0,0.0,0.0,0.0,0.0,0.0,0.0,0.0,0.0,0.0,0.0,0.0,0.0,0.0,0.0,0.0,0.0,0.0,0.0,0.0,0.0,0.0,0.0,0.0,0.0,0.0,0.0,0.0,0.0,0.0,0.0,0.0,0.0,0.0,0.0,0.0,0.0,0.0,0.0,0.0,0.0,0.0,0.0,0.0,0.0,0.0,0.0,0.0,0.0,0.0,0.0,0.0,0.0,0.0,0.0,0.0,0.0,0.0,0.0,0.0,0.0,0.0,0.0,0.0,0.0,0.0,0.0,0.0,0.0,0.0,0.0,0.0,0.0,0.0,0.0,0.0,0.0,0.0,0.0,0.0,0.0,0.0,0.0,0.0,0.0,0.0,0.0,0.0,0.0,0.0,0.0,0.0,0.0,0.0,0.0,0.0,0.0,0.0,0.0,0.0,0.0,0.0,0.0,0.0,0.0,0.0,0.0,0.0,0.0,0.0,0.0,0.0,0.0,0.0,0.0,0.0,0.0,0.0,0.0,0.0,0.0,0.0,0.0,0.0,0.0,0.0,0.0,0.0,0.0,0.0,0.0,0.0,0.0,0.0,0.0,0.0,0.0,0.0,0.0,0.0,0.0,0.0,0.0,0.0,0.0,0.0,0.0,0.0,0.0,0.0,0.0,0.0,0.0,0.0,0.0,0.0,0.0,0.0,0.0,0.0,0.0,0.0,0.0,0.0,0.0,0.0,0.0,0.0,0.0,0.0,0.0,0.0,0.0,0.0,0.0,0.0,0.0,0.0,0.0,0.0,0.0,0.0,0.0,0.0,0.0,0.0,0.0,0.0,0.0,0.0,0.0,0.0,0.0,0.0,0.0,0.0,0.0,0.0,0.0,0.0,0.0,0.0,0.0,0.0,0.0,0.0,0.0,0.0,0.0,0.0,0.0,0.0,0.0,0.0,0.0,0.0,0.0,0.0,0.0,0.0,0.0,0.0,0.0,0.0,0.0,0.0,0.0,0.0,0.0,0.0,0.0,0.0,0.0,0.0,0.0,0.0,0.0,0.0,0.0,0.0,0.0,0.0,0.0,0.0,0.0,0.0,0.0,0.0,0.0,0.0,0.0,0.0,0.0,0.0,0.0,0.0,0.0,0.0,0.0,0.0,0.0,0.0,0.0,0.0,0.0,0.0,0.0,0.0,0.0,0.0,0.0,0.0,0.0,0.0,0.0,0.0,0.0,0.0,0.0,0.0,0.0,0.0,0.0,0.0,0.0,0.0,0.0,0.0,0.0,0.0,0.0,0.0,0.0,0.0,0.0,0.0,0.0,0.0,0.0,0.0,0.0,0.0,0.0,0.0,0.0,0.0,0.0,0.0,0.0,0.0,0.0,0.0,0.0,0.0,0.0,0.0,0.0,0.0,0.0,0.0,3.498,3.3359,0.0,0.0,0.0,0.0,0.0,0.0,0.0,0.0,0.0,0.0,0.0,0.0,0.0,0.0,0.0,0.0,0.0,0.0,0.0,0.0,0.0,0.0,0.0,2.0347,2.0254,1.9826,1.9786,1.972,1.9586,1.9439,2.0371,2.2533,2.3375,2.4979,2.7433,2.8215,2.9023,2.9902,3.0508,3.1465,3.2715,3.2715,3.207,3.0879,0.0,0.0,0.0,0.0,0.0,0.0,0.0,0.0,0.0,0.0,0.0,0.0,0.0,0.0,0.0,0.0,0.0,0.0,0.0,0.0,0.0,0.0,0.0,0.0,0.0,0.0,0.0,0.0,0.0,0.0,0.0,0.0,0.0,0.0,0.0,0.0,0.0,0.0,0.0,0.0,0.0,0.0,0.0,0.0,0.0,0.0,0.0,0.0,0.0,0.0,0.0,0.0,0.0,0.0,0.0,0.0,0.0,0.0,0.0,0.0,0.0,0.0,0.0,0.0,0.0,0.0,0.0,0.0,0.0,0.0,3.6543,3.5351,0.0,0.0,0.0,0.0,0.0,0.0,0.0,0.0,0.0,0.0,0.0,0.0,0.0,0.0,0.0,0.0,0.0,0.0,0.0,0.0,0.0,2.0615,2.0668,2.0895,2.0815,2.0281,2.0167,2.0134,1.9893,1.9893,2.1075,2.3753,2.4078,2.5533,2.8345,2.875,2.9238,2.9902,3.17,3.3262,3.4707,3.4707,3.3574,3.1562,3.1562,0.0,0.0,0.0,0.0,0.0,0.0,0.0,0.0,0.0,0.0,0.0,0.0,0.0,0.0,0.0,0.0,0.0,0.0,0.0,0.0,0.0,0.0,0.0,0.0,0.0,0.0,0.0,0.0,0.0,0.0,0.0,0.0,0.0,0.0,0.0,0.0,0.0,0.0,0.0,0.0,0.0,0.0,0.0,0.0,0.0,0.0,0.0,0.0,0.0,0.0,0.0,0.0,0.0,0.0,0.0,0.0,0.0,0.0,0.0,0.0,0.0,0.0,0.0,3.8301,3.8789,3.9453,3.9023,3.9062,3.9434,3.8848,3.8184,3.7422,3.6211,0.0,0.0,0.0,0.0,0.0,0.0,0.0,0.0,0.0,0.0,0.0,0.0,0.0,0.0,0.0,0.0,0.0,0.0,0.0,2.0388,2.0641,2.0708,2.0601,2.0207,2.0167,2.0153,2.0174,2.1097,2.2409,2.4187,2.5232,2.6774,2.8774,2.8887,2.9687,3.1269,3.2988,3.4121,3.4707,3.4707,3.4512,3.4199,3.4199,3.3555,3.2461,0.0,0.0,0.0,0.0,0.0,0.0,0.0,0.0,0.0,0.0,0.0,0.0,0.0,0.0,0.0,0.0,0.0,0.0,0.0,0.0,0.0,0.0,0.0,0.0,0.0,0.0,0.0,0.0,0.0,0.0,0.0,0.0,0.0,0.0,0.0,0.0,0.0,0.0,0.0,0.0,0.0,3.5117,3.668,0.0,0.0,0.0,0.0,0.0,0.0,0.0,0.0,0.0,0.0,0.0,0.0,0.0,3.8144,3.9297,4.0508,4.1152,4.1211,4.2324,4.293,4.3008,4.2598,4.2637,4.2969,4.1797,0.0,3.834,3.7422,0.0,0.0,0.0,0.0,0.0,0.0,0.0,0.0,0.0,0.0,0.0,0.0,0.0,0.0,0.0,0.0,0.0,0.0,0.0,0.0,0.0,2.1363,2.1603,2.147,2.1777,2.1764,2.1256,2.2172,2.3183,2.4228,2.5471,2.6863,2.8501,2.9043,3.0605,3.3301,3.4551,3.5762,3.6875,3.6875,3.6875,3.6875,3.6875,3.5762,3.3867,3.3867,0.0,0.0,0.0,0.0,0.0,0.0,0.0,0.0,0.0,0.0,0.0,0.0,0.0,0.0,0.0,0.0,0.0,0.0,0.0,0.0,0.0,0.0,0.0,0.0,0.0,0.0,0.0,0.0,0.0,0.0,0.0,0.0,0.0,0.0,0.0,0.0,0.0,0.0,0.0,3.5449,3.6621,3.6914,3.7422,3.7129,0.0,0.0,0.0,0.0,0.0,0.0,0.0,0.0,0.0,3.9004,4.0195,4.1094,4.168,4.2969,4.373,4.3984,4.4551,4.4805,4.4805,4.4375,4.4905,4.6228,4.5474,4.5159,4.4793,4.0492,3.8496,3.8092,0.0,0.0,0.0,0.0,3.7264,3.6897,0.0,0.0,0.0,0.0,0.0,0.0,0.0,0.0,0.0,0.0,0.0,0.0,2.1323,2.2124,2.2645,2.2645,2.314,2.306,2.2151,2.3305,2.4084,2.4392,2.5856,2.7168,2.8301,2.957,3.1758,3.4883,3.5859,3.6992,3.8262,3.8476,3.8516,3.8418,3.8535,3.7324,3.5195,3.5195,3.4277,3.2754,0.0,0.0,0.0,0.0,0.0,0.0,0.0,0.0,0.0,0.0,0.0,0.0,0.0,0.0,0.0,0.0,0.0,0.0,0.0,0.0,0.0,0.0,0.0,0.0,0.0,0.0,0.0,0.0,0.0,0.0,0.0,0.0,0.0,0.0,0.0,0.0,0.0,3.7448,3.8066,3.7559,3.9101,3.916,0.0,0.0,0.0,0.0,0.0,0.0,3.9219,4.0176,4.0957,4.1523,4.3696,4.4875,4.5095,4.6643,4.765,4.7976,4.7976,4.7976,4.7976,4.763,4.8231,4.9649,4.9239,4.957,5.0065,4.4621,4.1834,4.1106,4.134,4.0525,3.9433,4.109,4.1038,4.0532,0.0,0.0,0.0,0.0,0.0,0.0,0.0,0.0,0.0,0.0,0.0,2.1695,2.1911,2.2739,2.3273,2.3273,2.3567,2.3367,2.2458,2.4558,2.5513,2.4694,2.6921,2.8228,2.8301,3.0762,3.3125,3.5351,3.6621,3.7285,3.7383,3.8184,3.8359,3.7969,3.8398,3.7832,3.6582,3.6582,3.5801,3.4434,3.2793,0.0,0.0,0.0,0.0,0.0,0.0,0.0,0.0,0.0,0.0,0.0,0.0,0.0,0.0,0.0,0.0,0.0,0.0,0.0,0.0,0.0,0.0,0.0,0.0,0.0,0.0,0.0,0.0,0.0,0.0,0.0,0.0,0.0,0.0,0.0,0.0,0.0,0.0,3.9687,4.2676,0.0,0.0,0.0,0.0,3.916,3.9883,4.1094,4.2734,4.2871,4.3867,4.5918,4.8237,4.9889,5.0663,5.2925,5.4159,5.4181,5.4181,5.4181,5.4181,5.4159,5.389,5.3443,5.2868,5.219,5.1241,4.9672,4.7925,4.611,4.5335,4.4165,4.3006,4.3514,4.3798,4.4082,0.0,0.0,0.0,0.9822,1.114,1.2704,1.4104,1.6061,1.7924,1.9502,2.0775,2.1735,2.1951,2.3287,2.4249,2.4436,2.5064,2.4997,2.3915,2.5727,2.6358,2.5294,2.7215,2.8828,2.9941,3.2226,3.4043,3.5391,3.6406,3.7031,3.7305,3.7891,3.8066,3.7949,3.8379,3.832,3.7891,3.7891,3.7148,3.5898,3.5,3.3555,0.0,0.0,0.0,0.0,0.0,0.0,0.0,0.0,0.0,0.0,0.0,0.0,0.0,0.0,0.0,0.0,0.0,0.0,0.0,0.0,0.0,0.0,0.0,0.0,0.0,0.0,0.0,0.0,0.0,0.0,0.0,0.0,0.0,0.0,0.0,0.0,0.0,4.2565,4.7464,0.0,4.2466,4.5586,4.6998,4.451,4.679,4.8719,4.961,5.0173,5.0929,5.2003,5.3125,5.3885,5.4128,5.4973,5.5427,5.5427,5.5427,5.5248,5.4996,5.4619,5.4971,5.5766,5.5276,5.5225,5.5472,5.4706,5.1746,4.7811,4.7791,4.7211,4.6688,4.8109,4.8219,4.7852,0.0,0.0,0.0,0.9754,1.1056,1.2581,1.3886,1.5943,1.7923,1.9608,2.1145,2.2258,2.2686,2.4142,2.5157,2.5358,2.5999,2.5758,2.4289,2.6139,2.6649,2.5223,2.7583,2.9883,3.1914,3.334,3.457,3.5605,3.6328,3.6738,3.6875,3.7441,3.7715,3.7734,3.8164,3.8437,3.8594,3.873,3.8223,3.7246,3.6523,3.5039,3.3105,0.0,0.0,0.0,0.0,0.0,0.0,0.0,0.0,0.0,0.0,0.0,0.0,0.0,0.0,0.0,0.0,0.0,0.0,0.0,0.0,0.0,0.0,0.0,0.0,0.0,0.0,0.0,0.0,0.0,0.0,0.0,0.0,0.0,0.0,4.7047,4.9217,4.6941,5.2137,5.3543,4.7713,5.0994,5.2585,5.0235,5.2508,5.422,5.4716,5.5104,5.5423,5.5674,5.6546,5.6982,5.6982,5.7754,5.8205,5.8228,5.8228,5.8041,5.7752,5.7261,5.7206,5.7515,5.7176,5.6931,5.6746,5.6369,5.3815,5.025,5.053,5.0322,5.0,5.1327,5.1122,5.0218,0.0,0.0,0.0,0.9625,1.0937,1.2445,1.3668,1.5756,1.8017,2.031,2.1976,2.318,2.4062,2.5237,2.6037,2.605,2.6226,2.5518,2.3487,2.5779,2.6454,2.4572,2.8216,3.1484,3.4043,3.4141,3.4766,3.6035,3.6465,3.6445,3.6035,3.6894,3.7285,3.7305,3.7734,3.8164,3.8574,3.9004,3.8965,3.8496,3.7266,3.625,3.5234,0.0,0.0,0.0,0.0,0.0,0.0,0.0,0.0,0.0,0.0,0.0,0.0,0.0,0.0,0.0,0.0,0.0,0.0,0.0,0.0,0.0,0.0,0.0,0.0,0.0,0.0,0.0,0.0,0.0,0.0,0.0,0.0,0.0,4.8783,5.1076,5.2797,5.2571,5.6486,5.7825,5.4289,5.6392,5.7392,5.592,5.6603,5.735,5.7691,5.7128,5.6858,5.6858,5.8477,5.9343,5.9343,6.1656,6.2822,6.2822,6.2822,6.2797,6.2797,6.222,6.0788,5.8755,5.873,5.7148,5.4612,5.4587,5.4235,5.3708,5.3683,5.3356,5.2929,5.2904,5.2201,5.1096,0.0,0.0,0.9618,0.9469,1.0767,1.225,1.345,1.5432,1.7395,1.8907,2.1109,2.2712,2.318,2.4938,2.6117,2.6253,2.6146,2.5478,2.4048,2.5892,2.7495,2.8518,3.0855,3.2851,3.4492,3.5469,3.6133,3.6484,3.6621,3.6445,3.6035,3.6582,3.6836,3.6875,3.7598,3.7988,3.8125,3.8555,3.8848,3.9023,3.9004,3.8105,3.6699,0.0,0.0,0.0,0.0,0.0,0.0,0.0,0.0,0.0,0.0,0.0,0.0,0.0,0.0,0.0,0.0,0.0,0.0,0.0,0.0,0.0,0.0,0.0,0.0,0.0,0.0,0.0,0.0,0.0,0.0,0.0,5.1674,5.3428,5.2443,5.5665,5.7845,5.6773,6.1509,6.2888,5.8025,6.1763,6.3046,5.9751,6.1315,6.2263,6.2043,6.0691,5.9959,5.9959,6.0432,6.0682,6.0682,6.207,6.2822,6.2822,6.2421,6.222,6.2195,6.1215,6.0236,5.9257,5.888,5.76,5.5717,5.534,5.4587,5.3658,5.3281,5.3055,5.2879,5.2477,5.1624,5.0368,0.0,0.9517,0.9462,0.9313,1.0082,1.1345,1.3285,1.4738,1.6551,1.91,2.1162,2.2726,2.3514,2.501,2.6026,2.6199,2.6052,2.5251,2.3567,2.5328,2.7679,3.0508,3.2512,3.4199,3.5508,3.6445,3.6855,3.668,3.668,3.6445,3.6035,3.6289,3.6582,3.6953,3.7441,3.7851,3.8223,3.8652,3.8984,3.9258,3.9902,3.9336,3.8047,3.7695,3.6562,3.5117,3.4766,3.4219,3.3701,3.382,0.0,0.0,0.0,0.0,0.0,0.0,0.0,0.0,0.0,0.0,0.0,0.0,0.0,0.0,0.0,0.0,0.0,0.0,0.0,0.0,0.0,0.0,0.0,0.0,5.4536,5.7075,5.7795,6.0267,6.2068,6.1929,6.5312,6.6409,6.3287,6.567,6.6267,6.3704,6.4577,6.5032,6.4731,6.335,6.2345,6.1893,6.1868,6.1642,6.119,6.227,6.2822,6.2822,6.227,6.1994,6.1969,6.0839,5.9633,5.8453,5.8403,5.7022,5.4838,5.4988,5.4386,5.3356,0.0,0.0,0.0,0.0,5.1197,5.0167,0.0,0.9354,0.9306,0.9214,0.9187,1.0137,1.2979,1.3836,1.5594,1.9801,2.154,2.2966,2.4382,2.5358,2.5905,2.5905,2.5862,2.4831,2.2714,2.4704,2.7518,3.1085,3.3567,3.5469,3.6777,3.7187,3.7187,3.6816,3.6758,3.6523,3.6094,3.6035,3.6426,3.7168,3.7207,3.7676,3.8457,3.8887,3.9121,3.9277,4.0059,3.9941,3.9199,3.8496,3.7715,3.6934,3.6113,3.5351,3.4773,3.4687,0.0,0.0,0.0,0.0,0.0,0.0,0.0,0.0,0.0,0.0,0.0,0.0,0.0,0.0,0.0,0.0,0.0,0.0,0.0,0.0,0.0,0.0,0.0,0.0,5.7298,6.0211,6.35,6.4354,6.5258,6.6865,6.7919,6.8522,6.8522,6.8095,6.7543,6.6915,6.6413,6.6086,6.6011,6.4856,0.0,0.0,0.0,6.2169,6.119,6.227,6.2822,6.2822,6.2195,6.1918,6.1868,6.0738,5.9081,5.7173,5.7675,5.6068,5.3181,5.416,5.3909,5.2929,5.2854,5.2804,5.2603,5.1423,5.067,5.0067,0.0,0.9255,0.9207,0.9001,0.8981,0.9565,1.1458,1.3106,1.5124,1.8045,2.0747,2.2806,2.3821,2.493,2.5598,2.5598,2.4743,2.4145,2.3839,2.5706,2.8249,3.1648,3.4307,3.6367,3.7656,3.7754,3.7773,3.7676,3.7344,3.6953,3.6543,3.6191,3.6113,3.6289,3.6641,3.707,3.7578,3.7988,3.8574,3.9219,3.9394,3.957,3.9785,3.9961,3.9707,3.9199,3.8652,3.8594,3.8773,3.8552,3.8712,3.8999,3.8714,3.8914,0.0,0.0,0.0,0.0,0.0,0.0,0.0,0.0,0.0,0.0,0.0,0.0,0.0,0.0,0.0,0.0,0.0,0.0,0.0,5.7374,5.9834,6.237,6.5233,6.5735,6.6262,6.7493,6.7819,6.7945,6.7945,6.7869,6.7392,6.6363,6.6187,6.5911,6.5484,6.3576,6.2395,6.2169,6.1743,6.1391,6.119,6.227,6.2822,6.2822,6.1818,0.0,6.1316,6.0161,5.8956,5.7725,5.7851,5.652,5.426,5.4486,5.3909,5.2879,5.2427,5.2,5.1398,4.9841,4.9188,4.8862,0.9028,0.9049,0.9022,0.8898,0.8885,0.9509,1.1255,1.3003,1.4955,1.7359,2.0055,2.2164,2.3207,2.3834,2.4302,2.4609,2.3554,2.3215,2.3938,2.5768,2.8274,3.1528,3.41,3.6237,3.7838,3.8144,3.8144,3.793,3.7715,3.7402,3.6973,3.6758,3.666,3.668,3.6894,3.7226,3.7617,3.7832,3.8418,3.9199,3.9199,3.9609,4.0234,4.0449,4.0391,4.0176,3.9941,3.9883,3.9916,3.9745,3.9855,3.9956,3.9493,3.9453,3.9511,0.0,0.0,0.0,0.0,0.0,0.0,0.0,0.0,0.0,0.0,0.0,0.0,0.0,0.0,5.0594,5.2553,0.0,5.6696,5.9483,6.1793,6.3902,6.5835,6.684,6.7568,6.8145,6.8221,6.8321,6.8597,6.812,6.7568,6.699,6.6438,6.5986,6.571,6.4404,6.3274,6.2446,6.2421,6.2044,6.119,6.227,6.2822,6.2822,6.1718,6.119,6.114,5.9734,5.8654,5.7876,5.7298,5.6118,5.4607,5.3959,5.3406,5.2854,5.2026,5.1523,5.1147,5.0017,4.9238,4.8611,0.8885,0.8885,0.8885,0.8885,0.8885,0.9426,1.1102,1.2908,1.4829,1.6831,1.9424,2.151,2.2579,2.2739,2.2886,2.3153,2.2445,2.2418,2.3447,2.5565,2.8017,3.0843,3.3635,3.5907,3.7494,3.8375,3.8652,3.8301,3.8223,3.8008,3.7656,3.75,3.7422,3.7422,3.7324,3.7539,3.793,3.793,3.8379,3.9082,3.916,3.9687,4.041,4.0488,4.0586,4.0644,4.0644,4.0332,3.9922,4.0098,4.0039,3.9883,3.9746,3.959,3.9552,4.0006,4.0399,0.0,0.0,0.0,0.0,0.0,0.0,0.0,0.0,4.8535,5.0243,5.1448,5.2678,5.416,5.6143,5.7499,5.9131,6.1592,6.3651,6.5308,6.6287,6.7593,6.8547,6.8748,6.8698,6.8798,6.925,6.8296,6.7643,6.7643,6.6689,6.6112,6.6112,6.5484,6.453,6.3199,6.34,6.2873,6.1517,6.2395,6.2822,6.2822,6.1718,6.1115,6.0964,5.9533,5.8453,5.765,5.642,5.5315,5.4336,5.3331,5.2929,5.2829,5.1699,5.1272,5.1197,5.0519,4.9565,4.8535,0.0,0.8885,0.8885,0.8885,0.8885,0.9091,0.9564,1.2166,1.4597,1.5878,1.902,2.1363,2.2017,2.2311,2.2084,2.1109,2.1617,2.2151,2.2539,2.5447,2.7795,2.9215,3.3617,3.6153,3.6397,3.8593,3.9726,3.9668,3.9258,3.9043,3.8965,3.8203,3.7851,3.7832,3.7461,3.7539,3.793,3.793,3.8203,3.8672,3.9062,3.9512,4.0,4.0371,4.0762,4.1094,4.1094,4.0586,4.0019,4.0781,4.0527,4.0078,4.1172,4.0996,4.0381,4.0668,4.1336,4.177,4.0489,4.1225,4.2937,4.5388,4.6552,4.8033,0.0,5.3381,5.4361,5.5968,5.7549,5.9056,6.0311,6.1868,6.3375,6.463,6.5886,6.6915,6.7518,6.7769,6.8246,6.925,6.8924,6.8648,6.8698,6.7719,6.7066,6.7066,6.6463,6.6112,6.6112,6.5132,6.4479,6.4279,6.34,6.2822,6.2647,6.2772,6.2822,6.2822,6.1718,6.0914,6.0387,5.9709,5.8579,5.7047,5.544,5.4386,5.3758,5.3181,5.2929,5.2829,5.1699,5.1272,5.1147,5.0092,4.8962,4.7983,0.0,0.8885,0.8885,0.8885,0.9008,0.9137,0.9347,1.2148,1.4453,1.5054,1.8179,2.0575,2.1162,2.1336,2.1002,2.0,2.0722,2.171,2.2873,2.4646,2.6872,2.9654,3.1716,3.3892,3.6394,3.7435,3.8633,3.9902,3.9707,3.9609,3.959,3.9238,3.8926,3.8652,3.8476,3.8496,3.8672,3.8672,3.9062,3.9707,3.9629,4.0019,4.0605,4.0273,4.0273,4.0332,3.9551,3.8887,0.0,3.8516,3.8633,3.8984,4.0273,4.0916,4.1049,4.0646,4.1079,4.179,4.2405,4.3527,4.5196,4.7983,5.0092,5.2026,5.4185,5.5867,5.7323,5.8679,6.0261,6.1768,6.2898,6.3927,6.4982,6.6086,6.7216,6.802,6.8246,6.8547,6.8698,6.8497,6.7693,6.7417,6.807,6.7442,6.684,6.6488,6.6237,6.5961,6.566,6.5208,6.4655,6.4028,6.3576,6.3174,6.2822,6.2822,6.2672,6.2345,6.1542,6.0713,5.9809,5.8956,5.7474,5.5541,5.4511,5.3758,5.3231,5.3005,5.2729,5.2377,5.1599,5.1071,5.0645,4.9515,4.8611,4.7857,0.0,0.8885,0.8885,0.8885,0.9089,0.9309,0.9361,1.1878,1.382,1.3915,1.6958,1.9468,2.0388,2.0361,2.0114,1.9484,2.0174,2.1363,2.2966,2.3981,2.5931,2.9058,2.9931,3.1808,3.4984,3.5731,3.7126,3.9357,3.9357,3.9682,4.0254,4.0117,3.9883,3.957,3.9453,3.9394,3.9394,3.9394,3.9766,4.0332,4.0156,4.0371,4.0742,4.0,3.9414,3.8906,3.8047,3.7324,3.6719,3.6426,3.6641,3.7316,3.8853,4.0083,4.0742,4.0288,4.0605,4.1647,4.393,4.5483,4.7166,5.009,5.2729,5.4913,5.6219,5.7876,5.9483,6.0738,6.2094,6.335,6.4304,6.5032,6.5835,6.6815,6.7894,6.8572,6.8422,6.8748,6.8522,6.7267,6.6137,6.5634,6.6162,6.6388,6.6463,6.6363,6.6187,6.5886,6.5333,6.5132,6.4655,6.3726,6.3525,6.3249,6.2822,6.2822,6.2546,6.1994,6.1441,6.0588,5.9433,5.8052,5.6394,5.4607,5.3959,5.3406,5.2929,5.2929,5.2603,5.2051,5.1498,5.0921,5.0268,4.9012,4.8259,4.7832,0.0,0.0,0.8885,0.8885,0.9178,0.9374,0.9381,1.0895,1.2115,1.2252,1.5322,1.808,1.9635,1.9573,1.9457,1.943,2.0174,2.1176,2.2365,2.3554,2.4877,2.6425,2.9073,3.0731,3.1128,3.3564,3.5845,3.7939,3.7939,3.9082,4.1133,4.0703,4.0488,4.0469,4.0059,3.9883,3.9883,3.9883,3.9883,3.9941,4.0351,4.0273,3.9883,3.9394,3.8203,3.6816,3.7187,3.6523,3.5449,3.543,3.5156,3.5205,3.7391,3.8502,3.9051,3.9519,4.0309,4.1745,4.4665,4.6291,4.7895,5.1247,5.3306,5.5415,5.8629,5.9834,6.0738,6.2421,6.3249,6.3827,6.4379,6.5358,6.6287,6.689,6.7894,6.8447,6.7894,6.7844,6.7241,6.5559,6.4429,6.335,6.2295,6.4103,6.5785,6.6865,6.6438,6.5886,6.5333,6.4781,6.4254,6.3701,6.3149,6.2847,6.2822,6.2822,6.2546,6.1994,6.1441,6.0588,5.9433,5.7248,5.5641,5.4607,5.3959,5.3406,5.2929,5.2929,5.2603,5.2051,5.1498,5.0921,5.0218,4.8535,4.7933,4.7832,0.0,0.0,0.0,0.0,0.0,0.9381,0.9381,1.093,1.2141,1.2209,1.5077,0.0,0.0,0.0,0.0,0.0,1.9698,2.0449,2.175,2.2953,2.4182,2.5464,2.7522,2.9257,3.0665,3.1844,3.3594,3.5799,3.5799,3.6201,3.6922,3.8165,3.8758,3.8836,4.0163,4.0742,4.0742,4.0742,4.0742,4.0723,4.0586,4.043,4.0137,3.8535,3.7226,3.5996,0.0,3.3008,3.2324,3.1719,3.2675,3.4308,3.5894,3.7962,3.9863,4.0548,4.1447,4.2736,4.4933,4.7631,5.0519,5.3105,5.5265,5.7349,5.9558,6.0763,6.1492,6.1692,6.1592,6.1517,6.1692,6.2345,6.3274,6.458,6.6011,6.7141,6.7719,6.7141,6.6338,6.5409,6.4002,6.3124,6.3124,6.345,6.3802,6.4203,6.4731,6.4781,6.4254,6.4053,6.3701,6.3149,6.2923,6.2822,6.2822,6.2471,6.1994,6.1441,5.9784,5.8604,5.7801,5.5942,5.4712,5.3959,5.3406,5.308,5.2904,5.2528,5.2051,5.1498,5.0921,5.0142,4.9213,4.8259,4.7682,4.7305,0.0,0.0,0.0,0.0,0.0,0.0,0.0,0.0,0.0,0.0,0.0,0.0,0.0,0.0,0.0,0.0,0.0,1.9953,2.1226,2.2058,2.306,2.4235,2.5478,2.6758,2.8221,2.8842,3.0321,3.2553,3.2938,3.3435,3.4233,3.5856,3.6561,3.6535,3.8183,3.922,3.989,3.9812,4.022,4.084,3.9629,3.9062,3.8652,3.6172,3.4609,0.0,3.1348,3.0215,2.9707,2.9434,3.0737,3.2646,3.3834,3.6365,3.9116,4.0018,4.1184,4.2793,4.5464,4.8321,5.1259,5.4394,5.6545,5.8278,5.9709,6.0738,6.124,6.0688,6.0136,5.9684,5.9483,5.9583,6.0387,6.2471,6.3827,6.5183,6.6689,6.6112,6.5258,6.4505,6.3124,6.2295,6.2471,6.2345,6.2496,6.3099,6.3601,6.3726,6.34,6.3199,6.2998,6.2847,6.2822,6.2822,6.2822,6.2295,6.1517,6.0563,5.8755,5.7399,5.6394,5.5139,5.3934,5.2829,5.2904,5.2578,5.2026,5.2076,5.1649,5.0946,5.0569,4.9866,4.8962,4.8184,4.7682,4.7305,0.0,0.0,0.0,0.0,0.0,0.0,0.0,0.0,0.0,0.0,0.0,0.0,0.0,0.0,0.0,0.0,0.0,0.0,2.0561,2.0922,2.1603,2.2767,2.3126,2.3581,2.4128,2.4716,2.6168,2.8522,2.9376,3.0841,3.2852,3.3529,3.3756,3.3614,3.4312,3.5622,3.7358,3.7203,3.8322,4.0,3.75,3.6269,3.5586,3.2598,3.0684,2.9531,2.9062,2.8359,2.7845,2.8613,2.9548,3.0537,3.1609,3.42,3.7089,3.8402,3.987,4.1972,4.6381,4.8415,5.0314,5.4959,5.7022,5.8127,5.9182,5.9809,6.001,5.9408,5.8805,5.8202,5.7575,5.7123,5.7725,6.0437,6.1492,6.2722,6.4906,6.4781,6.4078,6.2998,6.1969,6.1115,6.0537,6.0989,6.1943,6.35,6.3124,6.2822,6.2822,6.2345,6.2295,6.2822,6.2822,6.2822,6.2822,6.2245,6.1115,5.9433,5.8378,5.6997,5.5365,5.4787,5.3356,5.1423,5.2477,5.2026,5.0619,5.1649,5.1423,5.0444,5.0393,5.0042,4.9414,4.8309,4.7883,4.7732,0.0,0.0,0.0,0.0,0.0,0.0,0.0,0.0,0.0,0.0,0.0,0.0,0.0,0.0,0.0,0.0,0.0,0.0,1.9752,2.0588,2.1149,2.1229,2.2579,2.3287,2.3207,2.3794,2.4417,2.5063,2.5299,2.5688,2.6256,2.8042,2.9425,3.0414,3.2262,3.393,3.5398,3.5398,3.5673,3.6074,3.4766,3.4375,3.4277,3.1562,3.0332,2.9902,2.8828,2.8125,2.7806,2.8281,3.0409,3.3277,3.5929,3.7805,3.9386,4.1507,4.2532,4.3862,4.7987,5.0024,5.1706,5.4857,5.642,5.7449,5.8152,5.8403,5.8127,5.6721,5.534,5.3833,5.2051,5.2955,5.4612,5.6545,5.9408,6.2019,6.3852,6.4304,6.4228,6.355,6.3576,6.3425,6.2898,6.2973,6.2873,6.2471,6.2672,6.2822,6.2822,6.2697,6.2672,6.2822,6.2822,6.2822,6.2822,6.1868,6.0563,5.8905,5.7801,5.6595,5.5365,5.4361,5.3406,5.2528,5.2804,5.2678,5.2251,5.1724,5.1322,5.0971,5.0142,4.9464,4.8887,4.8184,4.7657,4.723,0.0,0.0,0.0,0.0,0.0,0.0,0.0,0.0,0.0,0.0,0.0,0.0,0.0,0.0,0.0,0.0,0.0,0.0,0.0,1.9987,2.0267,2.0167,2.1056,2.1563,2.1523,2.2111,2.2539,2.2792,2.3046,2.3247,2.345,2.4721,2.6067,2.7489,2.8952,3.0915,3.3068,3.2983,3.3527,0.0,0.0,3.2148,3.2109,2.9707,2.8809,2.8711,2.7988,2.8184,2.8906,2.9726,3.148,3.386,3.6999,3.8484,3.9454,4.132,4.2141,4.3158,4.661,4.824,4.9847,5.3253,5.4721,5.5386,5.5924,5.6244,5.5742,5.3331,5.2302,5.1147,4.8937,5.0318,5.2452,5.4336,5.7725,6.0839,6.2998,6.355,6.3827,6.4002,6.3877,6.3726,6.3701,6.3701,6.3324,6.2446,6.2195,6.222,6.2446,6.2245,6.232,6.2822,6.2822,6.2596,6.2119,6.0989,5.9608,5.7976,5.6846,5.5717,5.4612,5.3758,5.2929,5.2226,5.2729,5.2503,5.18,5.1423,5.0996,5.0444,4.9565,4.8887,4.8335,4.7782,4.738,4.6993,0.0,0.0,0.0,0.0,0.0,0.0,0.0,0.0,0.0,0.0,1.2506,1.4599,0.0,0.0,0.0,0.0,0.0,0.0,0.0,0.0,1.943,1.943,1.9399,1.9533,1.9733,2.0281,2.0788,2.132,2.1804,2.2205,2.2458,2.2739,2.3513,2.4687,2.5216,2.7146,3.0036,3.013,3.1258,3.2836,3.0723,2.9883,2.9726,0.0,2.7051,2.7109,2.7109,2.832,3.0195,3.1934,3.291,3.3887,3.6738,3.8097,3.8938,4.0116,4.07,4.1503,4.4301,4.5285,4.6622,5.1166,5.2431,5.2729,5.3441,5.3648,5.2928,4.9952,4.964,4.9238,4.7179,4.8661,5.0946,5.3231,5.642,5.9508,6.2119,6.2822,6.335,6.4153,6.3525,6.3274,6.3852,6.3776,6.3475,6.2973,6.2069,6.1692,6.2094,6.1667,6.1843,6.2797,6.2747,6.2195,6.109,6.0035,5.8629,5.6922,5.5892,5.4787,5.3683,5.3155,5.2402,5.1548,5.2528,5.2051,5.067,5.1096,5.0619,4.954,4.8987,4.841,4.7857,4.733,4.7068,4.6993,0.0,0.0,0.0,0.0,0.0,0.0,0.0,0.0,0.0,0.0,1.2478,1.4599,0.0,0.0,0.0,0.0,0.0,0.0,0.0,0.0,0.0,1.943,1.9599,1.9639,1.9452,1.9773,1.988,1.9805,2.0094,2.0281,2.0334,2.0388,2.1138,2.2543,2.2453,2.3333,2.5124,2.6399,2.7135,2.753,2.7968,2.832,2.8496,2.7422,0.0,0.0,2.7559,2.8008,2.9199,3.2988,3.5273,3.6855,3.8828,4.021,4.1473,4.2829,4.2479,4.2273,4.5205,4.5523,4.5965,5.011,5.0285,5.0058,5.2515,5.1161,4.9116,4.8369,4.7581,4.6627,4.5296,4.7255,4.9941,5.2628,5.5867,5.8679,6.0487,6.2747,6.3927,6.3199,6.3751,6.4404,6.4957,6.4203,6.3651,6.355,6.3375,6.3099,6.2697,6.2596,6.2621,6.2822,6.2395,6.1617,6.0487,5.9809,5.8453,5.6344,5.5691,5.4787,5.3683,5.3155,5.2829,5.2653,5.2854,5.2503,5.1774,5.1423,5.0619,4.954,4.8987,4.841,4.7857,4.733,4.7068,4.6993,0.0,0.0,0.0,0.0,0.0,0.0,0.0,0.9239,0.9408,0.949,1.1842,1.3769,1.45,1.7455,1.943,0.0,0.0,0.0,0.0,0.0,0.0,1.9586,1.972,1.9733,1.9599,1.988,2.0027,2.0114,0.0,2.0107,2.0254,2.0094,2.0837,2.2274,2.1931,2.2627,2.4102,2.4684,2.5371,2.6136,2.6675,2.7447,2.8242,2.7832,0.0,0.0,2.7728,2.8223,2.9336,3.1875,3.4316,3.6836,3.9922,4.1152,4.1621,4.2537,4.2307,4.2073,4.3524,4.3906,4.4601,4.7386,4.7497,4.7401,4.8855,4.8031,4.6675,4.559,4.5397,4.5095,4.3966,4.605,4.8736,5.1222,5.4185,5.7248,6.0337,6.1918,6.3099,6.4002,6.4329,6.4354,6.4028,6.355,6.2998,6.2421,6.2395,6.2521,6.2822,6.2822,6.2697,6.2395,6.1567,6.0738,5.991,5.878,5.7399,5.5767,5.5214,5.4386,5.3281,5.303,5.2929,5.2929,5.2929,5.2277,5.1222,5.1272,5.0268,4.8711,4.8761,4.8259,4.7481,4.7168,4.6892,4.6677,0.0,0.0,0.0,0.0,0.0,0.0,0.9234,0.9354,0.953,0.9686,1.1356,1.3075,1.4461,1.7185,1.9076,0.0,0.0,0.0,0.0,0.0,0.0,0.0,1.9947,1.996,1.9893,0.0,0.0,2.0575,2.0414,0.0,0.0,0.0,0.0,0.0,2.1758,2.2255,2.3336,2.3392,2.4278,0.0,0.0,2.6987,2.8301,0.0,0.0,0.0,0.0,2.832,2.9219,3.0566,3.248,3.5,3.9121,4.0644,4.0937,4.1172,4.1504,4.1777,4.1699,4.2285,4.3358,4.4868,4.4961,4.482,4.5638,4.5376,4.4664,4.3407,4.374,4.4041,4.3288,4.5045,4.7405,4.9841,5.2176,5.5265,5.9834,6.0788,6.1994,6.463,6.4655,6.4178,6.3425,6.3149,6.2647,6.1793,6.1617,6.1868,6.2621,6.2647,6.2395,6.1843,6.0738,5.9885,5.9332,5.7801,5.642,5.5214,5.4762,5.3984,5.2929,5.2929,5.2929,5.2929,5.2929,5.19,5.0293,5.0996,4.9891,4.7807,4.851,4.8159,4.728,4.7118,4.6853,4.6476,0.0,0.0,0.0,0.0,0.0,0.0,0.934,0.9598,0.9836,0.993,1.1641,1.3365,1.4628,1.6353,1.7958,0.0,0.0,0.0,0.0,0.0,0.0,0.0,0.0,0.0,0.0,0.0,0.0,2.0267,2.0521,0.0,0.0,0.0,0.0,0.0,0.0,2.034,2.0319,2.1584,0.0,0.0,0.0,0.0,0.0,0.0,0.0,0.0,0.0,2.7812,2.7676,3.0508,3.1113,3.1289,3.4863,3.7832,3.9941,3.9551,4.0566,4.1719,4.1328,4.1855,4.2744,4.3919,4.3217,4.279,4.5275,4.4041,4.2704,4.3573,4.3413,4.3263,4.3639,4.4342,4.5899,4.9138,5.0318,5.2528,5.7499,5.9483,6.1291,6.3576,6.4203,6.463,6.5032,6.4178,6.3576,6.3475,6.2973,6.2496,6.2094,6.2069,6.1818,6.1266,6.0161,5.9307,5.8755,5.76,5.6219,5.4637,5.4587,5.3984,5.2929,5.2929,5.2929,5.2929,5.2929,5.1674,4.9766,5.0845,4.9665,4.7305,4.836,4.8385,4.7782,4.7305,4.7043,4.6979,0.0,0.0,0.0,0.0,0.0,0.0,0.9469,0.9537,0.9673,0.9943,1.0877,1.2034,1.3528,1.4201,1.5873,1.9121,1.9533,0.0,0.0,0.0,0.0,0.0,0.0,0.0,0.0,0.0,2.0962,2.1029,2.1212,0.0,0.0,0.0,0.0,0.0,0.0,2.0428,2.0368,2.0575,0.0,0.0,0.0,0.0,0.0,0.0,0.0,0.0,0.0,0.0,2.7969,2.918,2.9863,3.0391,3.1523,3.3789,3.6309,3.7949,3.9101,4.0059,4.0937,4.1973,4.2817,4.3039,4.2467,4.2156,4.3636,4.2749,4.1919,4.2675,4.2886,4.2936,4.2891,4.3263,4.4518,4.7179,4.7807,4.9816,5.5139,5.647,5.8428,6.2672,6.3048,6.3199,6.3751,6.3124,6.2546,6.2195,6.1642,6.1366,6.1492,6.1818,6.1441,6.0211,5.9433,5.8428,5.7198,5.642,5.5365,5.4059,5.4059,5.3658,5.2929,5.2929,5.2929,5.2929,5.2929,5.1272,4.8711,5.0544,4.9439,4.6803,4.8586,4.8912,4.836,4.7807,4.7405,4.6993,0.0,0.0,0.0,0.0,0.0,0.9137,0.9551,0.9551,0.9659,1.0066,1.0337,1.1135,1.2733,1.2875,1.4514,1.8583,1.9047,0.0,0.0,0.0,0.0,0.0,0.0,0.0,0.0,2.1096,2.1336,2.1614,2.1708,2.1695,0.0,0.0,2.139,2.1096,0.0,0.0,0.0,0.0,0.0,2.215,0.0,0.0,0.0,0.0,0.0,0.0,0.0,0.0,0.0,0.0,0.0,2.9492,2.9687,3.084,3.2715,3.5859,3.7637,3.8867,4.0215,4.1816,4.2949,4.2383,4.2191,4.2196,4.2601,4.2059,4.1683,4.2294,4.2459,4.2484,4.2464,4.264,4.3463,4.5698,4.6351,4.8259,5.3155,5.426,5.6269,6.0839,6.1165,6.1391,6.2245,6.2295,6.2094,6.1692,6.114,6.0839,6.0914,6.114,6.0638,5.9307,5.8428,5.7399,5.6219,5.5491,5.4662,5.3708,5.3708,5.3256,5.2452,5.2779,5.2754,5.2452,5.2779,5.1197,4.856,5.0494,4.9515,4.6979,4.8862,4.9264,4.8711,4.8134,4.7581,4.6993,0.0,0.0,0.0,0.0,0.0,0.9309,0.9564,0.9727,0.9924,1.0236,1.0405,1.1135,1.2733,1.2758,1.4094,1.7599,1.7582,0.0,0.0,0.0,0.0,2.1096,2.1109,2.1109,2.1109,2.1403,2.1614,2.1614,2.1844,2.183,2.1614,2.1614,2.139,2.1109,0.0,0.0,0.0,0.0,2.0865,2.2266,0.0,0.0,2.6264,0.0,0.0,0.0,0.0,0.0,0.0,0.0,0.0,0.0,0.0,2.9629,2.9648,3.3105,3.623,3.8672,3.9101,4.1113,4.2871,4.2012,4.235,4.2868,4.2726,4.218,4.1959,4.2793,4.2108,4.1681,4.276,4.259,4.2942,4.5121,4.6401,4.8284,5.1649,5.3532,5.5415,5.7675,5.8428,5.9408,6.104,6.2169,6.2822,6.2822,6.2295,6.1492,6.0387,5.9809,5.9282,5.8755,5.7097,5.6219,5.6219,5.5114,5.4285,5.3708,5.3708,5.2854,5.1348,5.2427,5.2327,5.1348,5.2452,5.1649,4.9665,5.082,4.9941,4.8008,4.9138,4.9264,4.8711,4.8134,4.7581,4.6993,0.0,0.0,0.0,0.0,0.0,0.0,0.9551,0.9557,0.9666,1.0066,1.0256,1.0578,1.1185,1.2123,1.3654,1.6076,1.719,0.0,0.0,0.0,2.1015,2.1109,2.1109,2.1109,2.1109,2.1203,2.1443,2.1844,2.1937,2.1937,2.1844,2.1844,2.159,2.1109,2.1109,2.1056,0.0,2.0655,2.112,2.2165,0.0,2.5339,2.6264,0.0,0.0,0.0,0.0,0.0,0.0,0.0,0.0,0.0,0.0,0.0,0.0,3.1914,3.3418,3.4922,3.623,3.7617,3.8711,3.8711,3.8714,3.8808,3.9259,3.9812,4.0089,3.9818,4.12,4.2333,4.1932,4.2333,4.3438,4.5698,4.6351,4.7732,5.1071,5.2955,5.5089,5.8102,6.0638,6.2169,6.2295,6.1943,6.1868,6.2245,6.104,6.0136,5.9784,5.8905,5.7976,5.7022,5.6495,5.5666,5.4511,5.416,5.3708,5.3181,5.3181,5.2503,5.1322,5.2427,5.2327,5.1322,5.2051,5.1322,4.9665,5.0393,4.959,4.8008,4.9163,4.9264,4.8711,4.8134,4.7581,4.6943,0.0,0.0,0.0,0.0,0.0,0.0,0.9469,0.9442,0.9523,0.9849,1.0046,1.0433,1.1212,1.2027,1.3581,1.6308,1.7377,0.0,0.0,2.0949,2.1109,2.1109,2.1109,2.1109,2.1109,2.1323,2.1617,2.1991,2.2325,2.2325,2.1991,2.2098,2.1777,2.1109,2.1109,2.1109,0.0,2.0802,2.1218,2.2122,2.368,2.4996,2.6264,0.0,0.0,0.0,0.0,0.0,0.0,0.0,0.0,0.0,0.0,0.0,0.0,0.0,3.166,3.25,3.4375,3.5762,3.6738,3.6992,3.6946,3.6951,3.7411,3.8328,3.8965,3.8666,4.0599,4.2208,4.1731,4.2208,4.3263,4.507,4.5899,4.7179,4.9665,5.18,5.4185,5.7123,6.0035,6.1843,6.1868,6.1642,6.1642,6.1969,6.0437,5.9307,5.8905,5.7851,5.6646,5.5315,5.5465,5.4988,5.3708,5.3507,5.3256,5.2929,5.2929,5.2352,5.1322,5.2427,5.2201,5.0996,5.1774,5.1272,0.0,5.0268,4.9565,4.8309,4.9012,4.8812,4.8109,4.7757,4.7154,4.6426,0.0,0.0,0.0,0.0,0.0,0.0,0.0,0.9374,0.9541,0.9889,0.9997,1.0713,1.2628,1.2664,1.4089,1.7926,1.8143,0.0,2.0619,2.0962,2.1109,2.1109,2.1109,2.1109,2.1109,2.1643,2.1951,2.1991,2.2819,2.2806,2.1991,2.2258,2.1937,2.1109,2.1109,2.1109,2.1096,2.0802,2.1232,2.2167,2.3696,2.4996,0.0,0.0,0.0,0.0,0.0,0.0,0.0,0.0,0.0,0.0,0.0,0.0,0.0,0.0,0.0,0.0,0.0,3.5,3.623,3.6289,3.6527,3.6686,3.6728,3.745,0.0,3.8635,4.0117,4.1501,4.1998,4.2178,4.269,4.374,4.5271,4.6677,4.7757,5.0494,5.3155,5.5189,5.7549,5.9307,6.0085,6.1266,6.1969,6.1893,6.0387,5.9006,5.7901,5.6796,5.544,5.3758,5.421,5.4235,5.3658,5.3181,5.2879,5.2804,5.2879,5.2302,5.1197,5.2377,5.2,5.0469,5.1574,5.1423,5.0419,5.0343,4.969,4.8761,4.8736,4.8058,4.7068,4.7068,4.6426,4.5472,0.0,0.0,0.0,0.0,0.0,0.0,0.0,0.0,0.0,0.0,1.1595,1.2311,1.3959,1.5196,1.6444,0.0,0.0,2.0012,2.0975,2.1069,2.1109,2.1109,2.1109,2.1109,2.1109,2.1243,2.1537,2.1991,2.2191,2.2191,2.1991,2.2058,2.1737,2.1109,2.1109,2.1109,2.1096,2.0802,2.1357,2.2512,2.3793,2.4996,0.0,0.0,0.0,0.0,2.793,2.8086,0.0,0.0,0.0,0.0,0.0,0.0,0.0,0.0,3.0644,3.0547,3.1406,0.0,3.1875,3.2559,3.255,3.2455,0.0,3.5066,3.6669,3.5264,3.8712,4.1778,4.1072,4.2354,4.379,4.492,4.5773,4.6677,4.7757,5.2151,5.544,5.5968,5.9483,6.0964,5.8679,6.0613,6.1642,6.0788,5.996,5.883,5.7323,5.6595,5.544,5.3758,5.3833,5.3658,5.3105,5.298,5.2503,5.1674,5.2528,5.19,5.0067,5.2026,5.2,5.0469,5.1172,5.1071,5.0343,4.9515,4.9012,4.8736,4.8284,4.7707,4.7068,4.7068,4.6426,4.5422,0.0,0.0,0.0,0.0,0.0,0.0,0.0,0.0,0.0,0.0,1.2663,1.3769,1.5537,1.6492,1.7481,0.0,0.0,2.0428,2.0882,2.1029,2.1109,2.1109,2.1109,2.1109,2.1109,2.1243,2.1537,2.1991,2.2258,2.2245,2.1991,2.2124,2.1804,2.1109,2.1109,2.1109,2.1159,2.152,2.2418,2.3607,2.4801,0.0,0.0,0.0,0.0,0.0,2.7519,2.7637,0.0,2.8262,2.8594,2.9004,0.0,0.0,0.0,0.0,3.0098,3.0,3.0449,3.0684,3.0976,3.1641,3.1348,3.1172,3.2213,3.414,3.5435,3.4571,3.8327,4.1395,4.0057,4.1604,4.3413,4.4518,4.5171,4.6451,4.9088,5.2277,5.4787,5.6068,5.8328,5.9483,5.8704,6.0211,6.0864,6.001,5.8956,5.775,5.6344,5.5491,5.4536,5.3381,5.3356,5.3206,5.2929,5.2929,5.2377,5.1297,5.2402,5.2026,5.0419,5.2151,5.2151,5.0795,5.0343,5.0092,4.9916,4.8309,4.7933,4.8309,4.7782,4.723,4.6753,4.6753,4.605,4.5045,0.0,0.0,0.0,0.0,0.0,0.0,0.0,0.0,0.0,0.0,0.0,0.0,0.0,0.0,0.0,0.0,0.0,2.0361,2.0655,2.0949,2.1109,2.1109,2.1109,2.1109,2.1109,2.1363,2.1643,2.1991,2.2525,2.2565,2.2124,2.2365,2.2017,2.1176,2.1122,2.1082,2.1078,2.2011,2.317,2.4373,2.5518,0.0,0.0,0.0,0.0,0.0,0.0,0.0,0.0,2.7689,2.8144,2.875,2.8887,0.0,0.0,0.0,0.0,0.0,2.9961,3.0801,3.1601,3.1973,3.1367,3.1091,3.2772,3.3828,3.4562,3.488,3.8255,4.0794,3.9531,4.1237,4.3118,4.3915,4.4794,4.6828,5.0946,5.2302,5.3632,5.5717,5.657,5.7499,5.8855,5.9709,5.9935,5.9307,5.7801,5.642,5.5315,5.426,5.3457,5.2955,5.2929,5.2879,5.2804,5.2804,5.2302,5.1297,5.2226,5.2176,5.1322,5.2251,5.2176,5.1197,4.969,4.9188,4.9314,4.7355,4.7029,4.7732,4.7205,4.6728,4.6301,4.6225,4.5522,4.4593,0.0,0.0,0.0,0.0,0.0,0.0,0.0,0.0,0.0,0.0,0.0,0.0,0.0,0.0,0.0,0.0,2.0067,2.0361,2.0655,2.0949,2.1109,2.1109,2.1109,2.1109,2.1109,2.1149,2.1443,2.1991,2.2325,2.2565,2.2726,2.2779,2.2325,2.1534,2.1216,2.0975,2.077,2.0402,2.1112,2.2485,2.3334,0.0,0.0,0.0,0.0,0.0,0.0,0.0,0.0,2.7591,2.7806,2.7988,2.8691,0.0,0.0,0.0,0.0,0.0,2.9453,3.0566,3.1543,3.1601,3.0684,3.0037,3.1072,3.2635,3.3927,3.4075,3.7582,4.0695,4.0976,4.36,4.5573,4.5271,4.7255,4.9741,5.2302,5.4762,5.5917,5.4938,5.8127,5.9433,5.6947,5.8478,5.9207,5.8227,5.7022,5.5867,5.4762,5.4059,5.3457,5.2955,5.2929,5.2703,5.2226,5.2226,5.1925,5.1272,5.1448,5.1448,5.1297,5.1448,5.1448,5.1247,5.0494,4.969,4.8837,4.8008,4.7506,4.7205,4.6652,4.6376,4.625,4.5773,4.5196,4.4493,0.0,0.0,0.0,0.0,0.0,0.0,0.0,0.0,0.0,0.0,0.0,0.0,0.0,0.0,0.0,0.0,1.9826,2.012,2.0414,2.0708,2.0949,2.1096,2.1109,2.1109,2.1109,2.1269,2.163,2.2218,2.2512,2.2819,2.31,2.2619,2.1924,2.1132,2.0935,2.0708,2.0523,2.1715,2.2601,2.3387,0.0,0.0,0.0,0.0,0.0,0.0,0.0,0.0,0.0,0.0,2.7129,2.7383,2.7773,0.0,0.0,0.0,0.0,0.0,2.8652,2.9316,3.0059,3.123,3.125,3.1427,3.2995,3.4026,3.489,3.5911,3.8233,4.0323,4.1239,4.3321,4.5648,4.7807,5.072,5.298,5.3708,5.4913,5.5641,5.5465,5.6997,5.7675,5.6746,5.7575,5.7826,5.7047,5.5942,5.4963,5.4135,5.3582,5.3181,5.2929,5.2628,5.2352,5.2101,5.1498,5.0921,5.0368,5.0996,5.0971,5.0393,5.0996,5.1096,5.0745,4.9565,4.8937,4.8661,4.7205,4.6803,4.7079,4.6527,4.6301,4.62,4.5347,4.4669,4.4066,0.0,0.0,0.0,0.0,0.0,0.0,0.0,0.0,0.0,0.0,0.0,0.0,0.0,0.0,0.0,0.0,1.9639,1.9893,2.012,2.0414,2.0708,2.0989,2.1002,2.1069,2.1203,2.151,2.1977,2.2632,2.2993,2.3327,2.3621,2.2712,2.1871,2.1069,2.0802,2.0692,2.0851,2.2836,2.3804,2.4238,0.0,0.0,0.0,0.0,0.0,0.0,0.0,0.0,0.0,0.0,0.0,0.0,0.0,0.0,0.0,2.709,2.7012,2.7168,2.7812,2.8281,2.8965,3.0527,3.1152,3.2077,3.4573,3.5199,3.5882,3.8298,3.976,4.1081,4.2282,4.3786,4.6125,5.0318,5.3482,5.5415,5.5516,5.5641,5.6043,5.6872,5.6495,5.6495,5.7349,5.7072,5.662,5.6068,5.4988,5.411,5.3557,5.313,5.2879,5.2729,5.2327,5.1975,5.1699,5.0845,5.0268,4.9992,5.0594,5.0569,5.0017,5.0619,5.072,5.0343,4.8786,4.8284,4.8435,4.6627,4.6301,4.6878,4.6326,4.5949,4.5623,4.4744,4.4091,4.3539,0.0,0.0,0.0,0.0,0.0,0.0,0.0,0.0,0.0,0.0,0.0,0.0,0.0,0.0,1.943,1.943,1.9639,1.9813,1.9826,2.0107,2.0401,2.0695,2.0708,2.0962,2.1574,2.1804,2.2378,2.326,2.3834,2.4262,2.4529,2.3647,2.2899,2.2245,2.1162,2.1291,2.232,2.1957,2.2392,2.3398,2.4545,0.0,0.0,0.0,0.0,0.0,0.0,0.0,0.0,0.0,0.0,0.0,0.0,0.0,2.6543,2.6914,2.7012,2.7031,2.709,2.8262,2.9414,2.918,2.9121,3.0,3.3407,3.4534,3.6004,4.0225,4.2389,4.3984,4.5679,4.6867,4.8736,5.2176,5.4235,5.6093,5.8127,5.883,5.9182,5.9257,5.8805,5.8504,5.8604,5.7198,5.6043,5.5491,5.4411,5.3532,5.3005,5.2955,5.2678,5.2176,5.2126,5.1599,5.0544,5.0469,5.067,5.1147,5.0167,5.0218,5.1122,5.0167,4.9967,5.0343,4.9213,4.8435,4.7908,4.728,4.6753,4.6326,4.5773,4.4895,4.3966,4.389,4.3514,4.3037,0.0,0.0,0.0,0.0,0.0,0.0,0.0,0.0,0.0,0.0,0.0,1.9239,1.9417,0.0,1.943,1.943,1.9466,1.9613,1.9786,1.9907,2.0094,2.0388,2.0401,2.0681,2.1269,2.2098,2.2966,2.3875,2.4462,2.4329,2.3527,2.3006,2.2151,2.1029,2.1348,2.17,2.2075,2.3958,2.4984,2.5456,2.6547,2.6736,0.0,0.0,0.0,0.0,0.0,0.0,0.0,0.0,2.6172,2.6367,2.625,2.6309,2.6367,2.625,2.6406,2.6621,2.6621,2.7285,2.8203,2.9101,2.873,2.9258,3.3496,3.4903,3.6359,4.0034,4.1983,4.3684,4.586,4.8611,5.1046,5.2653,5.5189,5.7248,5.8102,5.8679,5.888,5.8554,5.77,5.7173,5.7173,5.5641,5.4561,5.4361,5.3632,5.313,5.2929,5.2603,5.2327,5.2126,5.1423,5.0695,4.9916,4.9565,4.9314,4.9188,4.9464,4.964,4.9715,4.9289,4.9188,4.9339,4.856,4.8109,4.7857,4.7355,4.6602,4.5748,4.5171,4.4468,4.379,4.379,4.3463,4.2986,0.0,0.0,0.0,0.0,0.0,0.0,0.0,0.0,1.8094,0.0,0.0,0.0,0.0,1.943,1.943,0.0,1.943,1.9511,1.9653,1.9666,1.9786,2.008,2.0094,2.0414,2.1096,2.2258,2.326,2.4062,2.4743,2.4462,2.3273,2.2686,2.2092,2.1541,2.1876,2.2509,2.3488,2.5608,2.6738,2.7102,2.7829,2.7832,0.0,0.0,0.0,0.0,0.0,0.0,0.0,0.0,2.6055,2.6152,2.5996,2.6055,2.6152,2.5996,2.6152,2.6367,2.623,2.6699,2.7461,2.8496,2.8301,2.9023,3.3476,3.5159,3.7023,4.1516,4.3686,4.5254,4.6784,4.9264,5.1348,5.2251,5.4913,5.6972,5.7323,5.7851,5.7976,5.7424,5.652,5.5942,5.5942,5.4587,5.3708,5.3708,5.3231,5.2929,5.2929,5.2402,5.2026,5.185,5.0921,5.0067,4.9339,4.8962,4.8485,4.7908,4.8686,4.8862,4.851,4.851,4.851,4.846,4.7908,4.7657,4.7631,4.7104,4.6225,4.5171,4.4593,4.4016,4.3539,4.3539,4.3313,4.2986,0.0,0.0,0.0,0.0,0.0,0.0,0.0,0.0,1.6783,1.6985,1.8402,0.0,0.0,0.0,0.0,0.0,1.943,1.943,1.943,1.943,1.9492,1.9786,1.98,2.0201,2.1082,2.2245,2.3222,2.3768,2.4649,2.477,2.4155,2.2966,2.3148,2.4312,2.2751,2.3931,2.7068,2.6388,2.6782,2.7728,2.7728,2.7402,2.6973,0.0,0.0,0.0,0.0,0.0,0.0,0.0,2.6094,2.5771,2.625,2.6094,2.5771,2.6269,2.6387,2.6289,2.581,2.668,2.7591,2.7109,2.7656,2.9297,3.3207,3.5041,3.7984,4.5201,4.824,4.9414,4.8887,4.8786,4.9339,5.1021,5.313,5.4938,5.6043,5.6671,5.6821,5.6269,5.5717,5.5365,5.5365,5.4361,5.3683,5.3683,5.3231,5.2929,5.2929,5.2402,5.185,5.1297,5.0695,4.9866,4.8761,4.8825,4.846,4.7883,4.7883,4.7908,4.7908,4.7908,4.7908,4.7883,4.7355,4.7129,4.7043,4.6527,4.5623,4.4568,4.4016,4.3463,4.2986,4.2986,4.2986,4.2986,0.0,0.0,0.0,0.0,0.0,0.0,0.0,0.0,1.8249,1.8339,1.8937,0.0,0.0,0.0,0.0,0.0,0.0,1.943,1.943,1.943,1.947,1.9492,1.9492,1.972,2.0174,2.1336,2.2645,2.4075,2.4128,2.4077,2.388,2.3472,2.3636,2.4407,2.5671,2.6276,2.6516,2.8258,2.8639,2.8105,2.8105,2.7851,2.7461,0.0,0.0,0.0,0.0,0.0,0.0,0.0,0.0,0.0,2.5849,2.6055,2.623,2.6348,2.6602,2.668,2.5888,2.5966,2.6348,2.6523,2.7441,2.9001,3.1819,3.3376,3.6282,4.3871,4.6614,4.8011,4.9171,5.0318,5.1147,5.1272,5.313,5.4687,5.5013,5.5541,5.5666,5.5114,5.4561,5.421,5.421,5.3557,5.3155,5.3155,5.3005,5.2754,5.2377,5.1825,5.1272,5.0695,4.9766,4.8912,4.8184,4.7807,4.733,4.6778,4.6778,4.6979,4.7355,4.7355,4.7355,4.733,4.6803,4.6778,4.7029,4.5673,4.4694,4.3991,4.3438,4.3112,4.2986,4.2986,4.2986,4.2986,0.0,0.0,0.0,0.0,0.0,0.0,1.8655,1.8918,1.8958,1.9078,1.9252,1.9305,0.0,0.0,0.0,1.943,1.943,1.943,1.943,1.943,1.943,1.943,1.9479,1.984,2.0481,2.1253,2.2084,2.3153,2.3207,2.3389,2.3606,2.3735,2.4574,2.6035,2.7557,2.8058,2.7827,2.9101,2.9062,2.8047,2.8047,2.7793,2.7422,0.0,0.0,0.0,0.0,0.0,0.0,0.0,0.0,0.0,2.5693,2.6035,2.6387,2.6387,2.6445,2.6415,2.6239,2.625,2.6465,2.7422,2.8242,2.9435,3.169,3.4865,3.8849,4.4088,4.6646,4.833,4.9671,5.0745,5.1398,5.1297,5.2929,5.416,5.3934,5.4386,5.4511,5.3984,5.3607,5.3381,5.3381,5.2904,5.2603,5.2603,5.2402,5.2126,5.18,5.1247,5.067,5.0117,4.9238,4.8385,4.7606,4.728,4.6753,4.5974,4.62,4.625,4.609,4.6602,4.6702,4.6451,4.5899,4.5949,4.6376,4.4895,4.3966,4.3438,4.3112,4.2836,4.274,4.2886,4.2986,4.2986,0.0,0.0,1.5582,1.6036,0.0,0.0,1.8798,1.8905,1.9011,1.9252,1.9319,1.9332,0.0,0.0,0.0,1.9417,1.943,1.943,1.943,1.943,1.943,1.943,1.9639,2.0321,2.1507,2.1507,2.1494,2.1494,2.2017,2.2679,2.3439,2.4049,2.5818,2.8496,2.8747,2.9289,3.0019,2.9258,2.8418,2.7669,2.7708,2.7422,2.7109,2.7571,0.0,0.0,0.0,0.0,0.0,0.0,0.0,0.0,2.5693,2.6016,2.6348,2.6426,2.6133,2.5927,2.6836,2.7012,2.7344,2.8945,2.9492,3.0234,3.2559,3.8121,4.3294,4.5046,4.7575,4.9715,5.0318,5.0469,5.0645,5.1122,5.2477,5.3331,5.2904,5.3256,5.3406,5.298,5.2929,5.2904,5.2854,5.2402,5.2076,5.2026,5.1523,5.1172,5.1122,5.0569,5.0017,4.9464,4.8912,4.8109,4.7079,4.7004,4.6476,4.5497,4.5949,4.5648,4.4744,4.5773,4.5924,4.5372,4.4844,4.4895,4.5246,4.4217,4.3438,4.2911,4.2911,4.2665,4.2263,4.266,4.2861,4.2911,0.0,0.0,1.6187,1.736,0.0,0.0,1.8531,1.8771,1.8865,1.8704,1.8878,1.9025,1.9025,1.9025,0.0,1.9403,1.943,1.943,1.943,1.943,1.943,1.943,1.9639,2.0134,2.0918,2.0641,2.0521,2.0521,2.1109,2.2343,2.4108,2.5017,2.6852,2.9335,3.0084,2.9948,2.918,2.9004,2.8242,2.7187,2.7519,2.7669,2.7539,2.7689,2.7924,0.0,0.0,0.0,0.0,0.0,0.0,0.0,2.5693,2.5752,2.5966,2.668,2.6582,2.6445,2.7285,2.7031,2.6699,2.7383,2.8828,3.0996,3.4531,3.7363,4.0146,4.3354,4.6658,4.9238,5.0243,5.0795,5.0996,5.067,5.1272,5.19,5.2226,5.2377,5.2578,5.2879,5.2929,5.2754,5.2327,5.2176,5.1925,5.1498,5.0921,5.0419,4.9992,4.9414,4.8862,4.8284,4.7757,4.7154,4.6502,4.605,4.5723,4.5497,4.5146,4.5095,4.5296,4.5547,4.5347,4.4794,4.4669,4.4443,4.4141,4.389,4.3212,4.2389,4.2389,4.2313,4.2162,4.1806,4.1957,4.2389,0.0,0.0,0.0,0.0,0.0,0.0,0.0,0.0,1.9038,1.8731,1.8824,1.8918,1.8918,1.8798,0.0,0.0,1.9078,1.9158,1.9158,1.9158,1.9279,1.9559,1.972,2.008,2.0668,2.0388,2.016,2.0027,2.0187,2.1682,2.444,2.5344,2.7404,3.0215,3.0684,3.0391,2.9492,2.8867,2.8125,2.7344,2.7578,2.7591,2.7344,2.7344,2.7363,2.7324,2.6894,0.0,0.0,0.0,0.0,0.0,0.0,0.0,2.5469,2.5703,2.5918,2.6211,2.6875,2.7168,2.7598,2.8867,3.0625,3.2539,3.4355,3.6282,3.8573,4.1479,4.4812,4.7597,4.896,4.969,4.9992,4.969,5.0318,5.0971,5.1247,5.1523,5.1825,5.2101,5.2126,5.2026,5.1749,5.1473,5.1071,5.0519,4.9941,4.9389,4.8812,4.851,4.8109,4.7556,4.7029,4.6476,4.5924,4.5347,4.4945,4.4669,4.4644,4.4644,4.4669,4.4669,4.4669,4.4593,4.4066,4.3664,4.3388,4.3112,4.2359,4.1404,4.1656,4.1605,4.1379,4.13,4.153,4.1756,0.0,0.0,0.0,0.0,0.0,0.0,0.0,0.0,0.0,1.8878,1.8798,1.8755,1.8918,1.8624,1.8437,0.0,0.0,0.0,1.8851,1.8851,1.9105,1.9693,1.972,2.0,2.0588,2.0267,1.996,1.972,1.9662,2.1406,2.4894,2.5612,2.7724,3.0996,3.084,3.0469,2.9902,2.8613,2.791,2.7728,2.7806,2.7559,2.7226,2.7148,2.6914,2.6504,2.5752,2.5781,2.6113,2.5019,0.0,0.0,0.0,0.0,2.4824,2.4687,2.5117,2.5762,2.6426,2.748,2.8906,3.0996,3.2519,3.3535,3.3535,3.5113,3.7234,3.9481,4.2616,4.5532,4.7171,4.7958,4.836,4.836,4.9188,4.9916,5.0117,5.0619,5.1021,5.1122,5.1222,5.1197,5.1021,5.0544,5.0017,4.9339,4.8786,4.8284,4.7807,4.7606,4.728,4.6853,4.6301,4.5748,4.5196,4.4719,4.4242,4.3815,4.4267,4.4141,4.3514,4.3514,4.3765,4.4141,4.3237,4.2785,4.266,4.2263,4.143,4.0551,4.0974,4.0874,4.0551,4.0874,4.1075,4.115,0.0,0.0,0.0,0.0,0.0,0.0,0.0,0.0,0.0,0.0,1.8317,1.8302,1.8865,1.8382,1.8155,1.8464,1.8531,1.8544,1.8544,0.0,0.0,1.9457,1.9426,1.9693,2.0281,1.976,1.9466,1.9426,2.006,2.2425,2.6328,2.6429,2.8271,3.1406,3.0625,2.9844,2.9004,2.7734,2.7383,2.7748,2.8066,2.8164,2.8086,2.7715,2.7591,2.7493,2.6934,2.6348,2.5752,2.5577,2.5089,0.0,0.0,0.0,2.418,2.5206,2.5371,2.5488,2.7121,2.8144,2.9258,3.1074,3.1426,3.1797,3.3574,3.3961,3.4659,3.7234,4.0785,4.3916,4.55,4.6276,4.6627,4.6627,4.7154,4.7908,4.8862,4.9464,4.9992,5.0469,5.0971,5.0896,4.9916,4.9741,4.9264,4.8209,4.7657,4.7305,4.723,4.6326,4.5773,4.5723,4.5146,4.4593,4.4041,4.394,4.3865,4.379,4.3865,4.3363,4.2439,4.2439,4.2464,4.2539,4.2389,4.2007,4.1501,4.1426,4.1078,4.0526,4.0601,4.0576,4.0475,4.0074,4.0224,4.0626,0.0,0.0,0.0,0.0,0.0,0.0,0.0,0.0,0.0,0.0,0.0,1.8089,1.8355,1.805,1.7836,1.7969,1.8143,1.8237,1.8237,1.8397,1.8611,1.8865,1.9038,1.9239,1.9492,1.9252,1.9038,1.8878,1.9823,2.2692,2.7356,2.7948,2.9659,3.2187,3.1328,3.0312,2.9219,2.8164,2.7851,2.8027,2.8223,2.8301,2.8223,2.7559,2.7148,2.6855,2.6172,2.5684,2.5293,2.4805,2.4551,2.429,2.3803,0.0,0.0,0.0,2.5019,2.5879,2.7832,2.8301,2.8809,3.1269,3.1191,3.1055,3.3223,3.3008,3.3069,3.5602,3.7923,4.0387,4.319,4.4581,4.5372,4.5372,4.61,4.6853,4.733,4.8109,4.8736,4.8987,4.9238,4.9188,4.8711,4.8937,4.8661,4.7556,4.7531,4.7179,4.625,4.5748,4.5347,4.502,4.4468,4.389,4.3338,4.3037,4.2886,4.2886,4.2559,4.2333,4.2213,4.1831,4.1706,4.1706,4.1706,4.1379,4.0824,4.0824,4.0551,4.0049,4.0049,4.0049,4.0023,3.9798,3.9848,4.0049,0.0,0.0,0.0,0.0,0.0,0.0,0.0,0.0,0.0,0.0,0.0,1.7902,1.7982,0.0,0.0,0.0,1.7796,1.7876,1.7876,1.813,1.829,1.837,1.8584,1.8731,1.8811,1.8731,1.8751,1.8906,2.0006,2.3134,2.8182,2.9416,3.1195,3.3242,3.2266,3.1113,2.99,2.8867,2.8574,2.875,2.8535,2.8398,2.8203,2.7344,2.6816,2.6426,2.5547,2.5204,2.4988,2.4199,2.4082,2.4121,2.3335,2.3437,0.0,0.0,0.0,2.6083,2.7949,2.8066,2.8315,3.0723,3.0527,3.0195,3.2031,3.1699,3.1604,3.3672,3.5211,3.7135,4.0304,4.2574,4.4041,4.4192,4.502,4.5673,4.5673,4.6602,4.7355,4.7481,4.7631,4.7707,4.7707,4.8109,4.7958,4.7004,4.7154,4.6778,4.5547,4.5221,4.4794,4.4217,4.3664,4.3112,4.2559,4.2158,4.1957,4.1957,4.153,4.148,4.1785,4.1304,4.1,4.0874,4.1025,4.0774,4.03,4.03,4.0074,3.9697,3.9697,3.9697,3.9697,3.9697,3.9697,3.9697,0.0,0.0,0.0,0.0,0.0,0.0,0.0,0.0,0.0,0.0,0.0,1.7716,1.7955,1.7769,1.7582,1.7582,1.7595,1.7609,1.7609,1.7622,1.7756,1.8009,1.8035,0.0,1.8504,1.8182,1.8711,1.9991,2.1087,2.4096,2.8778,3.0577,3.2555,3.4551,3.3281,3.2012,3.0742,2.9434,2.9355,3.0019,2.9219,2.8652,2.8203,2.7344,2.7012,2.6875,2.5966,2.543,2.5047,2.4531,2.4141,2.375,2.3237,2.3437,2.3867,0.0,0.0,0.0,2.6855,2.7383,2.7891,2.8848,2.873,2.8633,2.957,2.9783,2.9978,3.0917,3.3021,3.5088,3.6707,3.9898,4.2514,4.2986,4.3564,4.394,4.394,4.4895,4.5799,4.6326,4.6853,4.7118,4.7118,4.7143,4.6979,4.6401,4.5899,4.5573,4.5497,4.4468,4.3639,4.3087,4.259,4.1982,4.1376,4.1351,4.1326,4.1326,4.13,4.1025,4.0601,4.0576,4.0275,3.9798,4.0325,4.0249,3.9747,3.9747,3.9722,3.9697,3.9697,3.9697,3.9697,3.9697,3.9697,3.9697,0.0,0.0,0.0,0.0,0.0,0.0,0.0,0.0,0.0,0.0,0.0,0.0,0.0,1.7649,1.7582,1.7582,1.7582,1.7582,1.7582,1.7582,1.7635,1.7742,1.7889,1.7996,1.7903,1.7942,1.8573,1.9755,2.1062,2.3737,2.7651,2.9413,3.1113,3.2695,3.332,3.2441,3.0449,2.9941,2.9277,2.8613,2.9141,2.8926,2.8281,2.8242,2.8066,2.7715,2.6855,2.6289,2.5801,2.5078,2.4551,2.416,2.4004,2.4258,2.4707,2.5137,2.544,2.5869,2.6777,2.6719,2.6894,2.8848,2.8203,2.7578,2.9531,2.9551,2.9459,3.062,3.2327,3.4253,3.6254,3.8609,4.0569,4.1718,4.2384,4.2861,4.3212,4.3915,4.4618,4.5171,4.5723,4.6075,4.6075,4.6728,4.6903,4.6351,4.5447,4.4945,4.4945,4.3539,4.2715,4.2514,4.2313,4.1731,4.0827,4.045,4.045,4.0802,4.045,4.0375,4.0501,4.0149,3.9873,3.9697,3.9898,3.9873,3.9697,3.9697,3.9697,3.9697,3.9697,3.9697,3.9697,3.9697,3.9697,3.9697,0.0,0.0,0.0,1.9265,0.0,1.8464,1.8357,1.7903,1.7582,1.7582,0.0,0.0,0.0,0.0,1.7582,1.7582,1.7582,1.7582,1.7582,1.7582,1.7582,1.7582,1.7782,1.7796,1.7582,1.8194,1.9132,2.0282,2.171,2.4033,2.723,2.8542,2.9824,3.1113,3.2109,3.1934,3.0879,3.0703,2.998,2.8984,2.9238,2.9101,2.8711,2.8711,2.8535,2.8242,2.7812,2.7285,2.6699,2.5977,2.543,2.5019,2.4727,2.4727,2.4961,2.5566,2.5479,2.544,2.6348,2.6055,2.5996,2.8008,2.7324,2.666,2.8496,2.8809,2.8908,2.9802,3.1257,3.2993,3.5034,3.6734,3.8516,4.0682,4.153,4.2007,4.2384,4.2735,4.3313,4.4242,4.4518,4.4869,4.5422,4.615,4.6502,4.6326,4.5271,4.4618,4.4618,4.3237,4.2313,4.1882,4.1584,4.0978,4.0249,3.9873,3.9873,4.0249,3.9873,3.9898,4.0224,3.9848,3.9697,3.9697,3.9697,3.9697,3.9697,3.9697,3.9697,3.9697,3.9697,3.9697,3.9697,3.9697,3.9697,3.9697,1.9666,1.9559,1.9279,1.8971,1.8677,1.8397,1.8035,1.7782,1.7582,1.7582,0.0,0.0,0.0,0.0,0.0,1.7595,1.7595,1.7595,1.7582,1.7582,1.7582,1.7582,1.7582,1.7635,1.7687,1.8916,2.0333,2.1744,2.3085,2.5075,2.7689,2.8066,2.8926,3.0098,2.9707,3.0469,3.2012,3.1621,3.1426,3.123,2.9629,2.918,2.9414,2.8633,2.832,2.834,2.8769,2.8398,2.7669,2.7187,2.6758,2.625,2.5419,2.4805,2.4629,2.5421,2.505,2.4609,0.0,0.0,0.0,2.6133,2.6016,2.5771,2.6269,2.7344,2.8242,2.8295,2.9704,3.1343,3.2809,3.4326,3.6432,3.9848,4.0874,4.125,4.125,4.1275,4.1877,4.3564,4.3313,4.3639,4.5296,4.5472,4.5723,4.625,4.5221,4.4593,4.4593,4.3539,4.2434,4.1326,4.0275,3.9697,3.9697,3.9697,3.9697,3.9697,3.9697,3.9697,3.9697,3.9697,3.9697,3.9697,3.9697,3.9697,3.9697,3.9697,3.9697,3.9697,3.9697,3.9697,3.9697,3.9697,3.9697,3.9697,1.9132,1.9439,1.9519,1.9011,1.8677,1.8397,1.8035,1.7782,1.7582,0.0,0.0,0.0,1.7582,1.7782,1.7862,1.7862,1.7862,1.7822,1.7595,1.7582,1.7582,1.7582,1.7582,1.8042,1.902,1.942,2.0743,2.3135,2.382,2.5006,2.6758,2.7168,2.7734,2.8379,2.8555,2.875,2.9019,2.9766,2.9219,2.7949,2.9668,2.9297,2.7871,2.918,2.8906,2.793,2.8652,2.8574,2.8047,2.7637,2.7207,2.668,2.582,2.5421,2.5304,2.5273,2.5078,2.4863,2.4805,0.0,0.0,0.0,0.0,0.0,2.5742,2.6426,2.7247,2.8421,2.9339,3.069,3.3031,3.4469,3.5991,3.7987,3.9371,4.03,4.0701,4.1025,4.1656,4.2564,4.3187,4.3915,4.4794,4.5246,4.5547,4.5698,4.4292,4.3614,4.4016,4.261,4.1656,4.13,4.0275,3.9697,3.9697,3.9697,3.9697,3.9697,3.9697,3.9697,3.9697,3.9697,3.9697,3.9697,3.9697,3.9697,3.9697,3.9697,3.9697,3.9697,3.9697,3.9697,3.9697,3.9697,3.9697,3.9697,1.8771,1.9118,1.9292,1.8824,1.8597,1.8397,1.8035,1.7889,1.7729,0.0,0.0,0.0,1.7943,1.813,1.8129,1.8009,1.7876,1.7769,1.7595,1.8146,1.8447,1.8447,1.9005,1.9664,2.0436,2.0998,2.198,2.3381,2.4393,2.5237,2.584,2.6269,2.6621,2.6875,2.7109,2.709,2.6934,2.8047,2.8086,2.7578,2.916,2.9336,2.875,2.9805,2.959,2.8828,2.9687,2.9609,2.9043,2.8809,2.8086,2.7168,2.6434,2.5898,2.5488,2.5586,2.5145,2.4597,2.4668,2.4297,2.4082,2.4863,0.0,0.0,2.5254,2.6074,2.692,2.7874,2.8874,3.0214,3.2062,3.3489,3.4865,3.6525,3.8025,3.9346,4.0375,4.0601,4.1028,4.2087,4.2534,4.3162,4.4192,4.4794,4.5221,4.5472,4.4342,4.3514,4.3137,4.1982,4.1175,4.0949,4.0149,3.9697,3.9697,3.9697,3.9697,3.9697,3.9697,3.9697,3.9697,3.9697,3.9697,3.9697,3.9697,3.9697,3.9697,3.9697,3.9697,3.9697,3.9697,3.9697,3.9697,3.9697,3.9697,3.9697,0.0,1.8704,1.8811,1.8584,1.8517,1.841,1.8129,1.8062,1.7969,0.0,1.7996,1.8305,1.8766,1.8794,1.8645,1.8536,1.8275,1.8069,1.8,1.9118,1.9758,1.9677,2.0918,2.1694,2.1845,2.305,2.357,2.3305,2.4879,2.5586,2.5341,2.5586,2.5732,2.583,2.5732,2.5654,2.5654,2.6484,2.7519,2.8633,2.8496,2.9297,3.0586,3.0351,3.0156,3.0117,3.1094,3.0879,3.0117,3.0078,2.8984,2.763,2.7109,2.6152,2.5399,2.6035,2.5156,2.4082,2.4851,2.416,2.351,2.4707,2.4453,0.0,2.4949,2.5996,2.6894,2.6992,2.8223,2.9565,3.036,3.1749,3.333,3.5025,3.6668,3.8392,4.0072,4.0023,4.0325,4.1861,4.1656,4.2057,4.3639,4.4242,4.4744,4.5271,4.4769,4.3765,4.2288,4.163,4.1025,4.0526,3.9973,3.9697,3.9697,3.9697,3.9697,3.9697,3.9697,3.9697,3.9697,3.9697,3.9697,3.9697,3.9697,3.9697,3.9697,3.9697,3.9697,3.9697,3.9697,3.9697,3.9697,3.9697,3.9697,3.9697,1.8504,1.8544,1.8637,1.8811,1.8651,1.8557,1.8731,1.8557,1.8557,1.8971,1.8865,1.9302,2.0812,2.0501,2.0584,2.1692,2.1428,2.0984,2.0398,2.0566,2.0587,2.0264,2.0818,2.1659,2.2708,2.3372,2.4159,2.515,2.5538,2.6005,2.6621,2.5966,2.6044,2.6738,2.5986,2.5527,2.5215,2.5371,2.5996,2.7031,2.8652,2.9101,2.8945,3.0254,2.9883,2.8867,3.0449,3.0449,2.9629,2.9277,2.8496,2.7591,2.6758,2.6328,2.6035,2.5536,2.5125,2.4832,2.459,2.4355,2.4219,2.4473,2.4687,0.0,2.5067,2.5547,2.6142,2.6875,2.7285,2.7748,2.8601,3.024,3.1603,3.1952,3.4475,3.7061,3.8968,3.9873,4.0475,4.0802,4.153,4.2459,4.3689,4.389,4.4016,4.4116,4.3614,4.2961,4.2263,4.163,4.1025,4.0526,3.9973,3.9697,3.9697,3.9697,3.9697,3.9697,3.9697,3.9697,3.9697,3.9697,3.9697,3.9697,3.9697,3.9697,3.9697,3.9697,3.9697,3.9697,3.9697,3.9697,3.9697,3.9697,3.9697,3.9697,1.8103,1.8156,1.837,1.8651,1.8584,1.8584,1.8878,1.9388,1.9835,2.0047,2.0808,2.1627,2.2339,2.2237,2.2196,2.2376,2.2267,2.1856,2.1048,2.1656,2.1827,2.1418,2.2244,2.3128,2.402,2.4275,2.4583,2.5031,2.5479,2.5674,2.5723,2.5693,2.5908,2.6317,2.5888,2.5557,2.541,2.541,2.6035,2.7129,2.8237,2.875,2.9082,3.0391,3.0351,2.9668,3.0312,3.0117,2.9528,2.8828,2.8457,2.8144,2.7285,2.6875,2.6562,2.5918,2.5458,2.5067,2.4805,2.459,2.4414,2.4414,2.459,0.0,0.0,2.5078,2.5586,2.625,2.6562,2.7019,2.8045,2.9033,3.0037,3.12,3.3105,3.5087,3.6822,3.8562,3.9898,4.045,4.1003,4.1781,4.2861,4.2986,4.3087,4.3363,4.3137,4.261,4.1781,4.1229,4.0676,4.0124,3.9848,3.9697,3.9697,3.9697,3.9697,3.9697,3.9697,3.9697,3.9697,3.9697,3.9697,3.9697,3.9697,3.9697,3.9697,3.9697,3.9697,3.9697,3.9697,3.9697,3.9697,3.9697,3.9697,3.9697,1.7782,1.7876,1.8089,1.8437,1.8658,1.8891,1.9246,2.0451,2.1328,2.1246,2.264,2.3745,2.3938,2.3888,2.3644,2.3218,2.3134,2.2689,2.1735,2.2743,2.314,2.2545,2.3687,2.4492,2.4988,2.5067,2.4941,2.4668,2.5293,2.5332,2.4805,2.5304,2.5654,2.581,2.5732,2.5732,2.581,2.5732,2.6484,2.7728,2.7806,2.855,2.9724,3.0547,3.0781,3.0586,3.0215,2.9805,2.9316,2.8555,2.8457,2.8535,2.7773,2.7246,2.6836,2.6484,2.582,2.5195,2.5195,2.5,2.4766,2.4687,2.4805,2.4883,0.0,0.0,0.0,2.5635,2.6016,2.6547,2.7516,2.7772,2.8453,3.0379,3.1601,3.2742,3.412,3.6545,3.869,4.0022,3.9998,4.035,4.1609,4.1735,4.2011,4.261,4.266,4.2233,4.1175,4.0752,4.0249,3.9722,3.9697,3.9697,3.9697,3.9697,3.9697,3.9697,3.9697,3.9697,3.9697,3.9697,3.9697,3.9697,3.9697,3.9697,3.9697,3.9697,3.9697,3.9697,3.9697,3.9697,3.9697,3.9697,3.9697,3.9697,1.8009,1.7969,1.8089,1.8437,1.9271,2.0067,2.0615,2.1604,2.2543,2.3181,2.3178,2.3983,2.642,2.5129,2.4866,2.6869,2.634,2.538,2.4085,2.4562,2.4299,2.3055,2.3563,2.4062,2.4473,2.4863,2.5234,2.5538,2.5293,2.5488,2.6152,2.5469,2.5566,2.6289,2.5918,2.5957,2.6289,2.5898,2.6484,2.7748,2.8066,2.8769,2.9724,3.0547,3.041,2.9707,2.9668,2.9355,2.8926,2.8457,2.8066,2.7734,2.7246,2.6797,2.6445,2.6406,2.6035,2.5615,2.5615,2.5918,2.6074,2.5684,2.6103,2.6523,2.5713,0.0,2.6152,2.5752,0.0,2.5801,2.5947,0.0,0.0,2.6953,2.874,3.032,3.0927,3.3655,3.6474,3.8817,3.8165,3.8191,3.9823,3.9973,4.04,4.1401,4.1476,4.1254,4.0651,4.0551,4.0249,3.9722,3.9697,3.9697,3.9697,3.9697,3.9697,3.9697,3.9697,3.9697,3.9697,3.9697,3.9697,3.9697,3.9697,3.9697,3.9697,3.9697,3.9697,3.9697,3.9697,3.9697,3.9697,3.9697,3.9697,3.9697,1.8357,1.8115,1.8347,1.944,1.9916,2.0499,2.1658,2.3174,2.4702,2.6155,2.599,2.6425,2.8333,2.7576,2.7428,2.8711,2.8437,2.7676,2.6387,2.6016,2.5488,2.4641,2.4336,2.4355,2.4785,2.5028,2.5156,2.5352,2.543,2.5508,2.5625,2.5508,2.5644,2.5996,2.5771,2.5977,2.6387,2.6445,2.709,2.8027,2.7949,2.9112,3.0907,3.0892,3.0332,2.9512,2.9004,2.8711,2.8457,2.7773,2.793,2.8223,2.7305,2.7226,2.7402,2.6894,2.6445,2.6113,2.6113,2.625,2.6348,2.6172,2.6387,2.6562,2.6191,2.5859,2.5644,2.5674,0.0,0.0,0.0,0.0,0.0,0.0,2.7566,2.89,3.0035,3.1502,3.36,3.6818,3.7469,3.8065,3.912,3.922,3.9396,3.9873,3.9898,3.9798,3.9572,3.9873,3.9923,3.9697,3.9697,3.9697,3.9697,3.9697,3.9697,3.9697,3.9697,3.9697,3.9697,3.9697,3.9697,3.9697,3.9697,3.9697,3.9697,3.9697,3.9697,3.9697,3.9697,3.9697,3.9697,3.9697,3.9697,3.9697,1.9905,1.9346,1.9299,2.0734,2.1121,2.178,2.3356,2.4985,2.663,2.8272,2.7988,2.8295,2.9766,2.9004,2.8711,2.9548,2.9355,2.873,2.7559,2.6797,2.6191,2.5713,2.4621,2.4434,2.5234,2.5019,2.5019,2.5254,2.5586,2.5566,2.5254,2.5538,2.5693,2.5693,2.5693,2.5869,2.63,2.735,2.8221,2.8953,2.9416,3.0734,3.2413,3.1773,3.0654,2.9352,2.8965,2.8601,2.8184,2.7441,2.7812,2.8418,2.748,2.7539,2.7851,2.7344,2.6894,2.6562,2.6562,2.6641,2.668,2.6445,2.6465,2.6504,2.6269,2.5801,2.5527,2.584,2.5742,0.0,0.0,0.0,2.6152,2.6348,0.0,2.7945,2.8903,2.9574,3.1413,3.5185,3.68,3.7713,3.819,3.824,3.824,3.824,3.8467,3.8567,3.8466,3.922,3.9697,3.9697,3.9697,3.9697,3.9697,3.9697,3.9697,3.9697,3.9697,3.9697,3.9697,3.9697,3.9697,3.9697,3.9697,3.9697,3.9697,3.9697,3.9697,3.9697,3.9697,3.9697,3.9697,3.9697,3.9697,3.9697,2.3343,2.222,2.1237,2.2091,2.3306,2.4652,2.6037,2.7058,2.7916,2.8789,2.8184,2.853,3.0625,2.8594,2.7754,2.9434,2.8809,2.7969,2.709,2.6621,2.6191,2.5713,2.4056,2.3939,2.5635,2.4836,2.4863,2.5674,2.5674,2.5674,2.5674,2.5674,2.5693,2.5693,2.5693,2.5693,2.5889,2.8619,3.0062,3.0662,3.3294,3.4374,3.4253,3.3414,3.1381,2.9031,2.9919,2.9408,2.8223,2.7845,2.7728,2.7748,2.7708,2.7383,2.7129,2.7519,2.7344,2.6992,2.6992,2.7305,2.7474,2.6602,2.6699,2.6777,2.5888,2.6055,2.6348,2.6367,2.668,2.6953,2.6973,2.6973,2.6836,2.6445,2.7121,0.0,0.0,2.7959,3.0466,3.4276,3.5755,3.6455,3.648,3.648,3.648,3.648,3.7437,3.7789,3.7262,3.8793,3.9697,3.9697,3.9697,3.9697,3.9697,3.9697,3.9697,3.9697,3.9697,3.9697,3.9697,3.9697,3.9697,3.9697,3.9697,3.9697,3.9697,3.9697,3.9697,3.9697,3.9697,3.9697,3.9697,3.9697,3.9697,3.9697,2.4347,2.422,2.4005,2.4298,2.4097,2.4583,2.6497,2.6816,2.7519,2.9512,2.9023,2.9531,3.2266,3.1289,3.0547,3.084,3.0859,3.0254,2.8809,2.8574,2.8301,2.7871,2.7012,2.6426,2.6172,2.6152,2.5966,2.5693,2.5693,2.583,2.6172,2.583,2.5898,2.6133,2.5547,2.5449,2.5869,2.869,2.9944,3.0257,3.3164,3.3912,3.3321,3.3503,3.2787,3.1622,3.1592,3.1316,3.0893,3.0493,2.9947,2.9383,2.9096,2.9096,2.9239,2.9404,2.9761,3.0084,3.0084,3.0213,3.0056,2.8876,2.8439,2.8005,2.6842,2.6484,2.6387,2.6387,2.6719,2.7012,2.7012,2.7012,2.6973,2.6836,2.6816,2.6804,0.0,2.7934,3.01,3.3277,3.46,3.5554,3.6329,3.5424,3.4726,3.4726,3.4751,3.4826,3.5002,3.6935,3.8191,3.8567,3.9295,3.9697,3.9697,3.9697,3.9697,3.9697,3.9697,3.9697,3.9697,3.9697,3.9697,3.9697,3.9697,3.9697,3.9697,3.9697,3.9697,3.9697,3.9697,3.9697,3.9697,3.9697,3.9697,3.9747,2.554,2.5763,2.5826,2.6175,2.5744,2.5773,2.7033,2.7402,2.834,3.0605,3.0273,3.0762,3.3164,3.2539,3.1816,3.1543,3.1348,3.084,2.9863,2.8945,2.8652,2.9121,2.7851,2.7129,2.707,2.6738,2.6395,2.6142,2.583,2.5957,2.6387,2.5937,2.5801,2.5898,2.5488,2.5215,2.5251,2.9225,3.055,3.0357,3.3854,3.4893,3.4325,3.4594,3.4027,3.3077,3.3037,3.2755,3.2236,3.1972,3.1532,3.0965,3.0715,3.0794,3.103,3.103,3.1425,3.191,3.191,3.191,3.1689,3.0687,3.0206,2.9721,2.8944,2.864,2.8599,2.8814,2.8625,2.8396,2.8287,2.7685,2.7148,2.6836,2.6699,2.6626,0.0,2.7943,2.9763,3.2203,3.3826,3.5002,3.5705,3.4826,3.3872,3.3068,3.3043,3.3244,3.3596,3.5881,3.7437,3.799,3.9094,3.9697,3.9697,3.9697,3.9697,3.9697,3.9697,3.9697,3.9697,3.9697,3.9697,3.9697,3.9697,3.9697,3.9697,3.9697,3.9697,3.9697,3.9697,3.9697,3.9697,3.9697,3.9823,4.0049,2.6937,2.6699,2.668,2.7513,2.7969,2.8125,2.7787,2.8804,3.0252,3.1914,3.1816,3.2051,3.3281,3.2363,3.1601,3.1465,3.0351,2.9805,3.0117,2.791,2.748,2.9567,2.6906,2.63,2.8242,2.6719,2.622,2.7051,2.6161,2.6016,2.6445,2.5957,2.5527,2.5204,2.5566,2.5019,2.4321,3.0176,3.1991,3.1274,3.5424,3.7086,3.7111,3.6556,3.5089,3.3487,3.4207,3.365,3.2482,3.2482,3.2431,3.2381,3.2381,3.2381,3.2381,3.2381,3.2431,3.2482,3.2482,3.2482,3.2369,3.1968,3.1833,3.1811,3.1886,3.2221,3.2645,3.3169,3.2189,3.1106,3.0631,2.9051,2.7525,2.6671,2.6738,2.6864,2.6796,2.7916,2.9394,3.1311,3.3325,3.4625,3.4675,3.465,3.3721,3.1512,3.2315,3.3011,3.3111,3.5554,3.7287,3.799,3.8994,3.9597,3.9697,3.9647,3.9647,3.9697,3.9697,3.9697,3.9697,3.9697,3.9697,3.9697,3.9697,3.9697,3.9697,3.9697,3.9697,3.9697,3.9697,3.9697,3.9697,3.9697,4.0023,4.0475,2.6968,2.6934,2.6816,2.6738,2.7324,2.7845,2.7728,2.8804,3.0078,3.1504,3.2148,3.2715,3.3359,3.3418,3.2656,3.0684,3.084,3.0508,2.9316,2.9238,2.9473,3.0019,2.9297,2.8691,2.8301,2.8164,2.791,2.75,2.6953,2.6914,2.7324,2.623,2.584,2.6035,2.582,2.565,2.5788,3.0245,3.3424,3.5471,3.4923,3.573,3.7036,3.5655,3.5558,3.6137,3.596,3.5667,3.5355,3.5355,3.4703,3.3871,3.3871,3.3871,3.3871,3.3871,3.4557,3.5355,3.5355,3.5355,3.5065,3.3952,3.3427,3.2953,3.1958,3.2144,3.2527,3.2667,3.2989,3.288,3.1678,3.0548,2.932,2.8042,2.6543,2.6174,2.7867,2.7876,2.9057,3.2832,3.3021,3.3194,3.4022,3.3746,3.2742,3.0959,3.0708,3.1361,3.2993,3.379,3.5328,3.7914,3.7487,3.8064,3.9672,3.8868,3.8868,3.9697,3.9697,3.9697,3.9697,3.9697,3.9697,3.9697,3.9697,3.9697,3.9697,3.9697,3.9697,3.9697,3.9697,3.9697,3.9697,3.9697,3.9798,4.0023,2.6562,2.6621,2.6602,2.6172,2.7578,2.8711,2.8589,2.9258,3.0449,3.2129,3.2598,3.2949,3.3379,3.3809,3.334,3.1523,3.0937,3.0488,3.0078,2.9277,2.9316,3.0449,2.9941,2.9297,2.8574,2.8613,2.8418,2.793,2.7129,2.7051,2.7689,2.6348,2.5762,2.582,2.5957,2.5912,2.59,2.9855,3.3235,3.5915,3.4973,3.5504,0.0,3.5529,3.5805,3.6832,3.6531,3.6405,3.6405,3.6405,3.5906,3.5259,3.5259,3.5259,3.5259,3.5259,3.581,3.6405,3.6405,3.6405,3.6216,3.5475,3.5087,3.4798,3.453,3.4665,3.507,3.5548,3.5413,3.49,3.3907,3.1815,2.968,2.7885,2.6665,2.6618,2.874,2.9268,3.0568,3.357,3.3972,3.4098,3.4248,3.3093,3.1964,3.1035,3.0658,3.1035,3.2265,3.3765,3.5027,3.6182,3.701,3.7762,3.8241,3.7613,3.7864,3.8944,3.8467,3.8743,3.9697,3.9446,3.9471,3.9697,3.9697,3.9697,3.9697,3.9697,3.9697,3.9697,3.9697,3.9697,3.9697,3.9697,3.9848,4.0174,2.6025,2.6133,2.6289,2.5908,2.8105,2.9883,2.9902,3.041,3.1426,3.3184,3.3203,3.3144,3.3398,3.375,3.3633,3.2793,3.0937,3.0293,3.1367,2.8926,2.8476,3.0801,2.9726,2.9082,2.9082,2.8672,2.8457,2.8457,2.7187,2.6934,2.7689,2.6348,2.5527,2.5243,2.6212,2.6486,2.6432,2.9825,3.258,3.4679,3.5285,3.583,3.6207,3.5805,3.5956,3.6405,3.6405,3.6405,3.6405,3.6405,3.6405,3.6405,3.6405,3.6405,3.6405,3.6405,3.6405,3.6405,3.6405,3.6405,3.6405,3.6405,3.6405,3.6681,3.7663,3.7965,3.8316,3.9371,3.8322,3.7008,3.6473,3.3011,2.9572,2.7551,2.7175,2.7783,2.9574,3.1192,3.262,3.3765,3.5228,0.0,3.47,3.2918,3.1763,3.1612,3.1537,3.1562,3.1712,3.4368,3.5349,3.4148,3.686,3.7813,3.6631,3.6458,3.701,3.8216,3.7159,3.7687,3.9572,3.917,3.9195,3.9597,3.9672,3.9697,3.9697,3.9697,3.9697,3.9697,3.9697,3.9697,3.9697,3.9697,3.9998,4.0501,2.6465,2.6328,2.6465,2.6738,2.7519,2.8926,3.1407,3.2969,3.3789,3.3457,3.3965,3.4121,3.3496,3.3496,3.3203,3.2344,3.1601,3.1133,3.1016,3.0137,3.0019,3.0859,3.0293,2.9961,2.9961,2.957,2.9336,2.9336,2.8119,2.7571,2.7689,2.6348,2.5635,2.5644,2.7171,2.944,3.2038,3.2547,3.3731,3.5329,3.544,3.5558,3.5683,3.6081,3.6329,3.6405,3.6405,3.6405,3.6405,3.6405,3.6405,3.6405,3.6405,3.6405,3.6405,3.6405,3.6405,3.6405,3.6405,3.6405,3.6405,3.6405,3.6405,3.6581,3.7186,3.7688,3.8191,3.8868,3.9117,3.88,3.7479,3.4303,3.154,3.0433,2.9255,2.9015,3.067,3.1669,3.262,3.3765,3.455,3.4751,3.4098,3.4098,3.3771,3.2842,3.234,3.2466,3.342,3.3119,3.3646,3.5157,3.5332,3.6182,3.7688,3.681,3.7387,3.9396,3.8266,3.8165,3.9019,3.9396,3.9346,3.9044,3.9496,3.9697,3.9697,3.9697,3.9697,3.9697,3.9697,3.9697,3.9697,3.9697,3.9747,3.9973,2.7461,2.7012,2.6777,2.6973,2.8476,3.0156,3.1621,3.3848,3.5078,3.4199,3.4062,3.3887,3.3476,3.3418,3.3262,3.2851,3.1816,3.1289,3.1543,3.0488,3.0176,3.0859,3.0684,3.0732,3.102,3.0797,3.1059,3.1888,2.9528,2.8655,2.9114,2.6774,2.6062,2.6784,2.8727,3.0545,3.2246,3.3286,3.4061,3.4644,3.5597,3.5981,3.6006,3.6304,3.6405,3.6405,3.6405,3.6405,3.6405,3.6405,3.6405,3.6405,3.6405,3.6405,3.6405,3.6405,3.6405,3.6405,3.6405,3.6405,3.6405,3.6405,3.6405,3.6556,3.7061,3.7613,3.8165,3.8793,3.932,3.9136,3.718,3.5455,3.3923,3.2645,3.1809,3.1664,3.2459,3.3122,3.3716,3.4234,3.4781,3.5152,3.5177,3.5429,3.4751,3.2767,3.2365,3.2215,3.219,3.3043,3.3746,3.4248,3.5403,3.6358,3.7136,3.6681,3.7186,3.8793,3.7688,3.7914,3.9295,3.927,3.927,3.932,3.9572,3.9697,3.9697,3.9697,3.9697,3.9697,3.9697,3.9697,3.9697,3.9697,3.9873,4.0249,2.8828,2.8301,2.7891,2.8086,3.0,3.166,3.2129,3.4141,3.5449,3.5039,3.4219,3.3691,3.3691,3.3535,3.334,3.3164,3.2215,3.1623,3.1661,3.11,3.0886,3.1085,3.1572,3.201,3.235,3.2168,3.263,3.3787,3.1091,2.9913,3.0116,2.7877,2.7448,2.8643,3.0494,3.1517,3.2012,3.3862,3.4487,3.4389,3.5852,3.6405,3.6405,3.6405,3.6405,3.6405,3.6405,3.6405,3.6405,3.6405,3.6405,3.6405,3.6405,3.6405,3.6405,3.6405,3.6405,3.6405,3.6405,3.6405,3.6405,3.6405,3.6405,3.6556,3.7061,3.7513,3.799,3.8567,3.912,3.9014,3.7229,3.6761,3.6106,3.4679,3.4221,3.4042,3.3915,3.4575,3.4951,3.46,3.5082,3.5533,3.5701,3.5701,3.4695,3.2215,3.2365,3.2265,3.1537,3.3319,3.4022,3.3269,3.5579,3.6734,3.6581,3.6455,3.7036,3.8341,3.7236,3.7688,3.9496,3.9195,3.922,3.9521,3.9647,3.9697,3.9697,3.9697,3.9697,3.9697,3.9697,3.9697,3.9697,3.9697,3.9973,4.0425,3.0566,3.0586,3.0762,3.1543,3.1601,3.2168,3.4101,3.4316,3.4648,3.5742,3.5137,3.457,3.457,3.3887,3.3105,3.2344,3.3394,3.2854,3.0015,3.2908,3.3868,3.1806,3.3725,3.4659,3.4159,3.3768,3.3428,3.3086,3.2459,3.1146,2.9168,3.0105,3.092,3.171,3.2415,3.3592,3.5084,3.5301,3.5694,3.6141,3.6332,3.6405,3.6405,3.6405,3.6405,3.6405,3.6405,3.6405,3.6405,3.6405,3.6405,3.6405,3.6405,3.6405,3.6405,3.6405,3.6405,3.6405,3.6405,3.6405,3.6405,3.6405,3.6405,3.6556,3.7061,3.7236,3.7412,3.7965,3.8542,3.9069,3.9292,3.8542,3.7641,3.6991,3.5993,3.5015,3.4048,3.5228,3.5701,3.4148,3.4856,3.4931,3.352,3.3438,3.2842,3.1562,3.2867,3.3922,3.4324,3.3646,3.342,3.3796,3.5052,3.6157,3.7111,3.6656,3.7486,3.9521,3.8391,3.8241,3.902,3.9421,3.9371,3.8969,3.9471,3.9697,3.9697,3.9697,3.9697,3.9697,3.9697,3.9697,3.9697,3.9697,3.9722,3.9923,3.2324,3.1797,3.1465,3.207,3.2441,3.3027,3.416,3.4844,3.5645,3.6948,3.5719,3.4609,3.4355,3.4619,3.4554,3.3943,3.5023,3.51,3.35,3.456,3.489,3.3967,3.4813,3.5423,3.5776,3.5289,3.5329,3.6002,3.4162,3.2894,3.2267,3.1434,3.1595,3.2623,3.3918,3.4867,3.5508,3.5906,3.6157,3.6405,3.6405,3.6405,3.6405,3.6405,3.6405,3.6405,3.6405,3.6405,3.6405,3.6405,3.6405,3.6405,3.6405,3.6405,3.6405,3.6405,3.6405,3.6405,3.6405,3.6405,3.6405,3.6405,3.6405,3.6455,3.6681,3.6983,3.7236,3.7462,3.8241,3.9044,3.9597,3.932,3.8843,3.8291,3.7839,3.7136,3.6031,3.6433,3.6483,3.5529,3.5203,3.5052,3.5097,3.3891,3.3294,3.3803,3.3269,3.2692,3.2248,3.3093,3.3822,3.4374,3.5454,3.6885,3.8668,3.7789,3.814,3.9697,3.9245,3.9145,3.9371,3.9597,3.9572,3.9371,3.9597,3.9697,3.9697,3.9697,3.9697,3.9697,3.9697,3.9697,3.9697,3.9697,3.9898,4.03,3.3711,3.3184,3.2754,3.3066,3.3711,3.416,3.4082,3.5078,3.611,3.6893,3.598,3.528,3.5511,3.61,3.6178,3.5392,3.6569,3.6725,3.5199,3.6062,3.6318,3.5565,3.6241,3.6814,3.7363,3.6925,3.714,3.8015,3.5965,3.48,3.446,3.2645,3.244,3.3732,3.5158,3.578,3.5805,3.6207,3.6405,3.6405,3.6405,3.6405,3.6405,3.6405,3.6405,3.6405,3.6405,3.6405,3.6405,3.6405,3.6405,3.6405,3.6405,3.6405,3.6405,3.6405,3.6405,3.6405,3.6405,3.6405,3.6405,3.6405,3.6405,3.6405,3.6405,3.6707,3.7036,3.7362,3.8065,3.8843,3.9572,3.9697,3.9521,3.902,3.8919,3.8517,3.7337,3.7337,3.7036,3.6031,3.5052,3.4726,3.5374,3.3847,3.337,3.468,3.337,3.2215,3.1612,3.2893,3.3897,3.4449,3.5228,3.6709,3.8944,3.799,3.8241,3.9697,3.9697,3.9697,3.9697,3.9697,3.9697,3.9697,3.9697,3.9697,3.9697,3.9697,3.9697,3.9697,3.9697,3.9697,3.9722,3.9873,4.0174,4.0626,3.4609,3.5039,3.5351,3.5351,3.5703,3.5566,3.4258,3.4824,3.5335,3.5225,3.5974,3.7102,3.8659,3.8455,3.7641,3.6218,3.7827,3.7286,3.3588,3.7318,3.8607,3.6285,3.8405,3.937,3.8868,3.8868,3.8592,3.8015,3.799,3.6751,3.4509,3.3911,3.4313,3.5508,3.6107,3.6405,3.6405,3.6405,3.6405,3.6405,3.6405,3.6405,3.6405,3.6405,3.6405,3.6405,3.6405,3.6405,3.6405,3.6405,3.6405,3.6405,3.6405,3.6405,3.6405,3.6405,3.6405,3.6405,3.6405,3.6405,3.6405,3.6405,3.6405,3.6405,3.6405,3.6405,3.6732,3.7764,3.8015,3.8366,3.9496,3.9697,3.9521,3.902,3.8919,3.8517,3.7337,3.7663,3.7186,3.5002,3.4248,3.3696,3.3212,3.2566,3.2466,3.3068,3.3093,3.3294,3.3822,3.337,3.3345,3.3897,3.3922,3.4977,3.7186,3.6707,3.7536,3.9697,3.9697,3.9697,3.9697,3.9697,3.9697,3.9697,3.9697,3.9697,3.9697,3.9697,3.9697,3.9697,3.9697,3.9697,3.9747,4.03,4.0501,4.0676,3.3008,3.4023,3.4726,3.416,3.4648,3.498,3.457,3.5686,3.681,3.7597,3.8882,4.0068,4.1031,4.005,3.8951,3.8111,3.8567,3.8546,3.7721,3.8189,3.8567,3.8584,3.8541,3.8291,3.7739,3.741,3.7109,3.6885,3.6885,3.6541,3.5786,3.5637,3.5752,3.6107,3.6329,3.6405,3.6405,3.6405,3.6405,3.6405,3.6405,3.6405,3.6405,3.6405,3.6405,3.6405,3.6405,3.6405,3.6405,3.6405,3.6405,3.6405,3.6405,3.6405,3.6405,3.6405,3.6405,3.6405,3.6405,3.6405,3.6405,3.6405,3.6405,3.6405,3.6405,3.6405,3.6732,3.7789,3.8015,3.8341,3.9496,3.9697,3.9521,3.902,3.9195,3.917,3.8442,3.814,3.7613,3.6533,3.5579,3.5102,3.5349,3.4474,3.4148,3.468,3.4399,3.4123,3.3897,3.4449,3.5177,3.6107,3.6508,3.7412,3.8894,3.7965,3.8216,3.9697,3.9697,3.9697,3.9697,3.9697,3.9697,3.9697,3.9697,3.9697,3.9697,3.9697,3.9697,3.9697,3.9697,3.9697,3.9722,3.9898,4.0425,4.1075,3.293,3.3867,3.4473,3.3789,3.4735,3.542,3.4963,3.6541,3.8011,3.8648,3.9884,4.0989,4.1768,4.0788,3.9892,3.9552,3.9526,3.9546,3.9697,3.9044,3.8944,3.9672,3.9019,3.8492,3.814,3.7789,3.7662,3.7662,3.7461,3.7134,3.6732,3.6732,3.6606,3.6405,3.6405,3.6405,3.6405,3.6405,3.6405,3.6405,3.6405,3.6405,3.6405,3.6405,3.6405,3.6405,3.6405,3.6405,3.6405,3.6405,3.6405,3.6405,3.6405,3.6405,3.6405,3.6405,3.6405,3.6405,3.6405,3.6405,3.6405,3.6405,3.6405,3.6405,3.6405,3.6405,3.6732,3.7789,3.8015,3.8341,3.9496,3.9697,3.9572,3.922,3.9471,3.9572,3.922,3.8492,3.7789,3.7236,3.616,3.5755,3.6355,3.573,3.5554,3.6107,3.5408,3.5152,3.5429,3.5458,3.5809,3.6558,3.7111,3.7914,3.9044,3.8366,3.8567,3.9697,3.9697,3.9697,3.9697,3.9697,3.9697,3.9697,3.9697,3.9697,3.9697,3.9697,3.9697,3.9697,3.9697,3.9697,3.9722,3.9923,4.0576,4.13,3.3867,3.4258,3.4538,3.4196,3.5735,3.6666,3.5504,3.7429,3.8853,3.8618,3.9356,4.0265,4.1218,4.0852,4.0501,4.045,4.04,4.0149,3.9722,3.9622,3.9622,3.9697,3.9622,3.9572,3.9572,3.9546,3.9546,3.9572,3.9094,3.8341,3.7186,3.7236,3.6983,3.6455,3.6505,3.6531,3.6531,3.648,3.6455,3.6455,3.643,3.6405,3.6405,3.6405,3.6405,3.6405,3.6405,3.6405,3.6405,3.6405,3.6405,3.6405,3.6405,3.6405,3.6405,3.6405,3.6405,3.6405,3.6405,3.6405,3.6405,3.6405,3.6405,3.6405,3.6405,3.6405,3.6707,3.7739,3.799,3.8341,3.9446,3.9672,3.9672,3.9647,3.9672,3.9647,3.9546,3.8642,3.7789,3.7186,3.6282,3.5859,3.648,3.6581,3.6832,3.7211,3.6332,3.6386,3.7939,3.6536,3.5734,3.5784,3.6332,3.7086,3.8115,3.8115,3.8642,3.9697,3.9697,3.9697,3.9697,3.9697,3.9697,3.9697,3.9697,3.9697,3.9697,3.9697,3.9697,3.9697,3.9697,3.9697,3.9747,4.0275,4.0827,4.1351,3.1777,3.2773,3.3855,3.4308,3.5352,3.6279,3.6772,3.8445,3.9541,3.9522,4.0355,4.1022,4.1247,4.0852,4.035,3.9923,3.9094,3.8919,3.9647,3.8894,3.8793,3.9647,3.8868,3.8391,3.8391,3.799,3.799,3.8391,3.8718,3.8341,3.7186,3.7613,3.7513,3.701,3.7437,3.7613,3.7588,3.7161,3.6985,3.696,3.6581,3.6405,3.6405,3.6405,3.6405,3.6405,3.6405,3.6405,3.6405,3.6405,3.6405,3.6405,3.6405,3.6405,3.6405,3.6405,3.6405,3.6405,3.6405,3.6405,3.6405,3.6405,3.6405,3.6405,3.6405,3.6405,3.6606,3.7236,3.7713,3.8216,3.8919,3.9396,3.9546,3.9145,3.9421,3.9245,3.7965,3.7914,3.7638,3.6732,3.7061,3.7462,3.7613,3.8391,3.8592,3.7864,3.799,3.8065,3.8015,3.8065,3.8266,3.8693,3.8843,3.9044,3.9295,3.9295,3.9421,3.9697,3.9697,3.9697,3.9697,3.9697,3.9697,3.9697,3.9697,3.9697,3.9697,3.9697,3.9697,3.9697,3.9697,3.9697,3.9722,3.9848,4.0501,4.13,3.2148,3.3371,3.4635,3.5035,3.6714,3.8103,3.8424,3.9864,4.0769,4.055,4.0938,4.12,4.0949,4.0701,4.03,3.9747,3.912,3.9044,3.9647,3.912,3.9044,3.9672,3.9094,3.8768,3.8768,3.8492,3.8492,3.8768,3.9094,3.8793,3.7965,3.8266,3.809,3.7563,3.7864,3.8015,3.799,3.7688,3.7563,3.7538,3.7236,3.696,3.6807,3.701,3.6857,3.643,3.6707,3.6631,3.6455,3.6707,3.6782,3.6832,3.7036,3.6935,3.6784,3.7036,3.6807,3.6405,3.6405,3.6405,3.6405,3.6405,3.6405,3.6405,3.6405,3.6405,3.6631,3.7387,3.7789,3.8266,3.9094,3.9496,3.9521,3.902,3.8894,3.8517,3.7337,3.7236,3.7236,3.7136,3.7638,3.8216,3.8718,3.9346,3.9446,3.8818,3.8843,3.8843,3.8793,3.8843,3.912,3.9672,3.9697,3.9697,3.9697,3.9697,3.9697,3.9697,3.9697,3.9697,3.9697,3.9697,3.9697,3.9697,3.9697,3.9697,3.9697,3.9697,3.9697,3.9697,3.9697,3.9697,3.9697,3.9697,4.0224,4.0949,3.3713,3.484,3.599,3.6456,3.8794,4.0483,4.0185,4.1336,4.2037,4.153,4.1275,4.1025,4.0676,4.0501,4.0199,3.9747,3.9697,3.9697,3.9697,3.9697,3.9697,3.9697,3.9697,3.9697,3.9697,3.9697,3.9697,3.9697,3.9697,3.9421,3.8919,3.8994,3.8693,3.814,3.8216,3.8266,3.8266,3.8165,3.814,3.814,3.804,3.7739,3.7362,3.7839,3.7412,3.6732,3.7136,3.701,3.6732,3.7161,3.7312,3.7387,3.7864,3.7688,3.7387,3.7864,3.7337,3.6631,3.6556,3.6531,3.6531,3.6531,3.6606,3.6656,3.6656,3.6656,3.6933,3.7814,3.8065,3.8442,3.9396,3.9647,3.9496,3.8894,3.8316,3.7764,3.7036,3.6759,3.696,3.7789,3.8115,3.8642,3.9597,3.9697,3.9697,3.9697,3.927,3.9195,3.9672,3.9245,3.922,3.9672,3.9697,3.9697,3.9697,3.9697,3.9697,3.9697,3.9697,3.9697,3.9697,3.9697,3.9697,3.9697,3.9697,3.9697,3.9697,3.9697,3.9697,3.9697,3.9697,3.9747,3.9823,3.9823,4.0224,4.0827,3.515,3.5622,3.6639,3.9405,4.0303,4.0884,4.1712,4.2023,4.2187,4.2087,4.1229,4.0802,4.1125,4.0375,3.9798,3.9697,3.9697,3.9697,3.9697,3.9697,3.9697,3.9697,3.9697,3.9697,3.9697,3.9697,3.9697,3.9697,3.9697,3.9421,3.8919,3.9346,3.927,3.8768,3.922,3.9446,3.9396,3.8944,3.8793,3.8693,3.8216,3.7965,3.7889,3.7965,3.7889,3.7764,3.7839,3.7814,3.7764,3.7839,3.7889,3.7889,3.799,3.7939,3.7889,3.799,3.7889,3.7638,3.7186,3.7109,3.7109,3.7109,3.7412,3.7739,3.7739,3.7739,3.7789,3.7965,3.8391,3.8793,3.8969,3.9371,3.9346,3.8316,3.8065,3.7487,3.5959,3.6935,3.7638,3.7337,3.8567,3.9496,3.9672,3.9697,3.9697,3.9697,3.9622,3.9597,3.9697,3.9622,3.9597,3.9697,3.9697,3.9697,3.9697,3.9697,3.9697,3.9697,3.9697,3.9697,3.9697,3.9697,3.9697,3.9697,3.9697,3.9697,3.9697,3.9697,3.9697,3.9697,3.9697,3.9973,4.04,4.04,4.1028,4.1961,3.5499,3.6517,3.7843,4.0187,4.1305,4.1952,4.2178,4.2213,4.2213,4.2213,4.1455,4.1,4.125,4.0626,4.0023,3.9722,3.9697,3.9697,3.9697,3.9697,3.9697,3.9697,3.9697,3.9697,3.9697,3.9697,3.9697,3.9697,3.9697,3.9572,3.932,3.9572,3.9546,3.932,3.9572,3.9697,3.9672,3.9421,3.932,3.9295,3.9019,3.8743,3.8517,3.8793,3.8542,3.804,3.8366,3.8266,3.8065,3.8366,3.8467,3.8517,3.8818,3.8718,3.8542,3.8818,3.8492,3.7939,3.7688,3.7638,3.7638,3.7638,3.7814,3.8015,3.8015,3.8015,3.809,3.8417,3.8743,3.902,3.927,3.9521,3.9421,3.8617,3.7965,3.7186,3.6132,3.6885,3.7462,3.7211,3.8668,3.9697,3.9697,3.9697,3.9697,3.9697,3.9697,3.9697,3.9697,3.9697,3.9697,3.9697,3.9697,3.9697,3.9697,3.9697,3.9697,3.9697,3.9697,3.9697,3.9697,3.9697,3.9697,3.9697,3.9697,3.9697,3.9697,3.9697,3.9697,3.9697,3.9697,4.0023,4.0526,4.0526,4.1028,4.1756,3.599,3.7385,3.8817,4.0822,4.2206,4.2836,4.2464,4.2414,4.2414,4.2414,4.1856,4.153,4.153,4.1028,4.0475,3.9923,3.9898,3.9823,3.9697,3.9697,3.9697,3.9697,3.9697,3.9697,3.9697,3.9697,3.9697,3.9697,3.9697,3.9697,3.9697,3.9697,3.9697,3.9697,3.9697,3.9697,3.9697,3.9697,3.9697,3.9697,3.9697,3.9446,3.912,3.9521,3.9145,3.8467,3.8894,3.8768,3.8467,3.8919,3.912,3.9145,3.9572,3.9396,3.9145,3.9572,3.9069,3.8341,3.8065,3.809,3.8216,3.8216,3.8291,3.8391,3.8391,3.8391,3.8517,3.8969,3.912,3.9195,3.9622,3.9697,3.9471,3.8768,3.7839,3.7036,3.6656,3.691,3.7287,3.7538,3.8843,3.9697,3.9697,3.9697,3.9697,3.9697,3.9697,3.9697,3.9697,3.9697,3.9697,3.9697,3.9697,3.9697,3.9697,3.9697,3.9697,3.9697,3.9697,3.9697,3.9697,3.9697,3.9697,3.9697,3.9697,3.9697,3.9697,3.9697,3.9697,3.9697,3.9697,4.0023,4.0526,4.0651,4.1053,4.1605,3.7385,3.8104,3.917,4.2263,4.293,4.2961,4.2911,4.2911,4.2911,4.2911,4.2489,4.2137,4.2137,4.1605,4.1,4.0501,4.045,4.0249,3.9722,3.9697,3.9697,3.9697,3.9697,3.9697,3.9697,3.9697,3.9697,3.9697,3.9697,3.9697,3.9697,3.9697,3.9697,3.9697,3.9697,3.9697,3.9697,3.9697,3.9697,3.9697,3.9697,3.9672,3.9647,3.9672,3.9647,3.9572,3.9622,3.9597,3.9572,3.9622,3.9647,3.9647,3.9672,3.9672,3.9647,3.9697,3.9647,3.9346,3.8291,3.8391,3.8818,3.8818,3.9195,3.9572,3.9572,3.9572,3.9597,3.9622,3.9647,3.9647,3.9697,3.9697,3.9346,3.8241,3.7563,3.7161,3.7136,3.7161,3.7563,3.8668,3.9295,3.9697,3.9697,3.9697,3.9697,3.9697,3.9697,3.9697,3.9697,3.9697,3.9697,3.9697,3.9697,3.9697,3.9697,3.9697,3.9697,3.9697,3.9697,3.9697,3.9697,3.9697,3.9697,3.9697,3.9697,3.9697,3.9697,3.9697,3.9697,3.9697,3.9697,4.0023,4.0576,4.105,4.163,4.2238,3.9229,3.9698,4.0419,4.2625,4.2986,4.2986,4.2986,4.2986,4.2986,4.2986,4.2564,4.2213,4.2213,4.1656,4.12,4.1,4.0701,4.0425,4.0224,3.9873,3.9697,3.9697,3.9697,3.9697,3.9697,3.9697,3.9697,3.9697,3.9697,3.9697,3.9697,3.9697,3.9697,3.9697,3.9697,3.9697,3.9697,3.9697,3.9697,3.9697,3.9697,3.9697,3.9697,3.9697,3.9697,3.9697,3.9697,3.9697,3.9697,3.9697,3.9697,3.9697,3.9697,3.9697,3.9697,3.9697,3.9697,3.9597,3.917,3.922,3.9371,3.9371,3.9546,3.9697,3.9697,3.9697,3.9697,3.9697,3.9697,3.9697,3.9697,3.9697,3.9546,3.912,3.8592,3.8216,3.8216,3.8216,3.8391,3.8869,3.9346,3.9697,3.9697,3.9697,3.9697,3.9697,3.9697,3.9697,3.9697,3.9697,3.9697,3.9697,3.9697,3.9697,3.9697,3.9697,3.9697,3.9697,3.9697,3.9697,3.9697,3.9697,3.9697,3.9722,4.0049,3.9998,3.9722,4.0074,3.9998,3.9697,3.9697,4.0023,4.0576,4.1075,4.1681,4.2288,4.0303,4.0592,4.1133,4.2737,4.2986,4.2986,4.2986,4.2986,4.2986,4.2986,4.2715,4.2464,4.2464,4.2082,4.1781,4.1605,4.1103,4.0701,4.0526,3.9998,3.9697,3.9697,3.9697,3.9697,3.9697,3.9697,3.9697,3.9697,3.9697,3.9697,3.9697,3.9697,3.9697,3.9697,3.9697,3.9697,3.9697,3.9697,3.9697,3.9697,3.9697,3.9697,3.9697,3.9697,3.9697,3.9697,3.9697,3.9697,3.9697,3.9697,3.9697,3.9697,3.9697,3.9697,3.9697,3.9697,3.9697,3.9697,3.9697,3.9697,3.9697,3.9697,3.9697,3.9697,3.9697,3.9697,3.9697,3.9697,3.9697,3.9697,3.9697,3.9697,3.9647,3.9471,3.912,3.8919,3.8919,3.8919,3.8944,3.912,3.9471,3.9697,3.9697,3.9697,3.9697,3.9697,3.9697,3.9697,3.9697,3.9697,3.9697,3.9697,3.9697,3.9697,3.9697,3.9697,3.9697,3.9697,3.9697,3.9697,3.9697,3.9697,3.9697,3.9722,4.0275,4.0199,3.9747,4.03,4.0199,3.9697,3.9697,3.9923,4.035,4.1025,4.158,4.2007,4.0303,4.0592,4.1133,4.2737,4.2986,4.2986,4.2986,4.2986,4.2986,4.2986,4.2986,4.2986,4.2986,4.2986,4.276,4.2263,4.1656,4.105,4.0551,3.9998,3.9697,3.9697,3.9697,3.9697,3.9697,3.9697,3.9697,3.9697,3.9697,3.9697,3.9697,3.9697,3.9697,3.9697,3.9697,3.9697,3.9697,3.9697,3.9697,3.9697,3.9697,3.9697,3.9697,3.9697,3.9697,3.9697,3.9697,3.9697,3.9697,3.9697,3.9697,3.9697,3.9697,3.9697,3.9697,3.9697,3.9697,3.9697,3.9697,3.9697,3.9697,3.9697,3.9697,3.9697,3.9697,3.9697,3.9697,3.9697,3.9697,3.9697,3.9697,3.9697,3.9521,3.902,3.8919,3.8919,3.8919,3.8919,3.9069,3.9622,3.9697,3.9697,3.9697,3.9697,3.9697,3.9697,3.9697,3.9697,3.9697,3.9697,3.9697,3.9697,3.9697,3.9697,3.9697,3.9697,3.9697,3.9697,3.9697,3.9697,3.9697,3.9697,3.9697,3.9747,4.0275,4.0199,3.9747,4.03,4.0199,3.9697,3.9697,3.9697,3.9848,4.0874,4.1275,4.1451,4.2206,4.2263,4.2432,4.293,4.2986,4.2986,4.2986,4.2986,4.2986,4.2986,4.2986,4.2986,4.2986,4.2986,4.276,4.2263,4.1656,4.0899,3.9998,3.9798,3.9697,3.9697,3.9697,3.9697,3.9697,3.9697,3.9697,3.9697,3.9697,3.9697,3.9697,3.9697,3.9697,3.9697,3.9697,3.9697,3.9697,3.9697,3.9697,3.9697,3.9697,3.9697,3.9697,3.9697,3.9697,3.9697,3.9697,3.9697,3.9697,3.9697,3.9697,3.9697,3.9697,3.9697,3.9697,3.9697,3.9697,3.9697,3.9697,3.9697,3.9697,3.9697,3.9697,3.9697,3.9697,3.9697,3.9798,4.0199,4.0275,4.04,4.0724,4.0526,4.0224,4.0049,3.9697,3.9446,3.9446,3.9446,3.9521,3.9672,3.9697,3.9697,3.9697,3.9697,3.9697,3.9697,3.9697,3.9697,3.9697,3.9697,3.9697,3.9697,3.9697,3.9697,3.9697,3.9697,3.9697,3.9697,3.9697,3.9697,3.9697,3.9697,3.9898,4.03,4.0852,4.0777,4.035,4.1279,4.1128,4.03,4.0701,4.0601,4.04,4.1505,4.1656,4.1451,4.2986,4.2986,4.2986,4.2986,4.2986,4.2986,4.2986,4.2986,4.2986,4.2986,4.2986,4.2986,4.2986,4.2986,4.2836,4.2564,4.1781,4.0899,4.0074,3.9823,3.9697,3.9697,3.9898,3.9923,3.9697,3.9697,3.9697,3.9697,3.9697,3.9697,3.9697,3.9697,3.9697,3.9697,3.9697,3.9697,3.9697,3.9697,3.9697,3.9697,3.9697,3.9697,3.9697,3.9697,3.9697,3.9697,3.9697,3.9697,3.9697,3.9697,3.9697,3.9697,3.9697,3.9697,3.9697,3.9697,3.9697,3.9697,3.9697,3.9697,3.9697,3.9697,3.9697,3.9697,3.9697,3.9873,4.0124,4.045,4.0701,4.0824,4.0949,4.0752,4.045,4.0224,3.9898,3.9697,3.9697,3.9697,3.9697,3.9697,3.9697,3.9697,3.9697,3.9697,3.9697,3.9697,3.9697,3.9697,3.9697,3.9697,3.9697,3.9697,3.9697,3.9697,3.9697,3.9697,3.9697,3.9697,3.9697,3.9697,3.9697,3.9697,3.9998,4.0526,4.0824,4.0953,4.0877,4.1329,4.1254,4.0827,4.0727,4.0626,4.0601,4.1254,4.143,4.1401,4.2986,4.2986,4.2986,4.2986,4.2986,4.2986,4.2986,4.2986,4.2986,4.2986,4.2986,4.2986,4.2986,4.2986,4.2961,4.2911,4.1957,4.1075,4.0626,4.0124,3.9848,3.9848,4.0325,4.0325,3.9772,3.9772,3.9747,3.9697,3.9697,3.9697,3.9697,3.9697,3.9697,3.9697,3.9697,3.9697,3.9697,3.9697,3.9697,3.9697,3.9697,3.9697,3.9697,3.9697,3.9697,3.9697,3.9697,3.9697,3.9697,3.9697,3.9697,3.9697,3.9697,3.9697,3.9697,3.9697,3.9697,3.9697,3.9697,3.9697,3.9697,3.9697,3.9697,3.9697,3.9697,4.0124,4.0526,4.0576,4.0949,4.115,4.0752,4.0576,4.035,3.9848,3.9722,3.9697,3.9697,3.9697,3.9697,3.9697,3.9697,3.9697,3.9697,3.9697,3.9697,3.9697,3.9697,3.9697,3.9697,3.9697,3.9697,3.9697,3.9697,3.9697,3.9697,3.9697,3.9697,3.9697,3.9747,3.9772,3.9772,3.9772,4.0074,4.0601,4.0551,4.0802,4.1175,4.0724,4.0824,4.1175,4.0224,4.0149,4.0601,4.0601,4.0849,4.1376,4.2986,4.2986,4.2986,4.2986,4.2986,4.2986,4.2986,4.2986,4.2986,4.2986,4.2986,4.2986,4.2986,4.2986,4.2811,4.2414,4.1731,4.1225,4.1125,4.1,4.0924,4.0924,4.105,4.0902,4.035,4.035,4.0124,3.9697,3.9697,3.9697,3.9697,3.9697,3.9697,3.9697,3.9697,3.9697,3.9697,3.9697,3.9697,3.9697,3.9697,3.9697,3.9697,3.9697,3.9697,3.9697,3.9697,3.9697,3.9697,3.9697,3.9697,3.9697,3.9697,3.9697,3.9697,3.9697,3.9697,3.9697,3.9697,3.9697,3.9697,3.9697,3.9697,3.9697,3.9697,4.0124,4.0651,4.1025,4.12,4.143,4.1756,4.1103,4.0475,4.035,3.9973,3.9697,3.9697,3.9697,3.9697,3.9697,3.9697,3.9697,3.9697,3.9697,3.9697,3.9697,3.9697,3.9697,3.9697,3.9697,3.9697,3.9697,3.9697,3.9697,3.9697,3.9697,3.9697,3.9697,4.0124,4.035,4.035,4.035,4.0651,4.1075,4.0701,4.0576,4.0727,4.0974,4.1175,4.125,4.1025,4.1,4.11,4.11,4.1175,4.1426,4.2986,4.2986,4.2986,4.2986,4.2986,4.2986,4.2986,4.2986,4.2986,4.2986,4.2986,4.2986,4.2986,4.2986,4.2861,4.264,4.2057,4.1731,4.1731,4.148,4.1275,4.1275,4.1605,4.148,4.0874,4.1153,4.0777,3.9697,3.9697,3.9697,3.9697,3.9697,3.9697,3.9697,3.9697,3.9697,3.9697,3.9697,3.9697,3.9697,3.9697,3.9697,3.9697,3.9697,3.9697,3.9697,3.9697,3.9697,3.9697,3.9697,3.9697,3.9697,3.9697,3.9697,3.9697,3.9697,3.9697,3.9697,3.9697,3.9697,3.9697,3.9697,3.9697,3.9697,3.9697,4.0124,4.0601,4.0824,4.11,4.13,4.1379,4.0902,4.0425,4.0174,3.9873,3.9697,3.9697,3.9697,3.9697,3.9697,3.9697,3.9697,3.9697,3.9697,3.9697,3.9697,3.9697,3.9697,3.9697,3.9697,3.9697,3.9697,3.9697,3.9697,3.9697,3.9948,3.9948,3.9697,4.0249,4.0651,4.0849,4.0651,4.0953,4.1681,4.0877,4.0802,4.1279,4.1053,4.105,4.125,4.1,4.0953,4.0953,4.0953,4.1075,4.1451,4.2986,4.2986,4.2986,4.2986,4.2986,4.2986,4.2986,4.2986,4.2986,4.2986,4.2986,4.2986,4.2986,4.2986,4.2986,4.2986,4.2615,4.2363,4.2363,4.1882,4.1551,4.1551,4.2057,4.2032,4.1505,4.1907,4.1433,3.9848,3.9848,3.9798,3.9697,3.9697,3.9697,3.9697,3.9697,3.9697,3.9697,3.9697,3.9697,3.9697,3.9697,3.9697,3.9697,3.9697,3.9697,3.9697,3.9697,3.9697,3.9697,3.9697,3.9697,3.9697,3.9697,3.9697,3.9697,3.9697,3.9697,3.9697,3.9697,3.9697,3.9697,3.9697,3.9697,3.9697,3.9697,4.0199,4.0626,4.0526,4.0953,4.1125,4.0626,4.045,4.0224,3.9772,3.9697,3.9697,3.9697,3.9697,3.9697,3.9697,3.9697,3.9697,3.9697,3.9697,3.9697,3.9697,3.9697,3.9697,3.9697,3.9697,3.9697,3.9697,3.9697,3.9697,3.9697,4.0149,4.0249,3.9973,4.045,4.0902,4.1275,4.0852,4.1153,4.1957,4.1053,4.1128,4.1861,4.0902,4.0852,4.1225,4.0626,4.0501,4.0651,4.0651,4.0953,4.1426,4.2986,4.2986,4.2986,4.2986,4.2986,4.2986,4.2986,4.2986,4.2986,4.2986,4.2986,4.2986,4.2986,4.2986,4.2986,4.2986,4.2911,4.2861,4.2861,4.2811,4.276,4.276,4.2836,4.2665,4.2112,4.2162,4.1634,4.04,4.04,4.0149,3.9697,3.9697,3.9697,3.9697,3.9697,3.9697,3.9697,3.9697,3.9697,3.9697,3.9697,3.9697,3.9697,3.9697,3.9697,3.9697,3.9697,3.9697,3.9697,3.9697,3.9697,3.9697,3.9697,3.9697,3.9697,3.9697,3.9697,3.9697,3.9697,3.9697,3.9697,3.9697,3.9697,3.9697,3.9697,4.0501,4.105,4.0626,4.0953,4.1125,4.0626,4.0124,3.9772,3.9697,3.9697,3.9697,3.9697,3.9697,3.9697,3.9697,3.9697,3.9697,3.9697,3.9697,3.9697,3.9697,3.9697,3.9697,3.9697,3.9697,3.9697,3.9697,3.9697,3.9697,3.9697,3.9772,4.0249,4.1075,4.115,4.12,4.1275,4.12,4.125,4.1376,4.125,4.1053,4.0727,4.0576,4.0852,4.1175,4.0199,4.04,4.1175,4.1175,4.1225,4.1376,4.2986,4.2986,4.2986,4.2986,4.3237,4.3338,4.3037,4.3237,4.3313,4.3011,4.2986,4.2986,4.2986,4.2986,4.2986,4.2986,4.2986,4.2986,4.2986,4.2986,4.2986,4.2986,4.2986,4.2861,4.2665,4.2665,4.2082,4.0924,4.0676,4.04,4.0149,3.9848,3.9697,3.9697,3.9697,3.9697,3.9697,3.9697,3.9697,3.9697,3.9697,3.9697,3.9697,3.9697,3.9697,3.9697,3.9697,3.9697,3.9697,3.9697,3.9697,3.9697,3.9697,3.9697,3.9697,3.9697,3.9697,3.9697,3.9697,3.9697,3.9697,3.9697,3.9697,3.9697,3.9697,4.03,4.0727,4.0174,4.0249,4.035,4.0099,3.9848,3.9697,3.9697,3.9697,3.9697,3.9697,3.9697,3.9697,3.9697,3.9697,3.9697,3.9697,3.9697,3.9697,3.9697,3.9697,3.9697,3.9697,3.9998,4.0023,3.9697,3.9998,4.0149,4.0149,4.045,4.0852,4.1275,4.1656,4.1957,4.2233,4.1932,4.1781,4.1781,4.1781,4.148,4.1003,4.1304,4.1204,4.0852,4.0676,4.0849,4.1275,4.1275,4.153,4.1965]}]]